[[{"header":{"parameterUnit":"m.s-1","parameterCategory":1,"la1":30.6,"la2":28.766,"lo1":-90.7593,"lo2":-88.6598,"dy":0.0162,"dx":0.0183,"nx":116,"ny":114,"refTime":"2023-02-23T18:00:00:Z","depth":0,"parameterNumber":2,"parameterNumberName":"U-component_of_WINDS"},"data":[0.0,0.0,0.0,0.0,0.0,0.0,0.0,0.0,0.0,0.0,0.0,0.0,0.0,0.0,0.0,0.0,0.0,0.0,0.0,0.0,0.0,0.0,0.0,0.0,0.0,0.0,0.0,0.0,0.0,0.0,0.0,0.0,0.0,0.0,0.0,0.0,0.0,0.0,0.0,0.0,0.0,0.0,0.0,0.0,0.0,0.0,0.0,0.0,0.0,0.0,0.0,0.0,0.0,0.0,0.0,0.0,0.0,0.0,0.0,0.0,0.0,0.0,0.0,0.0,0.0,0.0,0.0,0.0,0.0,0.0,0.0,0.0,0.0,0.0,0.0,0.0,0.0,0.0,0.0,0.0,0.0,0.0,0.0,0.0,0.0,0.0,0.0,0.0,0.0,0.0,0.0,0.0,0.0,0.0,0.0,0.0,0.0,0.0,0.0,0.0,0.0,0.0,0.0,0.0,0.0,0.0,0.0,0.0,0.0,0.0,0.0,0.0,0.0,0.0,0.0,0.0,0.0,0.0,0.0,0.0,0.0,0.0,0.0,0.0,0.0,0.0,0.0,0.0,0.0,0.0,0.0,0.0,0.0,0.0,0.0,0.0,0.0,0.0,0.0,0.0,0.0,0.0,0.0,0.0,0.0,0.0,0.0,0.0,0.0,0.0,0.0,0.0,0.0,0.0,0.0,0.0,0.0,0.0,0.0,0.0,0.0,0.0,0.0,0.0,0.0,0.0,0.0,0.0,0.0,0.0,0.0,0.0,0.0,0.0,0.0,0.0,0.0,0.0,0.0,0.0,0.0,0.0,0.0,0.0,0.0,0.0,0.0,0.0,0.0,0.0,0.0,0.0,0.0,0.0,0.0,0.0,0.0,0.0,0.0,0.0,0.0,0.0,0.0,0.0,0.0,0.0,0.0,0.0,0.0,0.0,0.0,0.0,0.0,0.0,0.0,0.0,0.0,0.0,0.0,0.0,0.0,0.0,0.0,0.0,0.0,0.0,0.0,0.0,0.0,0.0,0.0,0.0,0.0,0.0,0.0,0.0,0.0,0.0,0.0,0.0,0.0,0.0,0.0,0.0,0.0,0.0,0.0,0.0,0.0,0.0,0.0,0.0,0.0,0.0,0.0,0.0,0.0,0.0,0.0,0.0,0.0,0.0,0.0,0.0,0.0,0.0,0.0,0.0,0.0,0.0,0.0,0.0,0.0,0.0,0.0,0.0,0.0,0.0,0.0,0.0,0.0,0.0,0.0,0.0,0.0,0.0,0.0,0.0,0.0,0.0,0.0,0.0,0.0,0.0,0.0,0.0,0.0,0.0,0.0,0.0,0.0,0.0,0.0,0.0,0.0,0.0,0.0,0.0,0.0,0.0,0.0,0.0,0.0,0.0,0.0,0.0,0.0,0.0,0.0,0.0,0.0,0.0,0.0,0.0,0.0,0.0,0.0,0.0,0.0,0.0,0.0,0.0,0.0,0.0,0.0,0.0,0.0,0.0,0.0,0.0,0.0,0.0,0.0,0.0,0.0,0.0,0.0,0.0,0.0,0.0,0.0,0.0,0.0,0.0,0.0,0.0,0.0,0.0,0.0,0.0,0.0,0.0,0.0,0.0,0.0,0.0,0.0,0.0,0.0,0.0,0.0,0.0,0.0,0.0,0.0,0.0,0.0,0.0,0.0,0.0,0.0,0.0,0.0,0.0,0.0,0.0,0.0,0.0,0.0,0.0,0.0,0.0,0.0,0.0,0.0,0.0,0.0,0.0,0.0,0.0,0.0,0.0,0.0,0.0,0.0,0.0,0.0,0.0,0.0,0.0,0.0,0.0,0.0,0.0,0.0,0.0,0.0,0.0,0.0,0.0,0.0,0.0,0.0,0.0,0.0,0.0,0.0,0.0,0.0,0.0,0.0,0.0,0.0,0.0,0.0,0.0,0.0,0.0,0.0,0.0,0.0,0.0,0.0,0.0,0.0,0.0,0.0,0.0,0.0,0.0,0.0,0.0,0.0,0.0,0.0,0.0,0.0,0.0,0.0,0.0,0.0,0.0,0.0,0.0,0.0,0.0,0.0,0.0,0.0,0.0,0.0,0.0,0.0,0.0,0.0,0.0,0.0,0.0,0.0,0.0,0.0,0.0,0.0,0.0,0.0,0.0,0.0,0.0,0.0,0.0,0.0,0.0,0.0,0.0,0.0,0.0,0.0,0.0,0.0,0.0,0.0,0.0,0.0,0.0,0.0,0.0,0.0,0.0,0.0,0.0,0.0,0.0,0.0,0.0,0.0,0.0,0.0,0.0,0.0,0.0,0.0,0.0,0.0,0.0,0.0,0.0,0.0,0.0,0.0,0.0,0.0,0.0,0.0,0.0,0.0,0.0,0.0,0.0,0.0,0.0,0.0,0.0,0.0,0.0,0.0,0.0,0.0,0.0,0.0,0.0,0.0,0.0,0.0,0.0,0.0,0.0,0.0,0.0,0.0,0.0,0.0,0.0,0.0,0.0,0.0,0.0,0.0,0.0,0.0,0.0,0.0,0.0,0.0,0.0,0.0,0.0,0.0,0.0,0.0,0.0,0.0,0.0,0.0,0.0,0.0,0.0,0.0,0.0,0.0,0.0,0.0,0.0,0.0,0.0,0.0,0.0,0.0,0.0,0.0,0.0,0.0,0.0,0.0,0.0,0.0,0.0,0.0,0.0,0.0,0.0,0.0,0.0,0.0,0.0,0.0,0.0,0.0,0.0,0.0,0.0,0.0,0.0,0.0,0.0,0.0,0.0,0.0,0.0,0.0,0.0,0.0,0.0,0.0,0.0,0.0,0.0,0.0,0.0,0.0,0.0,0.0,0.0,0.0,0.0,0.0,0.0,0.0,0.0,0.0,0.0,0.0,0.0,0.0,0.0,0.0,0.0,0.0,0.0,0.0,0.0,0.0,0.0,0.0,0.0,0.0,0.0,0.0,0.0,0.0,0.0,0.0,0.0,0.0,0.0,0.0,0.0,0.0,0.0,0.0,0.0,0.0,0.0,0.0,0.0,0.0,0.0,0.0,0.0,0.0,0.0,0.0,0.0,0.0,0.0,0.0,0.0,0.0,0.0,0.0,0.0,0.0,0.0,0.0,0.0,0.0,0.0,0.0,0.0,0.0,0.0,0.0,0.0,0.0,0.0,0.0,0.0,0.0,0.0,0.0,0.0,0.0,0.0,0.0,0.0,0.0,0.0,0.0,0.0,0.0,0.0,0.0,0.0,0.0,0.0,0.0,0.0,0.0,0.0,0.0,0.0,0.0,0.0,0.0,0.0,0.0,0.0,0.0,0.0,0.0,0.0,0.0,0.0,0.0,0.0,0.0,0.0,0.0,0.0,0.0,0.0,0.0,0.0,0.0,0.0,0.0,0.0,0.0,0.0,0.0,0.0,0.0,0.0,0.0,0.0,0.0,0.0,0.0,0.0,0.0,0.0,0.0,0.0,0.0,0.0,0.0,0.0,0.0,0.0,0.0,0.0,0.0,0.0,0.0,0.0,0.0,0.0,0.0,0.0,0.0,0.0,0.0,0.0,0.0,0.0,0.0,0.0,0.0,0.0,0.0,0.0,0.0,0.0,0.0,0.0,0.0,0.0,0.0,0.0,0.0,0.0,0.0,0.0,0.0,0.0,0.0,0.0,0.0,0.0,0.0,0.0,0.0,0.0,0.0,0.0,0.0,0.0,0.0,0.0,0.0,0.0,0.0,0.0,0.0,0.0,0.0,0.0,0.0,0.0,0.0,0.0,0.0,0.0,0.0,0.0,0.0,0.0,0.0,0.0,0.0,0.0,0.0,0.0,0.0,0.0,0.0,0.0,0.0,0.0,0.0,0.0,0.0,0.0,0.0,0.0,0.0,0.0,0.0,0.0,0.0,0.0,0.0,0.0,0.0,0.0,0.0,0.0,0.0,0.0,0.0,0.0,0.0,0.0,0.0,0.0,0.0,0.0,0.0,0.0,0.0,0.0,0.0,0.0,0.0,0.0,0.0,0.0,0.0,0.0,0.0,0.0,0.0,0.0,0.0,0.0,0.0,0.0,0.0,0.0,0.0,0.0,0.0,0.0,0.0,0.0,0.0,0.0,0.0,0.0,0.0,0.0,0.0,0.0,0.0,0.0,0.0,0.0,0.0,0.0,0.0,0.0,0.0,0.0,0.0,0.0,0.0,0.0,0.0,0.0,0.0,0.0,0.0,0.0,0.0,0.0,0.0,0.0,0.0,0.0,0.0,0.0,0.0,0.0,0.0,0.0,0.0,0.0,0.0,0.0,0.0,0.0,0.0,0.0,0.0,0.0,0.0,0.0,0.0,0.0,0.0,0.0,0.0,0.0,0.0,0.0,0.0,0.0,0.0,0.0,0.0,0.0,0.0,0.0,0.0,0.0,0.0,0.0,0.0,0.0,0.0,0.0,0.0,0.0,0.0,0.0,0.0,0.0,0.0,0.0,0.0,0.0,0.0,0.0,0.0,0.0,0.0,0.0,0.0,0.0,0.0,0.0,0.0,0.0,0.0,0.0,0.0,0.0,0.0,0.0,0.0,0.0,0.0,0.0,0.0,0.0,0.0,0.0,0.0,0.0,0.0,0.0,0.0,0.0,0.0,0.0,0.0,0.0,0.0,0.0,0.0,0.0,0.0,0.0,0.0,0.0,0.0,0.0,0.0,0.0,0.0,0.0,0.0,0.0,0.0,0.0,0.0,0.0,0.0,0.0,0.0,0.0,0.0,0.0,0.0,0.0,0.0,0.0,0.0,0.0,0.0,0.0,0.0,0.0,0.0,0.0,0.0,0.0,0.0,0.0,0.0,0.0,0.0,0.0,0.0,0.0,0.0,0.0,0.0,0.0,0.0,0.0,0.0,0.0,0.0,0.0,0.0,0.0,0.0,0.0,0.0,0.0,0.0,0.0,0.0,0.0,0.0,0.0,0.0,0.0,0.0,0.0,0.0,0.0,0.0,0.0,0.0,0.0,0.0,0.0,0.0,0.0,0.0,0.0,0.0,0.0,0.0,0.0,0.0,0.0,0.0,0.0,0.0,0.0,0.0,0.0,0.0,0.0,0.0,0.0,0.0,0.0,0.0,0.0,0.0,0.0,0.0,0.0,0.0,0.0,0.0,0.0,0.0,0.0,0.0,0.0,0.0,0.0,0.0,0.0,0.0,0.0,0.0,0.0,0.0,0.0,0.0,0.0,0.0,0.0,0.0,0.0,0.0,0.0,0.0,0.0,0.0,0.0,0.0,0.0,0.0,0.0,0.0,0.0,0.0,0.0,0.0,0.0,0.0,0.0,0.0,0.0,0.0,0.0,0.0,0.0,0.0,0.0,0.0,0.0,0.0,0.0,0.0,0.0,0.0,0.0,0.0,0.0,0.0,0.0,0.0,0.0,0.0,0.0,0.0,0.0,0.0,0.0,0.0,0.0,0.0,0.0,0.0,0.0,0.0,0.0,0.0,0.0,0.0,0.0,0.0,0.0,0.0,0.0,0.0,0.0,0.0,0.0,0.0,0.0,0.0,0.0,0.0,0.0,0.0,0.0,0.0,0.0,0.0,0.0,0.0,0.0,0.0,0.0,0.0,0.0,0.0,0.0,0.0,0.0,0.0,0.0,0.0,0.0,0.0,0.0,0.0,0.0,0.0,0.0,0.0,0.0,0.0,0.0,0.0,0.0,0.0,0.0,0.0,0.0,0.0,0.0,0.0,0.0,0.0,0.0,0.0,0.0,0.0,0.0,0.0,0.0,0.0,0.0,0.0,0.0,0.0,0.0,0.0,0.0,0.0,0.0,0.0,0.0,0.0,0.0,0.0,0.0,0.0,0.0,0.0,0.0,0.0,0.0,0.0,0.0,0.0,0.0,0.0,0.0,0.0,0.0,0.0,0.0,0.0,0.0,0.0,0.0,0.0,0.0,0.0,0.0,0.0,0.0,0.0,0.0,0.0,0.0,0.0,0.0,0.0,0.0,0.0,0.0,0.0,0.0,0.0,0.0,0.0,0.0,0.0,0.0,0.0,0.0,0.0,0.0,0.0,0.0,0.0,0.0,0.0,0.0,0.0,0.0,0.0,0.0,0.0,0.0,0.0,0.0,0.0,0.0,-2.6837,0.0,0.0,0.0,0.0,0.0,0.0,0.0,0.0,0.0,0.0,0.0,0.0,0.0,0.0,0.0,0.0,0.0,0.0,0.0,0.0,0.0,0.0,0.0,0.0,0.0,0.0,0.0,0.0,0.0,0.0,0.0,0.0,0.0,0.0,0.0,0.0,0.0,0.0,0.0,0.0,0.0,0.0,0.0,0.0,0.0,0.0,0.0,0.0,0.0,0.0,0.0,0.0,0.0,0.0,0.0,0.0,0.0,0.0,0.0,0.0,0.0,0.0,0.0,0.0,0.0,0.0,0.0,0.0,0.0,0.0,0.0,0.0,0.0,0.0,0.0,0.0,0.0,0.0,0.0,0.0,0.0,0.0,0.0,0.0,0.0,0.0,0.0,0.0,0.0,0.0,0.0,0.0,0.0,0.0,0.0,0.0,0.0,0.0,0.0,0.0,0.0,0.0,0.0,0.0,0.0,0.0,0.0,0.0,0.0,0.0,0.0,0.0,0.0,0.0,0.0,0.0,-2.7069,0.0,0.0,0.0,0.0,0.0,0.0,0.0,0.0,0.0,0.0,0.0,0.0,0.0,0.0,0.0,0.0,0.0,0.0,0.0,0.0,0.0,0.0,0.0,0.0,0.0,0.0,0.0,0.0,0.0,0.0,0.0,0.0,0.0,0.0,0.0,0.0,0.0,0.0,0.0,0.0,0.0,0.0,0.0,0.0,0.0,0.0,0.0,0.0,0.0,0.0,0.0,0.0,0.0,0.0,0.0,0.0,0.0,0.0,0.0,0.0,0.0,0.0,0.0,0.0,0.0,0.0,0.0,0.0,0.0,0.0,0.0,0.0,0.0,0.0,0.0,0.0,0.0,0.0,0.0,0.0,0.0,0.0,0.0,0.0,0.0,0.0,0.0,0.0,0.0,0.0,0.0,0.0,0.0,0.0,0.0,0.0,0.0,0.0,0.0,0.0,0.0,0.0,0.0,0.0,0.0,0.0,0.0,0.0,-2.4774,-2.5096,-2.5096,-2.525,-2.5308,-2.5385,-2.6833,-2.7045,-2.6447,-2.7313,0.0,0.0,0.0,0.0,0.0,0.0,0.0,0.0,0.0,0.0,0.0,0.0,0.0,0.0,0.0,0.0,0.0,0.0,0.0,0.0,0.0,0.0,0.0,0.0,0.0,0.0,0.0,0.0,0.0,0.0,0.0,0.0,0.0,0.0,0.0,0.0,0.0,0.0,-2.4292,-2.365,-2.4668,-2.7012,-2.7246,0.0,0.0,0.0,0.0,0.0,0.0,0.0,0.0,0.0,0.0,0.0,0.0,0.0,0.0,0.0,0.0,0.0,0.0,0.0,0.0,0.0,0.0,0.0,0.0,0.0,0.0,0.0,0.0,0.0,0.0,0.0,0.0,0.0,0.0,0.0,0.0,0.0,0.0,0.0,0.0,0.0,0.0,0.0,-2.2191,-2.1968,0.0,0.0,0.0,0.0,0.0,0.0,0.0,0.0,0.0,0.0,0.0,0.0,0.0,-2.411,-2.411,-2.3355,-2.3355,-2.411,-2.4206,-2.4259,-2.4279,-2.4981,-2.5308,-2.5313,-2.561,0.0,-2.5538,-2.6409,0.0,0.0,0.0,0.0,0.0,0.0,0.0,0.0,0.0,0.0,0.0,0.0,0.0,0.0,0.0,0.0,0.0,0.0,0.0,0.0,0.0,0.0,0.0,0.0,0.0,0.0,0.0,0.0,0.0,0.0,0.0,0.0,0.0,0.0,0.0,0.0,-2.3362,-2.3851,-2.5074,-2.4765,-2.5723,-2.7734,-2.769,-2.8395,-2.9512,-2.8144,0.0,0.0,0.0,0.0,0.0,0.0,0.0,0.0,0.0,0.0,0.0,0.0,0.0,0.0,0.0,0.0,0.0,0.0,0.0,0.0,0.0,0.0,0.0,0.0,0.0,0.0,0.0,0.0,0.0,0.0,0.0,0.0,0.0,0.0,0.0,0.0,0.0,0.0,0.0,-2.4121,-2.3725,-2.317,-2.4165,-2.487,0.0,0.0,0.0,0.0,0.0,0.0,0.0,0.0,0.0,-2.4793,-2.4336,-2.411,-2.411,-2.3725,-2.3737,-2.4169,-2.4605,-2.485,-2.4907,-2.5253,-2.5404,-2.5408,-2.5444,-2.5441,-2.5439,-2.5789,-2.6414,-2.7198,0.0,0.0,0.0,0.0,-2.9107,-2.8973,0.0,0.0,0.0,0.0,0.0,0.0,0.0,0.0,0.0,0.0,0.0,0.0,0.0,0.0,0.0,-2.7637,0.0,0.0,0.0,0.0,0.0,0.0,0.0,0.0,0.0,0.0,0.0,0.0,-2.4505,-2.5248,-2.6367,-2.6367,-2.7187,-2.8613,-2.8326,-2.8832,-2.9744,-2.7788,-2.7571,0.0,0.0,0.0,0.0,0.0,0.0,0.0,0.0,0.0,0.0,0.0,0.0,0.0,0.0,0.0,0.0,0.0,0.0,0.0,0.0,0.0,0.0,0.0,0.0,0.0,0.0,0.0,0.0,0.0,0.0,0.0,0.0,0.0,0.0,0.0,0.0,0.0,0.0,-2.4393,-2.4394,-2.373,-2.4568,-2.517,0.0,0.0,0.0,0.0,0.0,0.0,-2.5346,-2.5324,-2.5238,-2.5026,-2.4417,-2.411,-2.411,-2.4122,-2.4254,-2.4503,-2.514,-2.5453,-2.5491,-2.5491,-2.5491,-2.5491,-2.5491,-2.5481,-2.546,-2.5418,-2.5882,-2.6627,-2.6611,-2.7121,-2.7953,-2.8319,-2.8607,-2.8684,0.0,0.0,0.0,0.0,0.0,0.0,0.0,0.0,0.0,0.0,0.0,0.0,0.0,0.0,-2.7676,-2.9316,-2.8086,-2.7461,0.0,0.0,0.0,0.0,0.0,0.0,0.0,0.0,0.0,-2.6816,-2.6016,-2.6504,-2.8164,-2.8164,-2.8652,-2.9492,-2.8599,-2.9113,-3.048,-2.7894,-2.7797,-2.9267,0.0,0.0,0.0,0.0,0.0,0.0,0.0,0.0,0.0,0.0,0.0,0.0,0.0,0.0,0.0,0.0,0.0,0.0,0.0,0.0,0.0,0.0,0.0,0.0,0.0,0.0,0.0,0.0,0.0,0.0,0.0,0.0,0.0,0.0,0.0,0.0,0.0,0.0,0.0,-2.1933,-2.3379,0.0,0.0,0.0,0.0,-2.5484,-2.5487,-2.5494,-2.5489,-2.5434,-2.5037,-2.4273,-2.4149,-2.411,-2.411,-2.4161,-2.4573,-2.5344,-2.5451,-2.5508,-2.5491,-2.5491,-2.5491,-2.5491,-2.5491,-2.5454,-2.5397,-2.5406,-2.5917,-2.6695,-2.6627,-2.7121,-2.7799,-2.7024,-2.7255,-2.7838,0.0,0.0,0.0,0.0,0.0,0.0,0.0,0.0,0.0,0.0,0.0,0.0,0.0,-2.918,-2.9766,-3.0371,-3.0859,-3.0078,-2.7617,0.0,0.0,0.0,0.0,0.0,0.0,0.0,-2.5503,-2.6152,-2.6406,-2.7422,-2.9141,-2.9141,-2.9609,-3.043,-3.0005,-3.0422,-3.1278,-2.8126,-2.7168,-2.7617,-2.6243,-2.6313,0.0,0.0,0.0,0.0,0.0,0.0,0.0,0.0,0.0,0.0,0.0,0.0,0.0,0.0,0.0,0.0,0.0,0.0,0.0,0.0,0.0,0.0,0.0,0.0,0.0,0.0,0.0,0.0,0.0,0.0,0.0,0.0,0.0,0.0,0.0,0.0,0.0,-2.5019,-2.5176,0.0,-2.5918,-2.5723,-2.5538,-2.5449,-2.5449,-2.5429,-2.5368,-2.535,-2.5202,-2.4917,-2.4934,-2.4928,-2.487,-2.4978,-2.5182,-2.5471,-2.5537,-2.5594,-2.5633,-2.5633,-2.5633,-2.5632,-2.5573,-2.5552,-2.5511,-2.5438,-2.5557,-2.5793,-2.577,-2.6313,-2.7166,-2.7409,-2.8074,-2.883,0.0,0.0,0.0,0.0,0.0,0.0,0.0,0.0,0.0,0.0,0.0,-2.7656,-2.9414,-3.0644,-3.1445,-3.1719,-3.1973,-3.0918,-2.8066,0.0,0.0,0.0,0.0,0.0,0.0,-2.5767,-2.6382,-2.7012,-2.7598,-2.8613,-3.0039,-3.0039,-3.0351,-3.0918,-3.1061,-3.1428,-3.1761,-2.9777,-2.8406,-2.7457,-2.6098,-2.6357,-2.7475,0.0,0.0,0.0,0.0,0.0,0.0,0.0,0.0,0.0,0.0,0.0,0.0,0.0,0.0,0.0,0.0,0.0,0.0,0.0,0.0,0.0,0.0,0.0,0.0,0.0,0.0,0.0,0.0,0.0,0.0,0.0,0.0,0.0,0.0,0.0,-2.5682,-2.6855,-2.6758,-2.6797,-2.7324,-2.683,-2.6436,-2.6349,-2.6051,-2.5843,-2.5815,-2.5511,-2.5335,-2.533,-2.5383,-2.5387,-2.533,-2.5474,-2.552,-2.5522,-2.5602,-2.566,-2.5703,-2.5682,-2.5661,-2.5661,-2.5564,-2.5547,-2.5577,-2.5764,-2.582,-2.5804,-2.5786,-2.6355,-2.7243,-2.7819,-2.8608,-2.9449,0.0,0.0,0.0,0.0,0.0,0.0,0.0,0.0,0.0,0.0,-2.6504,-2.7734,-2.9453,-3.1191,-3.2539,-3.3301,-3.1035,-2.9551,-2.9512,-2.6242,0.0,0.0,0.0,0.0,-2.6893,-2.699,-2.7891,-2.9648,-2.9648,-3.0098,-3.0976,-3.0976,-3.0976,-3.1016,-3.1725,-3.2017,-3.2036,-3.2796,-3.1618,-2.9193,-2.8373,-2.8458,-2.9117,0.0,0.0,0.0,0.0,0.0,0.0,0.0,0.0,0.0,0.0,0.0,0.0,0.0,0.0,0.0,0.0,0.0,0.0,0.0,0.0,0.0,0.0,0.0,0.0,0.0,0.0,0.0,0.0,0.0,0.0,0.0,0.0,0.0,-2.4394,-2.5837,-2.6941,-2.707,-2.7793,-2.8301,-2.832,-2.8252,-2.8193,-2.8197,-2.7342,-2.6835,-2.6826,-2.5971,-2.5483,-2.5476,-2.5476,-2.5479,-2.5483,-2.5595,-2.5641,-2.568,-2.572,-2.5742,-2.5781,-2.5711,-2.568,-2.5675,-2.554,-2.5518,-2.5647,-2.6427,-2.6799,-2.688,-2.6786,-2.7317,-2.814,-2.814,-2.87,-2.9579,0.0,0.0,0.0,0.0,0.0,0.0,0.0,0.0,0.0,0.0,-2.7559,-2.9316,-3.043,-3.2051,-3.293,-3.2559,-3.0156,-2.8398,-2.7754,0.0,0.0,0.0,0.0,0.0,-2.6971,-2.7617,-2.8809,-3.0547,-3.0547,-3.1289,-3.2715,-3.2715,-3.2715,-3.2715,-3.2929,-3.3326,-3.383,-3.3414,-3.3156,-3.2777,-2.9984,-2.8956,-2.8928,0.0,0.0,0.0,0.0,0.0,0.0,0.0,0.0,0.0,0.0,0.0,0.0,0.0,0.0,0.0,0.0,0.0,0.0,0.0,0.0,0.0,0.0,0.0,0.0,0.0,0.0,0.0,0.0,0.0,0.0,0.0,0.0,-2.6268,-2.6192,-2.6633,-2.744,-2.873,-2.8491,-2.8481,-2.9105,-2.8544,-2.8116,-2.8057,-2.7826,-2.7647,-2.7609,-2.7345,-2.7218,-2.7288,-2.7295,-2.7318,-2.7362,-2.6823,-2.6868,-2.7479,-2.6912,-2.6951,-2.7503,-2.7496,-2.7492,-2.7489,-2.7384,-2.7408,-2.7461,-2.7646,-2.8126,-2.8693,-2.7999,-2.8286,-2.9127,-2.9127,-2.9706,-3.052,0.0,0.0,0.0,0.0,0.0,0.0,0.0,0.0,0.0,0.0,-2.7988,-2.9785,-3.0293,-3.1875,-3.2422,-3.1211,-2.9394,-2.7773,-2.6543,0.0,0.0,0.0,0.0,-2.7301,-2.8066,-2.8945,-3.0059,-3.1445,-3.1777,-3.2441,-3.3398,-3.3398,-3.3398,-3.3418,-3.3789,-3.4194,-3.4592,-3.4441,-3.4627,-3.4792,-3.2392,-3.1405,-3.1123,-2.8987,-2.9216,-3.0509,-2.9303,-2.9885,-3.102,-2.9814,0.0,0.0,0.0,0.0,0.0,0.0,0.0,0.0,0.0,0.0,0.0,0.0,0.0,0.0,0.0,0.0,0.0,0.0,0.0,0.0,0.0,0.0,0.0,0.0,-2.7734,-2.8339,-2.9018,-2.8534,-2.873,-3.0488,-3.0164,-2.9986,-3.05,-2.9991,-2.9482,-2.9081,-2.8684,-2.8449,-2.8396,-2.8088,-2.7923,-2.8008,-2.8039,-2.8068,-2.8106,-2.7686,-2.7713,-2.8149,-2.7718,-2.7742,-2.8192,-2.8174,-2.8177,0.0,-2.813,-2.8141,-2.8239,-2.8551,-2.9014,0.0,0.0,0.0,0.0,0.0,-3.0427,-3.0898,0.0,0.0,0.0,0.0,0.0,0.0,0.0,0.0,0.0,0.0,0.0,-2.9414,-2.9316,-3.0762,-3.1094,-2.9453,-2.8418,-2.7226,0.0,0.0,0.0,-2.7151,-2.7361,-2.8203,-2.9863,-3.0742,-3.1601,-3.248,-3.3203,-3.3594,-3.3691,-3.3691,-3.3691,-3.373,-3.4492,-3.4801,-3.4815,-3.5576,-3.5847,-3.5677,-3.4959,-3.4544,-3.4176,-3.2522,-3.281,-3.3871,-3.2315,-3.1893,-3.1824,-3.0236,0.0,0.0,0.0,0.0,0.0,0.0,0.0,0.0,0.0,0.0,0.0,0.0,0.0,0.0,0.0,0.0,0.0,0.0,0.0,0.0,0.0,0.0,0.0,0.0,-2.9782,-3.0508,-3.2246,-3.1074,-3.0605,-3.2148,-3.223,-3.2143,-3.2133,-3.2006,-3.156,-3.0694,-2.9852,-2.9357,-2.9261,0.0,0.0,0.0,0.0,-2.8501,-2.8538,-2.8647,-2.8686,-2.8693,-2.8659,-2.8681,-2.8778,-2.8619,-2.8628,-2.8766,-2.8497,-2.8544,-2.8831,-2.9515,-2.9838,-2.9883,-2.9718,-3.017,-3.0898,-3.0898,-3.0898,-3.0898,0.0,0.0,0.0,0.0,0.0,0.0,0.0,0.0,0.0,-2.6758,-2.7793,-2.8281,-2.7578,-2.8437,-2.8633,-2.7598,-2.601,-2.5238,0.0,0.0,-2.7394,-2.9003,-2.9765,-3.0625,-3.168,-3.25,-3.334,-3.4219,-3.4375,-3.4805,-3.5508,-3.5508,-3.5508,-3.5508,-3.5664,-3.5742,-3.5741,-3.5917,-3.5974,-3.5933,-3.5776,-3.4794,-3.3345,-3.23,-3.1701,-3.1395,-3.1045,-3.1835,-3.2879,-3.1903,-3.2487,-3.337,-3.1891,0.0,0.0,0.0,0.0,0.0,0.0,0.0,0.0,0.0,0.0,0.0,0.0,0.0,0.0,0.0,0.0,0.0,0.0,0.0,0.0,-3.0429,-3.123,-3.2285,-3.3984,-3.332,-3.2793,-3.3125,-3.3049,-3.2962,-3.2964,-3.2798,-3.2356,-3.1528,-3.1293,-3.0891,-3.0192,-3.0,-2.9957,-3.0014,-3.067,-3.1052,-3.1161,-3.1146,-3.1514,-3.2294,0.0,0.0,-3.2298,-3.1568,-3.1648,-3.2221,-3.0807,-3.1039,-3.2363,-3.1874,-3.1699,-3.1621,-3.0917,-3.0742,-3.0898,-3.0898,-3.0898,-3.0898,0.0,0.0,0.0,0.0,0.0,0.0,0.0,0.0,0.0,0.0,-2.8027,-2.8125,-2.7695,-2.7656,-2.7305,-2.6426,-2.5115,0.0,0.0,-2.7123,-2.8396,-3.0176,-3.1094,-3.1934,-3.2773,-3.3613,-3.4258,-3.4707,-3.5137,-3.5566,-3.5996,-3.5996,-3.5996,-3.6016,-3.6465,-3.6641,-3.668,-3.7129,-3.7305,-3.7305,-3.7305,-3.6734,-3.5754,-3.4402,-3.3925,-3.383,-3.292,-3.2888,-3.3124,-3.2272,-3.2282,-3.2511,-3.1749,-3.1184,-3.0734,0.0,0.0,0.0,0.0,0.0,0.0,0.0,0.0,0.0,0.0,0.0,0.0,0.0,0.0,-2.9544,0.0,0.0,-3.1328,-3.2598,-3.3164,-3.3906,-3.5176,-3.498,-3.4707,-3.4707,-3.4191,-3.3855,-3.3839,-3.3673,-3.3199,-3.2352,-3.2295,-3.1929,-3.1096,-3.1423,-3.1499,-3.1152,-3.1941,-3.2386,-3.2446,-3.2511,-3.2989,-3.3842,-3.3031,-3.3114,-3.392,-3.3041,-3.2912,-3.3294,-3.2435,-3.2556,-3.3379,-3.2969,-3.2793,-3.2715,-3.1875,-3.1289,-3.0898,-3.0898,-3.0898,-3.0957,0.0,0.0,0.0,0.0,0.0,0.0,0.0,0.0,0.0,0.0,-2.8008,-2.7793,-2.7793,-2.7012,-2.6211,0.0,0.0,0.0,0.0,-2.8046,-2.9394,-3.1309,-3.2226,-3.3066,-3.3887,-3.4766,-3.5215,-3.5215,-3.6074,-3.6426,-3.625,-3.625,-3.625,-3.6289,-3.6992,-3.7383,-3.7598,-3.8301,-3.8594,-3.8594,-3.8594,-3.8691,-3.8652,-3.6862,-3.6618,-3.6967,-3.4995,-3.3729,-3.2869,-3.2002,-3.1262,-3.0734,-3.0981,-3.0971,-3.0721,-3.0058,-3.0117,0.0,0.0,0.0,0.0,0.0,0.0,0.0,0.0,0.0,-2.9236,-2.985,-3.0166,-3.0703,-3.1905,-3.2439,-3.3125,-3.4473,-3.498,-3.5449,-3.6152,-3.625,-3.625,-3.6229,-3.5355,-3.4798,-3.4943,-3.4643,-3.4083,-3.3218,-3.3141,-3.2795,-3.1987,-3.2545,-3.2625,-3.2024,-3.2961,-3.3494,-3.351,-3.4007,-3.4561,-3.5181,-3.4564,-3.4665,-3.5336,-3.43,-3.3958,-3.4141,-3.3984,-3.3809,-3.3672,-3.3848,-3.3809,-3.3594,-3.2949,-3.2148,-3.1367,-3.1211,-3.125,-3.1484,0.0,0.0,0.0,0.0,0.0,0.0,0.0,0.0,0.0,0.0,0.0,0.0,0.0,0.0,0.0,0.0,0.0,0.0,-2.7952,-2.889,-3.048,-3.3008,-3.3965,-3.4824,-3.5684,-3.6562,-3.7012,-3.7012,-3.7871,-3.791,-3.7148,-3.7148,-3.7148,-3.7168,-3.7266,-3.7734,-3.8457,-3.8555,-3.8594,-3.8594,-3.8594,-3.9062,-3.9551,-3.7812,-3.7207,-3.6952,-3.4432,-3.3006,-3.2186,-3.1307,-3.0867,-3.0867,-3.1755,-3.1437,-3.0737,-3.0741,0.0,-2.8379,-2.7402,-2.6719,-2.6719,-2.8535,-2.8711,-2.9007,0.0,0.0,-3.1755,-3.1728,-3.2388,-3.2812,-3.2285,-3.3418,-3.4473,-3.4668,-3.5996,-3.7031,-3.7148,-3.7148,-3.7127,-3.7067,-3.6189,-3.5842,-3.6551,-3.5868,-3.4988,-3.4129,-3.4052,-3.3686,-3.2814,-3.2852,-3.2859,-3.2781,-3.4372,-3.5244,-3.5321,-3.6871,-3.7755,-3.794,-3.7874,-3.7934,-3.8105,-3.6445,-3.6113,-3.6816,-3.6055,-3.5273,-3.4609,-3.5391,-3.5254,-3.4551,-3.4453,-3.3887,-3.3027,-3.2324,-3.2519,-3.3125,0.0,0.0,0.0,0.0,0.0,0.0,0.0,0.0,0.0,0.0,0.0,0.0,0.0,0.0,0.0,0.0,0.0,0.0,-2.8141,-2.9547,-3.1248,-3.3301,-3.4726,-3.5859,-3.6738,-3.7109,-3.7559,-3.8066,-3.791,-3.793,-3.8047,-3.7539,-3.7578,-3.8086,-3.8594,-3.9023,-3.9394,-3.9902,-4.0117,-4.0117,-4.0117,-4.0039,-3.9707,-3.7969,-3.668,-3.5586,-3.3965,-3.2226,0.0,0.0,-3.0526,-3.0228,-3.1152,-3.0819,-2.9975,-2.9511,-2.8867,0.0,-2.7422,-2.6973,0.0,0.0,-3.0723,-3.1676,-3.3227,-3.3608,-3.3788,-3.423,-3.4236,-3.4219,-3.4375,-3.498,-3.5625,0.0,-3.6816,-3.748,-3.7988,-3.7617,-3.7436,-3.7795,-3.6567,-3.5823,-3.6105,-3.6183,-3.5846,-3.5026,-3.4968,-3.4584,-3.3699,-3.4584,-3.4905,-3.4472,-3.6153,-3.7096,-3.716,-3.7929,-3.8608,-3.9148,-3.8718,-3.8806,-3.9316,-3.8086,-3.7441,-3.7246,-3.6387,-3.5781,-3.5488,-3.5859,-3.5781,-3.541,-3.4902,-3.4785,-3.4746,-3.3398,-3.3105,-3.3476,0.0,0.0,0.0,0.0,0.0,0.0,0.0,0.0,0.0,0.0,0.0,0.0,0.0,0.0,0.0,0.0,0.0,0.0,0.0,-2.9355,-3.0937,-3.2637,-3.4141,-3.5469,-3.6562,-3.6816,-3.7363,-3.8242,-3.7851,-3.7851,-3.8223,-3.7598,-3.7773,-3.8633,-3.9258,-3.9805,-4.0293,-4.0937,-4.1055,-4.084,-4.084,-4.0176,-3.8984,-3.7246,-3.5351,-3.3535,-3.2656,-3.0859,0.0,0.0,-2.9258,-2.8769,-3.0117,-2.9941,-2.9121,-2.8496,-2.7969,-2.7598,-2.7637,0.0,0.0,-3.0996,-3.2851,-3.4336,-3.5192,-3.5409,-3.5586,-3.6209,-3.5468,-3.4883,-3.5527,-3.5644,-3.5937,-3.6797,-3.7344,-3.7969,-3.8848,-3.8183,-3.7775,-3.8241,-3.6969,-3.5909,-3.5602,-3.6061,-3.6135,-3.5538,-3.5712,-3.5558,-3.4911,-3.6311,-3.6877,-3.6328,-3.7798,-3.8613,-3.8694,-3.8972,-3.9444,-4.0101,-3.9568,-3.9648,-4.0234,-3.9355,-3.8359,-3.7285,-3.6894,-3.6582,-3.6387,-3.6621,-3.6719,-3.6621,-3.5762,-3.5801,-3.6211,-3.4941,-3.4316,-3.4219,0.0,0.0,0.0,0.0,0.0,0.0,0.0,0.0,0.0,0.0,0.0,0.0,0.0,0.0,0.0,0.0,0.0,0.0,0.0,-2.7871,-2.916,-3.0898,-3.1836,-3.3086,-3.4746,-3.5605,-3.6465,-3.7344,-3.8164,-3.8144,-3.7344,-3.7305,-3.7773,-3.8594,-3.8633,-3.957,-4.1152,-4.1191,-4.0703,-3.9941,-3.9941,-3.8906,-3.7187,-3.5449,-3.3203,-3.0898,-3.0039,0.0,0.0,0.0,-2.6543,-2.6269,-2.8828,-2.9043,0.0,-2.8301,-2.7109,0.0,0.0,0.0,-3.0137,-3.2695,-3.4629,-3.6131,-3.6932,-3.7175,-3.7206,-3.7163,-3.5852,-3.4707,-3.4726,-3.4746,-3.5019,-3.5898,-3.7461,-3.8867,-3.9746,-3.8994,-3.835,-3.8303,-3.7447,-3.6505,0.0,-3.5519,-3.5538,-3.55,-3.6212,-3.6654,-3.6635,-3.7608,-3.8139,-3.8125,-3.9064,-3.9588,-3.9653,-4.051,-4.0998,-4.1152,-4.1133,-4.1133,-4.1133,-4.0254,-3.8926,-3.7344,-3.8164,-3.8047,-3.7324,-3.8164,-3.8516,-3.8437,-3.7559,-3.7246,-3.7246,-3.7207,-3.6641,-3.5918,0.0,0.0,0.0,0.0,0.0,0.0,0.0,0.0,0.0,0.0,0.0,0.0,0.0,0.0,0.0,0.0,0.0,0.0,0.0,-2.7812,-2.8828,-2.998,-3.0879,-3.2129,-3.3809,-3.4121,-3.498,-3.6445,-3.6152,-3.6152,-3.6426,-3.5859,-3.6348,-3.7734,-3.7734,-3.8379,-3.9473,-3.9473,-3.9316,-3.8945,-3.7773,-3.6601,-3.5332,-3.3047,-3.1289,-2.9844,0.0,0.0,0.0,0.0,0.0,0.0,-2.6738,0.0,0.0,-2.7266,0.0,0.0,0.0,0.0,-3.4199,-3.5625,-3.6855,-3.8105,-3.9527,-3.8983,-3.7988,-3.74,-3.5448,-3.3672,-3.3144,-3.3047,-3.3691,-3.5684,-3.6973,-3.8457,-4.0488,-3.9979,-3.9122,-3.8387,-3.7518,0.0,0.0,0.0,0.0,-3.5538,-3.625,-3.6735,-3.6822,-3.8214,-3.9059,-3.9182,-4.0062,-4.0842,-4.1481,-4.1246,-4.1424,-4.1992,-4.1465,-4.1191,-4.1172,-4.0293,-3.957,-3.9004,-3.8711,-3.8437,-3.8184,-3.8476,-3.8594,-3.8574,-3.8281,-3.8164,-3.8164,-3.8164,-3.7988,-3.7734,0.0,0.0,0.0,0.0,0.0,0.0,0.0,0.0,0.0,0.0,0.0,0.0,0.0,0.0,0.0,0.0,0.0,0.0,0.0,0.0,-2.7754,-2.8633,-2.9219,-3.0293,-3.2012,-3.2344,-3.3203,-3.4648,-3.4082,-3.4082,-3.4629,-3.375,-3.4101,-3.5488,-3.5488,-3.6113,-3.7187,-3.6875,-3.6738,-3.6641,-3.5527,-3.4375,-3.3164,-3.1523,-3.0351,0.0,0.0,0.0,0.0,0.0,0.0,0.0,0.0,0.0,0.0,0.0,0.0,0.0,0.0,-3.4316,-3.6758,-3.793,-3.8887,-3.9746,-4.0547,-3.9629,-3.8184,-3.668,-3.4785,-3.3066,-3.1934,-3.1718,-3.244,-3.4707,-3.578,-3.7264,-3.9902,-3.9744,-3.9224,-3.885,-3.7983,0.0,0.0,0.0,0.0,-3.5981,-3.7012,-3.77,-3.779,-3.9184,-4.0025,-4.0159,-4.0759,-4.1497,-4.2383,-4.1894,-4.1894,-4.2383,-4.1875,-4.1484,-4.1172,-4.0625,-4.0195,-3.9883,-3.9648,-3.9355,-3.9082,-3.9394,-3.9531,-3.9492,-3.9199,-3.9062,-3.9062,-3.9062,-3.9062,-3.9023,0.0,0.0,0.0,0.0,0.0,0.0,0.0,0.0,0.0,0.0,0.0,0.0,0.0,0.0,0.0,0.0,0.0,0.0,0.0,0.0,0.0,-2.6894,-2.6934,-2.7734,-2.9434,-3.0273,-3.1133,-3.1992,-3.1992,-3.2012,-3.2051,-3.1211,-3.1328,-3.2207,-3.2207,-3.3105,-3.457,-3.375,-3.3398,-3.3398,-3.3301,-3.2324,-3.0898,-3.0801,0.0,0.0,0.0,0.0,0.0,0.0,0.0,0.0,0.0,0.0,0.0,0.0,0.0,-3.1641,-3.4219,-3.6172,-3.7891,-3.9551,-4.0625,-4.1016,-4.0117,-3.916,-3.7754,-3.5215,-3.3906,-3.2715,0.0,0.0,-3.1337,-3.3164,-3.4135,-3.5635,-3.8418,-3.8681,-3.8915,0.0,0.0,0.0,0.0,0.0,0.0,-3.6964,0.0,-3.9461,-3.9478,-4.0539,-4.1115,-4.1078,-4.1246,-4.1699,-4.2461,-4.2519,-4.248,-4.2402,-4.2402,-4.1973,-4.1191,-4.1191,-4.0742,-4.0019,-4.084,-4.0723,-4.0039,-4.0859,-4.1191,-4.1113,-4.0332,-4.0039,-4.0039,-4.0078,-4.0098,-3.9961,0.0,0.0,0.0,0.0,0.0,0.0,0.0,0.0,0.0,0.0,0.0,0.0,0.0,0.0,0.0,0.0,0.0,0.0,0.0,0.0,0.0,0.0,0.0,0.0,0.0,0.0,0.0,0.0,0.0,-2.9629,-3.0254,-3.0039,-3.0742,-3.2207,-3.2207,-3.2773,-3.3711,-3.3496,-3.3398,-3.3281,0.0,-3.1289,-3.0762,0.0,0.0,0.0,0.0,0.0,0.0,0.0,0.0,0.0,0.0,0.0,-2.9648,0.0,0.0,-3.4297,-3.6894,-3.8887,-4.0312,-4.0762,-4.1484,-4.1719,-4.0234,-3.8223,-3.6289,-3.4961,-3.25,-3.0449,0.0,0.0,0.0,-3.3887,-3.5097,0.0,-4.0898,-4.1406,0.0,0.0,0.0,-4.0586,-3.9217,-4.0246,0.0,0.0,-4.0109,-4.0432,-4.0583,-4.2078,-4.2653,-4.2067,-4.2715,-4.3164,-4.3379,-4.4004,-4.3691,-4.2402,-4.2402,-4.1973,-4.1191,-4.1191,-4.1074,-4.0879,-4.1094,-4.1074,-4.0898,-4.1113,-4.1191,-4.123,-4.1621,-4.1758,-4.1836,-4.248,-4.2734,-4.2617,0.0,0.0,0.0,0.0,0.0,0.0,0.0,0.0,0.0,0.0,0.0,0.0,0.0,0.0,0.0,0.0,0.0,0.0,0.0,0.0,0.0,0.0,0.0,0.0,0.0,0.0,0.0,0.0,0.0,0.0,0.0,-2.8633,-2.918,-3.0488,-3.0488,-3.0957,-3.1719,-3.1328,0.0,0.0,0.0,0.0,0.0,0.0,0.0,0.0,0.0,0.0,0.0,0.0,0.0,-2.8223,-2.8711,-3.0234,-3.2129,-3.3555,0.0,-3.7383,-3.9238,-4.0996,-4.2207,-4.1816,-4.1797,-4.1328,-3.9238,-3.7324,-3.5449,-3.3437,-3.1816,0.0,0.0,0.0,0.0,0.0,0.0,0.0,-4.0176,-4.1387,-4.2128,0.0,-4.2824,0.0,-4.1338,-4.2077,-4.2432,0.0,-4.1968,-4.2016,-4.2132,-4.3106,-4.3432,-4.2988,-4.3437,-4.3887,-4.4277,-4.5137,-4.4707,-4.2969,-4.2969,-4.2539,-4.1738,-4.1738,-4.1933,-4.2305,0.0,-4.2305,-4.2305,-4.2305,-4.2305,-4.2344,-4.2793,-4.2969,-4.3027,-4.3516,-4.3691,-4.3633,0.0,0.0,0.0,0.0,0.0,0.0,0.0,0.0,0.0,0.0,0.0,0.0,0.0,0.0,0.0,0.0,0.0,0.0,0.0,0.0,0.0,0.0,0.0,0.0,0.0,0.0,0.0,0.0,0.0,0.0,0.0,0.0,0.0,0.0,0.0,0.0,0.0,0.0,0.0,0.0,0.0,0.0,0.0,0.0,0.0,0.0,0.0,0.0,0.0,0.0,-2.9766,-2.9805,-3.0039,-3.2383,-3.5078,-3.5176,-3.7519,-4.0254,-4.1113,-4.25,-4.3496,-4.2617,-4.1719,-4.0371,-3.7871,-3.6367,-3.4648,-3.168,0.0,0.0,-3.0039,0.0,-3.0303,-3.2226,0.0,-3.4758,-3.8437,-4.0332,-4.1973,-4.3672,-4.3912,-4.3888,-4.3771,-4.376,-4.3767,-4.3769,-4.3895,-4.3917,-4.378,-4.3941,-4.4043,-4.4043,-4.3926,-4.4297,-4.5156,-4.5918,-4.5488,-4.3867,-4.3867,-4.3418,-4.2578,-4.2578,-4.2988,-4.3691,-4.3691,0.0,-4.3691,-4.3691,-4.3691,-4.3711,-4.3828,-4.3867,-4.3887,-4.4004,-4.4043,-4.4023,0.0,0.0,0.0,0.0,0.0,0.0,0.0,0.0,0.0,0.0,-3.0601,0.0,0.0,0.0,0.0,0.0,0.0,0.0,0.0,0.0,0.0,0.0,0.0,0.0,0.0,0.0,0.0,0.0,0.0,0.0,0.0,0.0,0.0,0.0,0.0,0.0,0.0,0.0,0.0,0.0,0.0,0.0,0.0,0.0,0.0,0.0,0.0,0.0,0.0,0.0,-3.0664,-3.0918,-3.2305,-3.4629,-3.6992,-3.7715,-3.9375,-4.1152,-4.1973,-4.293,-4.3496,-4.2617,-4.125,-3.9629,-3.7734,-3.5,0.0,0.0,0.0,-3.0176,-3.0605,-3.0664,0.0,-3.3867,0.0,0.0,0.0,0.0,-4.2832,0.0,0.0,0.0,0.0,0.0,0.0,0.0,0.0,-4.5526,-4.4804,-4.5449,-4.5859,-4.5859,-4.5156,-4.5195,-4.6074,-4.6211,-4.5781,-4.4766,-4.4766,-4.4316,-4.3476,-4.3476,-4.3555,-4.3691,-4.3691,0.0,-4.3691,-4.3691,-4.3691,-4.3769,-4.4492,-4.4766,-4.4863,-4.5586,-4.5859,-4.5742,0.0,0.0,0.0,0.0,0.0,0.0,0.0,0.0,0.0,-3.1748,-3.2282,-3.211,0.0,0.0,0.0,0.0,0.0,0.0,0.0,0.0,0.0,0.0,0.0,0.0,0.0,0.0,0.0,0.0,0.0,0.0,0.0,0.0,0.0,0.0,0.0,0.0,0.0,0.0,0.0,0.0,0.0,0.0,0.0,0.0,0.0,0.0,0.0,0.0,0.0,0.0,-3.1289,-3.1113,-3.2383,-3.4551,-3.6797,-3.7676,-3.9785,-4.2012,-4.2851,-4.4043,-4.4726,-4.3418,-4.1484,-3.9316,-3.7129,0.0,0.0,0.0,0.0,-3.0391,-3.082,0.0,0.0,0.0,0.0,0.0,0.0,0.0,0.0,0.0,0.0,0.0,0.0,0.0,0.0,0.0,0.0,-4.6113,-4.5703,-4.6074,-4.6308,-4.6308,-4.5898,-4.5879,-4.6308,-4.6308,-4.5859,-4.5,-4.5,-4.4785,-4.4375,-4.4375,-4.4629,-4.5058,-4.5058,0.0,-4.5058,-4.5058,-4.5058,-4.5098,-4.5508,-4.5683,-4.5723,-4.6152,-4.6308,-4.623,0.0,0.0,0.0,0.0,0.0,0.0,0.0,-3.2144,-3.2118,-3.3064,-3.3697,-3.3304,-3.1241,-3.1072,-3.0892,0.0,0.0,0.0,0.0,0.0,0.0,0.0,0.0,0.0,0.0,0.0,0.0,0.0,0.0,0.0,0.0,0.0,0.0,0.0,0.0,0.0,0.0,0.0,0.0,0.0,0.0,0.0,0.0,0.0,0.0,0.0,0.0,0.0,0.0,0.0,-3.1465,-3.0996,-3.1484,-3.3516,-3.5859,-3.6543,-3.918,-4.209,-4.3144,-4.4551,-4.541,-4.4043,-4.1504,-3.8769,-3.6504,-3.3887,0.0,0.0,-3.0898,-3.0898,-3.0898,0.0,0.0,0.0,0.0,0.0,0.0,0.0,0.0,0.0,0.0,0.0,0.0,0.0,0.0,0.0,0.0,0.0,-4.6308,-4.6308,-4.6308,-4.6308,-4.6308,-4.6308,-4.6308,-4.6308,-4.5957,-4.5273,-4.5273,-4.5273,-4.5273,-4.5273,-4.5644,-4.6308,-4.6308,0.0,0.0,-4.6308,-4.6308,-4.6308,-4.6308,-4.6308,-4.6308,-4.6308,-4.6308,-4.6308,0.0,0.0,0.0,0.0,0.0,0.0,0.0,-3.1749,-3.2275,-3.3878,-3.3474,-3.2947,-3.2717,-3.2747,-3.1874,0.0,0.0,0.0,0.0,0.0,0.0,0.0,0.0,0.0,0.0,0.0,0.0,0.0,0.0,0.0,0.0,0.0,0.0,0.0,0.0,0.0,0.0,0.0,0.0,0.0,0.0,0.0,0.0,0.0,0.0,0.0,0.0,0.0,0.0,0.0,0.0,-3.0781,-3.0059,-3.2129,-3.4844,-3.4922,0.0,0.0,-4.207,-4.3203,-4.3906,-4.373,-4.0586,-3.7266,-3.623,0.0,0.0,0.0,-3.0898,-3.0898,-3.0898,-3.0898,0.0,0.0,0.0,0.0,0.0,0.0,0.0,0.0,0.0,0.0,0.0,0.0,0.0,0.0,0.0,0.0,-4.6308,-4.6308,-4.6308,-4.6308,-4.6308,-4.6308,-4.6308,-4.6308,-4.6269,-4.6172,-4.6172,-4.6172,-4.6172,-4.6172,-4.6211,-4.6308,-4.6308,0.0,0.0,-4.6308,-4.6308,-4.6308,-4.6308,-4.6308,-4.6308,-4.6308,-4.6308,-4.6308,0.0,0.0,0.0,0.0,0.0,0.0,0.0,-3.2352,-3.2295,-3.3975,-3.4353,-3.3891,-3.2333,-3.31,-3.2734,0.0,0.0,0.0,0.0,0.0,0.0,0.0,0.0,0.0,0.0,0.0,0.0,0.0,0.0,0.0,0.0,0.0,0.0,0.0,0.0,0.0,0.0,0.0,0.0,0.0,0.0,0.0,0.0,0.0,0.0,0.0,0.0,0.0,0.0,0.0,0.0,0.0,-2.9707,-3.0176,0.0,0.0,-3.5644,-3.8711,-4.043,-4.2266,-4.3457,-4.2441,-3.9726,-3.6934,-3.5547,0.0,0.0,-3.0898,-3.0898,-3.0898,-3.0898,-3.0898,-3.1191,0.0,0.0,0.0,0.0,0.0,0.0,0.0,0.0,0.0,0.0,0.0,0.0,0.0,0.0,0.0,-4.6308,-4.6308,-4.6308,-4.6308,-4.6308,-4.6308,-4.6308,-4.6308,-4.6308,-4.6308,-4.6308,-4.6308,-4.6308,-4.6308,-4.6308,-4.6308,-4.6308,0.0,0.0,-4.6308,-4.6308,-4.6308,-4.6308,-4.6308,-4.6308,-4.6308,-4.6308,-4.6308,0.0,0.0,0.0,0.0,0.0,0.0,-3.3141,-3.2468,-3.2218,-3.3622,-3.4353,-3.4154,-3.2602,-3.3045,-3.2877,-3.1441,0.0,0.0,0.0,0.0,0.0,0.0,0.0,0.0,0.0,0.0,0.0,0.0,0.0,0.0,0.0,0.0,0.0,0.0,0.0,0.0,0.0,0.0,0.0,0.0,0.0,0.0,0.0,0.0,0.0,0.0,0.0,0.0,0.0,0.0,0.0,0.0,0.0,0.0,0.0,0.0,-3.3496,-3.6211,-3.8203,-4.043,-4.1914,-4.0723,-3.8652,-3.6465,0.0,0.0,0.0,-3.0898,-3.0898,-3.0898,-3.0898,-3.0898,-3.1094,0.0,0.0,0.0,0.0,0.0,0.0,0.0,0.0,0.0,0.0,0.0,0.0,0.0,0.0,0.0,-4.6308,-4.6308,-4.6308,-4.6308,-4.6308,-4.6308,-4.6308,-4.6308,-4.6308,-4.6308,-4.6308,-4.6308,-4.6308,-4.6308,-4.6308,-4.6308,-4.6308,0.0,0.0,-4.6308,-4.6308,-4.6308,-4.6308,-4.6308,-4.6308,-4.6308,-4.6308,-4.6308,0.0,0.0,0.0,0.0,0.0,0.0,0.0,-3.1718,-3.1987,-3.2814,-3.291,-3.3256,-3.409,-3.2718,-3.2066,-3.289,0.0,0.0,0.0,0.0,0.0,0.0,0.0,0.0,0.0,0.0,-3.0503,-3.0503,-3.0626,0.0,0.0,0.0,0.0,0.0,0.0,0.0,0.0,0.0,0.0,0.0,0.0,0.0,0.0,0.0,0.0,0.0,0.0,0.0,0.0,0.0,0.0,0.0,0.0,0.0,0.0,0.0,-3.0879,-3.2812,-3.5351,-3.7324,-3.8652,-3.8633,-3.7305,-3.5566,0.0,0.0,0.0,-3.0898,-3.0898,-3.0898,-3.0898,-3.0898,-3.0898,-3.0918,0.0,0.0,0.0,0.0,0.0,0.0,0.0,0.0,0.0,0.0,0.0,0.0,0.0,0.0,0.0,-4.6308,-4.6308,-4.6308,-4.6308,-4.6308,-4.6308,-4.6308,-4.6308,-4.6308,-4.6308,-4.6308,-4.6308,-4.6308,-4.6308,0.0,0.0,0.0,0.0,-4.6308,-4.6308,-4.6308,-4.6308,-4.6308,-4.6308,-4.6308,-4.6308,-4.6308,0.0,0.0,0.0,0.0,0.0,0.0,0.0,-3.1192,-3.1115,-3.1968,-3.1558,-3.1288,-3.1558,-3.1135,-3.0922,-3.1199,0.0,0.0,0.0,0.0,0.0,0.0,0.0,0.0,0.0,0.0,-3.0756,-3.1389,-3.1441,-3.1482,-3.1512,-3.1606,0.0,0.0,0.0,0.0,0.0,0.0,0.0,0.0,0.0,0.0,0.0,0.0,0.0,0.0,0.0,0.0,0.0,0.0,0.0,0.0,0.0,0.0,0.0,0.0,0.0,0.0,-3.3848,-3.5059,-3.5937,-3.5937,-3.4668,-3.3262,-3.2715,0.0,0.0,0.0,-3.0898,-3.0898,-3.0898,-3.0898,-3.1289,-3.2422,0.0,0.0,0.0,0.0,0.0,0.0,0.0,0.0,0.0,0.0,0.0,0.0,0.0,0.0,0.0,-4.6308,-4.6308,-4.6308,-4.6308,-4.6308,-4.6308,-4.6308,-4.6308,-4.6308,-4.6308,-4.6308,-4.6308,-4.6308,-4.6308,0.0,0.0,0.0,0.0,-4.6308,-4.6308,-4.6308,-4.6308,-4.6308,-4.6308,-4.6308,-4.6308,-4.6308,0.0,0.0,0.0,0.0,0.0,0.0,0.0,-3.075,-3.0596,-3.1135,-3.0731,-3.0635,-3.1269,-3.0788,-3.0654,-3.1288,0.0,0.0,0.0,0.0,0.0,0.0,0.0,0.0,-3.0404,-3.0404,-3.086,-3.1762,-3.1792,-3.1831,-3.1852,-3.1932,-3.1499,-3.0671,0.0,0.0,0.0,0.0,0.0,0.0,0.0,0.0,-3.0898,0.0,0.0,0.0,0.0,0.0,0.0,0.0,0.0,0.0,0.0,0.0,0.0,0.0,0.0,0.0,0.0,-3.2851,-3.3359,-3.3672,-3.2715,0.0,0.0,0.0,0.0,0.0,0.0,0.0,0.0,0.0,0.0,0.0,0.0,0.0,0.0,0.0,0.0,0.0,0.0,0.0,0.0,0.0,0.0,0.0,0.0,0.0,0.0,-4.6308,-4.6308,-4.6308,-4.6308,-4.6308,-4.6308,-4.6308,-4.6308,-4.6308,-4.6308,-4.6308,-4.6308,-4.6308,-4.6308,0.0,0.0,0.0,0.0,-4.6308,-4.6308,-4.6308,-4.6308,-4.6308,-4.6308,-4.6308,-4.6308,-4.6308,0.0,0.0,0.0,0.0,0.0,0.0,0.0,0.0,0.0,0.0,-3.0346,-3.0885,-3.2372,-3.1212,-3.0904,0.0,0.0,0.0,0.0,0.0,0.0,0.0,0.0,0.0,-3.0404,-3.0404,-3.0827,-3.1698,-3.182,-3.1879,-3.1879,-3.2062,-3.1641,-3.0697,-3.0823,-3.0809,-3.0717,-3.0838,-3.0898,-3.0898,-3.0898,-3.0898,0.0,0.0,0.0,0.0,0.0,0.0,0.0,0.0,0.0,0.0,0.0,0.0,0.0,0.0,0.0,0.0,0.0,0.0,0.0,0.0,0.0,0.0,0.0,0.0,0.0,0.0,0.0,0.0,0.0,0.0,0.0,0.0,0.0,0.0,0.0,0.0,0.0,0.0,0.0,0.0,0.0,0.0,0.0,0.0,0.0,0.0,0.0,-4.6308,-4.6308,-4.6308,-4.6308,-4.6308,-4.6308,-4.6308,-4.6308,-4.6308,-4.6308,-4.6308,-4.6308,-4.6308,-4.6308,0.0,0.0,0.0,0.0,-4.6308,-4.6308,-4.6308,-4.6308,-4.6308,-4.6308,-4.6308,-4.6308,-4.6308,0.0,0.0,0.0,0.0,0.0,0.0,0.0,0.0,0.0,0.0,-2.9813,-2.9313,-2.9102,-2.9275,-2.9313,0.0,0.0,0.0,0.0,0.0,0.0,0.0,0.0,0.0,-3.0404,-3.0404,-3.0827,-3.1698,-3.2331,-3.2638,-3.2663,-3.4065,-3.3582,-3.1549,-3.2279,-3.1899,-3.0717,-3.0838,-3.0898,-3.0898,-3.0898,-3.0898,0.0,0.0,0.0,0.0,-3.0898,-3.0898,0.0,0.0,0.0,0.0,0.0,0.0,0.0,0.0,-3.0721,0.0,0.0,0.0,0.0,0.0,0.0,0.0,0.0,0.0,0.0,0.0,0.0,0.0,0.0,0.0,0.0,0.0,0.0,0.0,0.0,0.0,0.0,0.0,0.0,0.0,0.0,0.0,0.0,0.0,0.0,0.0,0.0,-4.6308,-4.6308,-4.6308,-4.6308,-4.6308,-4.6308,-4.6308,-4.6308,-4.6308,-4.6308,-4.6308,-4.6308,-4.6308,-4.6308,0.0,0.0,0.0,-4.6308,-4.6308,-4.6308,-4.6308,-4.6308,-4.6308,-4.6308,-4.6308,-4.6308,-4.6308,0.0,0.0,0.0,0.0,0.0,0.0,0.0,0.0,0.0,0.0,0.0,0.0,0.0,0.0,0.0,0.0,0.0,0.0,0.0,0.0,0.0,0.0,0.0,-3.0404,-3.0404,-3.0404,-3.1,-3.2256,-3.2699,-3.3103,-3.3513,-3.4088,-3.3434,-3.1765,-3.1909,-3.1487,-3.0696,-3.0771,-3.0838,-3.0898,-3.0898,0.0,0.0,0.0,0.0,0.0,-3.0898,-3.0898,0.0,-3.0898,-3.1172,-3.1426,0.0,0.0,0.0,0.0,-3.0695,0.0,0.0,0.0,0.0,0.0,0.0,0.0,0.0,0.0,0.0,0.0,0.0,0.0,0.0,0.0,0.0,0.0,0.0,0.0,0.0,0.0,0.0,0.0,0.0,0.0,0.0,0.0,0.0,0.0,0.0,0.0,0.0,-4.6308,-4.6308,-4.6308,-4.6308,-4.6308,-4.6308,-4.6308,-4.6308,-4.6308,-4.6308,-4.6308,-4.6308,-4.6308,-4.6308,0.0,0.0,0.0,-4.6308,-4.6308,-4.6308,-4.6308,-4.6308,-4.6308,-4.6308,-4.6308,-4.6308,-4.6308,0.0,0.0,0.0,0.0,0.0,0.0,0.0,0.0,0.0,0.0,0.0,0.0,0.0,0.0,0.0,0.0,0.0,0.0,0.0,0.0,0.0,0.0,-3.0404,-3.0462,-3.0596,-3.0462,-3.1154,-3.2718,-3.2968,-3.3468,-3.4186,-3.3833,-3.3103,-3.2032,-3.112,-3.0697,-3.0675,-3.069,-3.0769,-3.0878,-3.0898,0.0,0.0,0.0,0.0,0.0,0.0,0.0,0.0,-3.0898,-3.1484,-3.2031,-3.1042,0.0,0.0,0.0,0.0,0.0,0.0,0.0,0.0,0.0,0.0,0.0,0.0,0.0,0.0,0.0,0.0,0.0,0.0,0.0,0.0,0.0,0.0,0.0,0.0,0.0,0.0,0.0,0.0,0.0,0.0,0.0,0.0,0.0,0.0,0.0,0.0,-4.6308,-4.6308,-4.6308,-4.6308,-4.6308,-4.6308,-4.6308,-4.6308,-4.6308,-4.6308,-4.6308,-4.6308,-4.6308,-4.6308,-4.6308,0.0,0.0,-4.6308,-4.6308,-4.6308,-4.6308,-4.6308,-4.6308,-4.6308,-4.6308,-4.6308,-4.6308,0.0,0.0,0.0,0.0,0.0,0.0,0.0,0.0,0.0,0.0,0.0,0.0,0.0,0.0,0.0,0.0,0.0,0.0,0.0,0.0,0.0,-3.0404,-3.0404,-3.075,-3.1487,-3.0788,-3.0885,-3.1891,-3.3314,-3.4071,-3.4244,-3.6276,-3.6007,-3.375,-3.2255,-3.1194,-3.0545,-3.0642,-3.0718,-3.0744,-3.0858,0.0,0.0,0.0,0.0,0.0,0.0,0.0,0.0,-3.0898,-3.1484,-3.2031,-3.1152,0.0,0.0,0.0,0.0,0.0,-3.0467,-3.0337,0.0,0.0,0.0,0.0,0.0,0.0,0.0,0.0,0.0,0.0,0.0,0.0,0.0,0.0,0.0,0.0,0.0,0.0,0.0,0.0,0.0,0.0,0.0,0.0,0.0,0.0,0.0,0.0,0.0,-4.6308,-4.6308,-4.6308,-4.6308,-4.6308,-4.6308,-4.6308,-4.6308,-4.6308,-4.6308,-4.6308,-4.6308,-4.6308,-4.6308,-4.6308,0.0,-4.6308,-4.6308,-4.6308,-4.6308,-4.6308,-4.6308,-4.6308,-4.6308,-4.6308,-4.6308,-4.6308,0.0,0.0,0.0,0.0,0.0,0.0,0.0,0.0,0.0,0.0,0.0,0.0,0.0,0.0,0.0,0.0,0.0,0.0,0.0,0.0,-3.0615,-3.1077,-3.1096,-3.1288,-3.1698,-3.1308,-3.1737,-3.3045,-3.4295,-3.4911,-3.4911,-3.5141,-3.4141,-3.2102,-3.1364,-3.0839,-3.0511,-3.0592,-3.0946,-3.1401,0.0,0.0,0.0,0.0,0.0,0.0,0.0,0.0,0.0,0.0,-3.2832,-3.3301,-3.1929,0.0,0.0,0.0,0.0,0.0,-3.0482,-3.0447,-3.0361,0.0,0.0,0.0,0.0,0.0,0.0,0.0,0.0,0.0,0.0,0.0,0.0,0.0,0.0,0.0,0.0,0.0,0.0,0.0,0.0,0.0,0.0,0.0,0.0,0.0,0.0,0.0,0.0,0.0,-4.6308,-4.6308,-4.6308,-4.6308,-4.6308,-4.6308,-4.6308,-4.6308,-4.6308,-4.6308,-4.6308,-4.6308,-4.6308,-4.6308,0.0,-4.6308,-4.6308,-4.6308,-4.6308,-4.6308,-4.6308,-4.6308,-4.6308,-4.6308,-4.6308,-4.6308,0.0,0.0,0.0,0.0,0.0,0.0,0.0,0.0,0.0,0.0,0.0,0.0,0.0,0.0,0.0,0.0,0.0,0.0,0.0,-3.0596,-3.1,-3.1679,-3.1891,-3.2083,-3.2275,-3.2083,-3.2718,-3.4205,-3.5064,-3.55,-3.5462,-3.4141,-3.2506,-3.0692,-3.0692,-3.0626,-3.0482,-3.0556,-3.1101,-3.1956,0.0,0.0,0.0,0.0,0.0,0.0,0.0,0.0,0.0,0.0,0.0,0.0,0.0,0.0,0.0,0.0,-3.0575,-3.0554,-3.049,-3.0495,-3.0285,0.0,0.0,0.0,0.0,0.0,0.0,0.0,0.0,0.0,0.0,0.0,0.0,0.0,0.0,0.0,0.0,0.0,0.0,0.0,0.0,0.0,0.0,0.0,0.0,0.0,0.0,0.0,0.0,0.0,-4.6308,-4.6308,-4.6308,-4.6308,-4.6308,-4.6308,-4.6308,-4.6308,-4.6308,-4.6308,-4.6308,-4.6308,-4.6308,-4.6308,-4.6308,-4.6308,-4.6308,-4.6308,-4.6308,-4.6308,-4.6308,-4.6308,-4.6308,-4.6308,-4.6308,-4.6308,0.0,0.0,0.0,0.0,0.0,0.0,0.0,0.0,0.0,0.0,0.0,0.0,0.0,0.0,0.0,0.0,0.0,0.0,0.0,-3.1154,-3.1641,-3.1698,-3.2429,-3.3179,-3.3994,-3.3237,-3.3276,-3.4205,-3.5064,-3.55,-3.55,-3.5365,-3.3981,-3.1621,-3.1621,-3.116,-3.0414,-3.0477,-3.1,-3.182,-3.1952,0.0,0.0,0.0,0.0,0.0,0.0,0.0,0.0,0.0,0.0,0.0,0.0,0.0,0.0,0.0,-3.0511,-3.0485,-3.0422,-3.0447,-3.0285,-2.9416,0.0,0.0,0.0,0.0,0.0,0.0,0.0,0.0,0.0,0.0,0.0,0.0,0.0,0.0,0.0,0.0,0.0,0.0,0.0,0.0,0.0,0.0,0.0,0.0,0.0,0.0,0.0,0.0,0.0,-4.6308,-4.6308,-4.6308,-4.6308,-4.6308,-4.6308,-4.6308,-4.6308,-4.6308,-4.6308,-4.6308,-4.6308,-4.6308,-4.6308,-4.6308,-4.6308,-4.6308,-4.6308,-4.6308,-4.6308,-4.6308,-4.6308,-4.6308,-4.6308,-4.6308,0.0,0.0,0.0,0.0,0.0,0.0,0.0,0.0,0.0,0.0,0.0,0.0,0.0,0.0,0.0,0.0,0.0,0.0,0.0,-3.1987,-3.2699,-3.3218,-3.3026,-3.3314,-3.4186,-3.3353,-3.3583,-3.5007,-3.4795,-3.468,-3.4661,-3.3622,-3.2327,-3.0885,-3.0885,-3.0712,-3.0396,-3.0467,-3.1316,-3.2617,-3.271,-3.3273,0.0,0.0,0.0,0.0,0.0,0.0,0.0,0.0,0.0,0.0,0.0,0.0,0.0,0.0,-3.0463,-3.0419,-3.0402,-3.0431,-3.0239,-2.9412,0.0,0.0,0.0,0.0,0.0,0.0,0.0,0.0,0.0,0.0,0.0,0.0,0.0,0.0,0.0,0.0,0.0,0.0,0.0,0.0,0.0,0.0,0.0,0.0,0.0,0.0,0.0,0.0,0.0,-4.5508,-4.6016,-4.6035,-4.5508,-4.6035,-4.6308,-4.6308,-4.6308,-4.6308,-4.6308,-4.6308,-4.6308,-4.6308,-4.6308,-4.6308,-4.6308,-4.6308,-4.6308,-4.6308,-4.6308,-4.6308,-4.6308,-4.6308,-4.6308,-4.6308,0.0,0.0,0.0,0.0,0.0,0.0,0.0,0.0,0.0,0.0,0.0,0.0,0.0,0.0,0.0,0.0,0.0,0.0,-3.1698,-3.2718,-3.3583,-3.4167,-3.3891,-3.3872,-3.4186,-3.3353,-3.3487,-3.4673,-3.4083,-3.3667,-3.3391,-3.2506,-3.1641,-3.0808,-3.0808,-3.0808,-3.0794,-3.0572,-3.1448,-3.304,-3.3134,-3.3829,0.0,0.0,0.0,0.0,0.0,0.0,0.0,0.0,0.0,0.0,0.0,0.0,0.0,0.0,0.0,-3.0365,-3.0069,-3.0029,-2.9926,0.0,0.0,0.0,0.0,0.0,0.0,0.0,0.0,0.0,0.0,0.0,0.0,0.0,0.0,0.0,0.0,0.0,0.0,0.0,0.0,0.0,0.0,0.0,0.0,0.0,0.0,0.0,0.0,0.0,0.0,0.0,-4.5176,-4.5312,-4.5,-4.5586,-4.6035,-4.6308,-4.6308,-4.6308,-4.6308,-4.6308,-4.6308,-4.6308,-4.6308,-4.6308,-4.6308,-4.6308,-4.6308,-4.6308,-4.6308,-4.6308,-4.6308,-4.6308,-4.6308,-4.6308,0.0,0.0,0.0,0.0,0.0,0.0,0.0,0.0,0.0,0.0,0.0,0.0,0.0,0.0,0.0,0.0,0.0,0.0,-3.1718,-3.3276,-3.4205,-3.4205,-3.5026,-3.5084,-3.4205,-3.3333,-3.2872,-3.2891,-3.2891,-3.2487,-3.1718,-3.2526,-3.2468,-3.1698,-3.1718,-3.1718,-3.1641,-3.0788,-3.1385,-3.291,-3.3035,-3.4091,-3.5601,0.0,0.0,0.0,0.0,0.0,0.0,0.0,0.0,0.0,0.0,0.0,0.0,0.0,-3.1135,-3.0318,-2.9371,-2.9208,0.0,0.0,0.0,0.0,0.0,0.0,0.0,0.0,0.0,0.0,0.0,0.0,0.0,0.0,0.0,0.0,0.0,0.0,0.0,0.0,0.0,0.0,0.0,0.0,0.0,0.0,0.0,0.0,0.0,0.0,0.0,0.0,-4.3691,-4.4101,-4.4961,-4.498,-4.543,-4.6289,-4.6289,-4.6289,-4.6308,-4.6308,-4.6308,-4.6308,-4.6308,-4.6308,-4.6308,-4.6308,-4.6308,-4.6308,-4.6308,-4.6308,-4.6308,-4.6308,-4.6308,-4.6308,0.0,0.0,0.0,0.0,0.0,0.0,0.0,0.0,0.0,0.0,0.0,0.0,0.0,0.0,0.0,0.0,0.0,0.0,-3.2545,-3.416,-3.5115,-3.5115,-3.4776,-3.418,-3.3295,-3.1891,-3.1442,-3.2064,-3.2622,-3.2487,-3.1718,-3.1948,-3.1929,-3.1718,-3.2295,-3.2237,-3.1679,-3.1423,-3.1929,-3.2897,-3.2933,-3.3986,-3.554,0.0,0.0,0.0,0.0,0.0,0.0,0.0,0.0,0.0,0.0,0.0,0.0,-3.0979,-3.1049,-3.1149,-3.0262,0.0,0.0,0.0,0.0,0.0,0.0,0.0,0.0,0.0,0.0,0.0,0.0,0.0,0.0,0.0,0.0,0.0,0.0,0.0,0.0,0.0,0.0,0.0,0.0,0.0,0.0,0.0,0.0,0.0,0.0,0.0,0.0,0.0,-4.3379,-4.3535,-4.3164,-4.3789,-4.4512,-4.5391,-4.5391,-4.5703,-4.6308,-4.6308,-4.6308,-4.6308,-4.6308,-4.6308,-4.6308,-4.6308,-4.6308,-4.6308,-4.6308,-4.6308,-4.6308,-4.6308,-4.6308,-4.6308,0.0,0.0,0.0,0.0,0.0,0.0,0.0,0.0,0.0,0.0,0.0,0.0,0.0,0.0,0.0,0.0,0.0,0.0,0.0,-3.4712,-3.55,-3.55,-3.5007,-3.4141,-3.2929,-3.1602,-3.1,-3.1173,-3.1679,-3.166,-3.1192,-3.1872,-3.2179,-3.2218,-3.3045,-3.2949,-3.216,-3.1833,-3.216,-3.2891,-3.2891,-3.3949,-3.5494,0.0,0.0,0.0,0.0,0.0,0.0,0.0,0.0,0.0,0.0,0.0,0.0,-3.1557,-3.1311,-3.1031,-3.0133,0.0,0.0,0.0,0.0,0.0,0.0,0.0,0.0,0.0,0.0,0.0,0.0,0.0,0.0,0.0,0.0,0.0,0.0,0.0,0.0,0.0,0.0,0.0,0.0,0.0,0.0,0.0,0.0,0.0,0.0,0.0,0.0,0.0,-4.2422,-4.2617,-4.2402,-4.293,-4.3613,-4.4473,-4.4473,-4.4941,-4.5801,-4.6133,-4.6308,-4.6308,-4.6308,-4.6308,-4.6308,-4.6308,-4.6308,-4.6308,-4.6308,-4.6308,-4.6308,-4.6308,-4.6308,-4.6308,0.0,0.0,0.0,0.0,0.0,0.0,0.0,0.0,0.0,0.0,-3.0404,0.0,0.0,0.0,0.0,0.0,0.0,0.0,0.0,-3.5026,-3.55,-3.55,-3.5346,-3.4519,-3.2929,-3.2025,-3.1192,-3.0404,-3.0481,-3.0481,-3.0442,-3.2122,-3.2891,-3.2949,-3.3821,-3.3725,-3.2852,-3.2045,-3.216,-3.2891,-3.2891,-3.3949,-3.55,-3.55,0.0,0.0,0.0,0.0,0.0,0.0,0.0,0.0,0.0,0.0,-3.2956,-3.2832,-3.1703,0.0,0.0,0.0,0.0,0.0,0.0,0.0,0.0,0.0,0.0,0.0,0.0,0.0,0.0,0.0,0.0,0.0,0.0,0.0,0.0,0.0,0.0,0.0,0.0,0.0,0.0,0.0,0.0,0.0,0.0,0.0,0.0,0.0,0.0,-4.1211,-4.1191,-4.1543,-4.2285,-4.2285,-4.2734,-4.3574,-4.3574,-4.4043,-4.4902,-4.5781,-4.6211,-4.6308,-4.6308,-4.6308,-4.6308,-4.6308,-4.6308,-4.6308,-4.6308,-4.6308,-4.6308,-4.6308,-4.6308,-4.6308,0.0,0.0,0.0,0.0,0.0,0.0,0.0,0.0,0.0,0.0,0.0,0.0,0.0,0.0,0.0,0.0,0.0,0.0,0.0,-3.5026,-3.55,-3.55,-3.4192,-3.3276,-3.291,-3.1442,-3.0596,-3.0404,-3.1096,-3.1077,-3.0442,-3.2122,-3.2891,-3.2949,-3.3821,-3.3725,-3.2852,-3.2045,-3.216,-3.2891,-3.2891,-3.3949,-3.55,-3.55,-3.55,0.0,0.0,0.0,0.0,0.0,0.0,0.0,-3.2846,-3.2916,-3.2799,-3.2147,-3.1235,0.0,0.0,0.0,0.0,0.0,0.0,0.0,0.0,0.0,0.0,0.0,0.0,0.0,0.0,0.0,0.0,0.0,0.0,0.0,0.0,0.0,0.0,0.0,0.0,0.0,0.0,0.0,0.0,0.0,0.0,0.0,0.0,0.0,0.0,-4.1191,-4.1191,-4.1289,-4.1465,-4.1465,-4.1875,0.0,-4.2676,-4.3144,-4.4004,-4.4883,-4.5644,-4.6308,-4.6308,-4.6308,-4.6308,-4.6308,-4.6308,-4.6308,-4.6308,-4.6308,-4.6308,-4.6308,-4.6308,-4.6308,0.0,0.0,0.0,0.0,0.0,0.0,0.0,0.0,0.0,0.0,0.0,0.0,0.0,0.0,0.0,0.0,0.0,0.0,0.0,0.0,-3.5308,-3.4911,-3.3603,-3.2718,-3.2333,-3.1058,-3.0404,-3.0404,-3.0865,-3.1058,-3.1058,-3.2314,-3.3122,-3.3545,-3.3994,-3.3725,-3.2852,-3.2045,-3.1948,-3.2333,-3.2333,-3.3353,-3.4872,-3.4872,-3.5135,-3.5442,-3.5026,0.0,0.0,0.0,0.0,0.0,0.0,0.0,-3.2814,-3.2391,0.0,0.0,0.0,0.0,0.0,0.0,0.0,0.0,0.0,0.0,0.0,0.0,0.0,0.0,0.0,0.0,0.0,0.0,0.0,0.0,0.0,0.0,0.0,0.0,0.0,0.0,0.0,0.0,0.0,0.0,0.0,0.0,0.0,-3.9496,-3.9921,-4.0418,-4.0474,-4.0676,-4.1104,-4.1171,-4.1406,-4.1836,-4.1836,-4.2266,-4.3105,-4.3984,-4.4844,-4.5644,-4.5234,-4.5058,-4.5058,-4.5058,-4.5293,-4.5683,-4.5683,-4.5937,-4.6308,-4.6308,-4.6308,-4.6308,0.0,0.0,0.0,0.0,0.0,0.0,0.0,0.0,0.0,0.0,0.0,0.0,0.0,0.0,0.0,0.0,0.0,0.0,0.0,0.0,0.0,-3.4449,-3.3583,-3.2737,-3.1929,-3.1058,-3.0558,-3.0404,-3.0404,-3.0846,-3.1718,-3.2372,-3.3141,-3.3975,-3.384,-3.3449,-3.2833,-3.1891,-3.1564,-3.1718,-3.1852,-3.2833,-3.4225,-3.4379,-3.4872,-3.5404,-3.468,-3.441,-3.4314,-3.3583,0.0,0.0,0.0,0.0,-3.3122,0.0,0.0,0.0,0.0,0.0,0.0,0.0,0.0,0.0,0.0,0.0,0.0,0.0,0.0,0.0,0.0,0.0,0.0,0.0,0.0,0.0,0.0,0.0,0.0,0.0,0.0,0.0,0.0,0.0,0.0,0.0,0.0,0.0,-3.8075,-3.8217,-3.861,-3.9377,-3.9455,-3.9832,-4.0577,-4.07,-4.082,-4.0976,-4.1133,-4.1621,-4.2422,-4.3008,-4.3828,-4.4746,-4.4004,-4.3691,-4.3711,-4.3867,-4.4355,-4.5019,-4.5176,-4.5664,-4.6308,-4.6308,-4.6308,-4.6308,0.0,0.0,0.0,0.0,0.0,0.0,0.0,0.0,0.0,0.0,0.0,0.0,0.0,0.0,0.0,0.0,0.0,0.0,0.0,0.0,0.0,-3.5308,-3.4487,-3.3622,-3.2756,-3.1948,-3.1154,-3.0404,-3.0404,-3.0846,-3.1698,-3.1814,-3.2295,-3.3045,-3.2333,-3.2352,-3.2795,-3.1231,-3.1,-3.1756,-3.2468,-3.3333,-3.4282,-3.5045,-3.5404,-3.5481,-3.5365,-3.5327,-3.5308,-3.5192,-3.5231,0.0,0.0,0.0,0.0,0.0,0.0,0.0,0.0,0.0,0.0,0.0,0.0,0.0,0.0,0.0,0.0,0.0,0.0,0.0,0.0,0.0,0.0,0.0,0.0,0.0,0.0,0.0,0.0,0.0,0.0,0.0,0.0,0.0,0.0,0.0,0.0,0.0,-3.717,-3.7825,-3.833,-3.8547,-3.8576,-3.8693,-3.8925,-3.8945,-3.9336,-4.0078,-4.084,-4.1621,-4.2383,-4.1797,-4.2383,-4.3867,-4.375,-4.3691,-4.3769,-4.4512,-4.4883,-4.5078,-4.582,-4.6191,-4.6308,-4.6308,-4.6308,-4.6308,0.0,0.0,0.0,0.0,0.0,0.0,0.0,0.0,0.0,0.0,0.0,0.0,0.0,0.0,0.0,0.0,0.0,0.0,0.0,0.0,0.0,-3.4026,-3.368,-3.3083,-3.2256,-3.1891,-3.1269,-3.0404,-3.0404,-3.0596,0.0,-3.0962,-3.166,-3.2852,-3.2064,-3.191,-3.216,-3.0923,-3.0904,-3.1737,-3.2083,-3.2468,-3.2929,-3.4276,-3.4468,-3.418,-3.5154,-3.55,-3.55,-3.55,-3.55,-3.55,0.0,0.0,0.0,0.0,0.0,0.0,0.0,0.0,0.0,0.0,0.0,0.0,0.0,0.0,0.0,0.0,0.0,0.0,0.0,0.0,0.0,0.0,0.0,0.0,0.0,0.0,0.0,0.0,0.0,0.0,0.0,0.0,0.0,0.0,0.0,-3.6136,-3.6151,-3.6495,-3.6969,-3.7533,-3.7592,-3.7897,-3.8483,-3.8553,-3.8789,-3.918,-3.9551,-4.0176,-4.0996,-4.0625,-4.1387,-4.2949,-4.248,-4.2305,-4.2324,-4.2715,-4.3418,-4.4316,-4.4687,-4.5449,-4.6308,-4.6308,-4.6308,-4.6308,0.0,0.0,0.0,0.0,0.0,0.0,0.0,0.0,0.0,0.0,0.0,0.0,0.0,0.0,0.0,0.0,0.0,0.0,0.0,0.0,0.0,0.0,-3.2891,-3.2622,-3.2025,-3.1795,-3.1385,-3.0731,0.0,0.0,-3.0404,-3.0404,-3.1077,0.0,-3.1641,-3.1487,0.0,0.0,0.0,-3.1679,-3.1468,-3.1621,-3.2122,-3.316,-3.3295,-3.3103,-3.4622,-3.5173,-3.5192,-3.5423,-3.55,-3.55,0.0,0.0,0.0,0.0,0.0,0.0,0.0,0.0,0.0,0.0,0.0,0.0,0.0,0.0,0.0,0.0,0.0,0.0,0.0,0.0,0.0,0.0,0.0,0.0,0.0,0.0,0.0,0.0,0.0,0.0,0.0,0.0,0.0,0.0,0.0,-3.4942,-3.5154,-3.4962,-3.5373,-3.6561,-3.6235,-3.6593,-3.7788,-3.8103,-3.8262,-3.8262,-3.8496,-3.8945,-3.957,-3.9805,-4.0586,-4.1738,-4.1367,-4.1191,-4.123,-4.166,-4.2578,-4.373,-4.4199,-4.5156,-4.6308,-4.6308,-4.6308,-4.6308,0.0,0.0,0.0,0.0,0.0,0.0,0.0,0.0,0.0,0.0,0.0,0.0,-3.55,-3.55,-3.55,-3.55,0.0,0.0,0.0,0.0,0.0,0.0,0.0,0.0,-3.2833,-3.2083,-3.1679,-3.1641,0.0,0.0,-3.0404,-3.0404,-3.0442,-3.0538,-3.05,-3.0923,-3.1641,0.0,0.0,0.0,0.0,0.0,-3.2756,-3.2083,0.0,0.0,0.0,0.0,-3.4391,-3.5212,-3.55,-3.55,0.0,0.0,0.0,0.0,0.0,0.0,0.0,0.0,0.0,0.0,0.0,0.0,0.0,0.0,0.0,0.0,0.0,0.0,0.0,0.0,0.0,0.0,0.0,0.0,0.0,0.0,0.0,0.0,0.0,0.0,0.0,0.0,0.0,0.0,0.0,-3.3391,-3.4225,-3.3487,-3.3868,-3.5693,-3.4225,-3.4276,-3.6113,-3.6953,-3.7363,-3.7383,-3.8203,-3.8613,-3.8691,-3.9512,-3.9941,-4.0078,-4.0859,-4.1191,-4.1328,-4.291,-4.3613,-4.3867,-4.5527,-4.6211,-4.6308,-4.6308,-4.6308,-4.6308,0.0,0.0,0.0,0.0,0.0,0.0,0.0,0.0,0.0,0.0,0.0,0.0,0.0,-3.55,-3.55,-3.55,-3.4699,0.0,0.0,0.0,0.0,0.0,0.0,0.0,0.0,-3.2622,-3.2218,0.0,0.0,-3.0404,-3.0404,-3.0404,-3.0404,-3.0404,-3.0404,-3.0577,-3.0846,-3.0538,0.0,0.0,0.0,0.0,0.0,0.0,0.0,0.0,0.0,0.0,0.0,0.0,0.0,0.0,0.0,0.0,0.0,0.0,0.0,0.0,0.0,0.0,0.0,0.0,0.0,0.0,0.0,0.0,0.0,0.0,0.0,0.0,0.0,0.0,0.0,0.0,0.0,0.0,0.0,0.0,0.0,0.0,0.0,0.0,0.0,0.0,0.0,0.0,0.0,0.0,-3.3353,-3.3064,-3.3269,-3.4066,-3.4053,-3.4671,-3.5996,-3.6309,-3.6465,-3.6465,-3.6777,-3.7519,-3.8613,-3.8926,-3.9687,-4.0742,-4.1055,-4.1191,-4.125,-4.1855,-4.2734,-4.3769,-4.4394,-4.5312,-4.6308,-4.6308,-4.6308,-4.6308,0.0,0.0,0.0,0.0,0.0,0.0,0.0,0.0,0.0,-3.2429,0.0,0.0,0.0,0.0,-3.525,-3.4673,-3.4103,-3.3648,-3.3372,-3.2814,0.0,0.0,0.0,0.0,0.0,-3.2795,-3.2372,-3.2102,-3.0962,0.0,0.0,-3.0404,-3.0558,-3.0846,-3.0846,-3.0673,0.0,0.0,0.0,-3.2756,0.0,0.0,-3.1679,0.0,0.0,0.0,0.0,0.0,0.0,0.0,0.0,0.0,0.0,0.0,0.0,0.0,0.0,0.0,0.0,0.0,0.0,0.0,0.0,0.0,0.0,0.0,0.0,0.0,0.0,0.0,0.0,0.0,0.0,0.0,0.0,0.0,0.0,0.0,0.0,0.0,0.0,0.0,0.0,0.0,0.0,0.0,0.0,0.0,-3.2487,-3.2218,-3.2143,-3.2312,-3.3773,-3.4742,-3.5117,-3.5682,-3.5972,-3.5972,-3.5927,-3.6509,-3.7642,-3.8255,-3.9153,-4.0258,-4.0872,-4.1151,-4.1211,-4.1484,-4.2266,-4.3281,-4.3594,-4.459,-4.5859,-4.5859,-4.6055,-4.6308,0.0,0.0,0.0,0.0,0.0,0.0,0.0,0.0,-3.1679,-3.1698,0.0,0.0,0.0,0.0,0.0,-3.3122,-3.2987,-3.2641,-3.1852,-3.1814,0.0,0.0,0.0,0.0,0.0,-3.2602,-3.216,-3.2949,-3.125,-3.0442,-3.0442,0.0,-3.0885,-3.1698,-3.1756,-3.1288,-3.0538,0.0,-3.2179,-3.2641,0.0,-3.0473,-3.3763,0.0,0.0,0.0,-3.316,-3.3987,0.0,0.0,0.0,0.0,0.0,0.0,0.0,0.0,0.0,0.0,0.0,0.0,0.0,0.0,0.0,0.0,0.0,0.0,0.0,0.0,0.0,0.0,0.0,0.0,0.0,0.0,0.0,0.0,0.0,0.0,0.0,0.0,0.0,0.0,0.0,0.0,0.0,0.0,0.0,-3.0769,-3.1621,-3.0858,-3.0487,-3.0639,-3.3229,-3.4238,-3.3457,-3.5042,-3.5862,-3.5901,-3.5764,-3.5707,-3.5807,-3.7559,-3.8351,-3.8438,-4.0209,-4.1058,-4.125,-4.2031,-4.2363,-4.248,-4.332,-4.4199,-4.4961,-4.498,-4.5547,-4.6269,0.0,0.0,0.0,0.0,0.0,0.0,0.0,-3.0433,-3.0981,0.0,0.0,0.0,-3.4129,-3.4988,-3.5308,-3.4827,-3.4769,-3.4692,-3.4462,-3.4442,-3.4276,-3.3859,-3.4449,-3.4603,-3.4205,-3.3744,-3.3628,-3.384,-3.216,-3.1346,-3.1346,-3.1346,-3.1468,0.0,-3.2968,-3.3026,-3.2199,-3.1833,0.0,0.0,-3.1506,-3.1352,0.0,0.0,0.0,0.0,0.0,-3.3122,0.0,0.0,-3.5007,-3.6045,0.0,0.0,0.0,0.0,0.0,0.0,-3.5579,0.0,0.0,0.0,0.0,0.0,0.0,0.0,0.0,0.0,0.0,0.0,0.0,0.0,0.0,0.0,0.0,0.0,0.0,0.0,0.0,0.0,0.0,0.0,0.0,0.0,0.0,0.0,-3.0404,-3.0519,-3.075,-3.0616,-3.0849,-3.1523,-3.2427,-3.3359,-3.4336,-3.4749,-3.5275,-3.5901,-3.5764,-3.6038,-3.6667,-3.716,-3.8072,-3.9275,-3.9767,-4.0331,-4.0936,-4.1255,-4.1756,-4.2366,-4.2655,-4.3281,-4.4141,-4.4766,-4.5156,-4.5449,0.0,0.0,0.0,0.0,0.0,0.0,0.0,-3.0799,-3.1294,0.0,0.0,0.0,-3.4315,-3.4849,-3.5062,-3.4802,-3.479,-3.4846,-3.4942,-3.4968,-3.4891,-3.4757,-3.5231,-3.525,-3.4757,-3.4398,-3.4205,-3.4205,-3.2852,-3.2025,-3.1718,-3.2045,-3.2199,-3.2256,0.0,0.0,0.0,0.0,0.0,0.0,-3.1987,0.0,0.0,-3.2102,-3.225,0.0,0.0,0.0,-3.5622,-3.4571,-3.5315,0.0,0.0,0.0,0.0,0.0,0.0,0.0,0.0,0.0,0.0,0.0,0.0,0.0,0.0,-3.2061,0.0,0.0,0.0,0.0,0.0,0.0,0.0,0.0,0.0,0.0,0.0,0.0,0.0,0.0,0.0,0.0,0.0,0.0,0.0,-3.0365,-3.0404,-3.0404,-3.0404,-3.0521,-3.0839,-3.1348,-3.192,-3.2636,-3.355,-3.4238,-3.4798,-3.5239,-3.5487,-3.5878,-3.6392,-3.6777,-3.7685,-3.8956,-3.9359,-3.9966,-4.0696,-4.082,-4.122,-4.1763,-4.1853,-4.2402,-4.3262,-4.4141,-4.4453,-4.4629,0.0,0.0,0.0,0.0,0.0,0.0,0.0,-3.1657,-3.21,0.0,-3.2863,-3.3721,-3.46,-3.4694,-3.4481,-3.394,-3.3925,-3.4033,-3.4246,-3.4274,-3.462,-3.5379,-3.5417,-3.5417,-3.5417,-3.4677,-3.4307,-3.4307,-3.3462,-3.2667,-3.1956,-3.2667,-3.2993,-3.3032,0.0,0.0,0.0,0.0,0.0,-3.3994,-3.1641,-3.2545,0.0,0.0,-3.3737,0.0,-3.4718,-3.5718,-3.7392,-3.5199,-3.5411,0.0,0.0,0.0,0.0,0.0,-3.55,0.0,0.0,0.0,0.0,0.0,0.0,0.0,-3.3388,-3.2502,-3.1583,0.0,0.0,0.0,0.0,0.0,0.0,0.0,0.0,0.0,0.0,0.0,0.0,0.0,0.0,0.0,0.0,-2.9572,-2.947,-3.0346,-3.0404,-3.0404,-3.0404,-3.0528,-3.0591,-3.0591,-3.152,-3.2005,-3.1999,-3.3549,-3.4315,-3.4313,-3.5123,-3.5558,-3.5661,-3.6507,-3.7339,-3.8195,-3.9039,-3.9805,-4.0512,-4.063,-4.0814,-4.0992,-4.1127,-4.1621,-4.2363,-4.3222,-4.3554,-4.3808,0.0,0.0,0.0,0.0,0.0,0.0,0.0,0.0,-3.21,-3.21,-3.2863,-3.3721,-3.46,-3.4694,-3.4658,-3.4537,-3.4725,-3.4778,-3.4605,-3.4795,-3.4897,-3.4851,-3.486,-3.486,-3.486,-3.4899,-3.4915,-3.4915,-3.4258,-3.3759,-3.3387,-3.354,-3.3616,-3.3654,0.0,0.0,0.0,0.0,0.0,-3.4109,-3.2891,0.0,-3.4022,-3.3044,-3.3506,-3.4641,-3.4321,-3.4968,-3.6,0.0,-3.6,-3.5788,0.0,0.0,0.0,0.0,0.0,0.0,0.0,0.0,0.0,0.0,0.0,0.0,-3.4186,-3.3301,-3.2447,0.0,0.0,0.0,0.0,0.0,0.0,0.0,0.0,0.0,0.0,0.0,0.0,0.0,0.0,0.0,0.0,-2.9287,-2.9516,-3.0339,-3.0404,-3.0404,-3.0404,-3.0472,-3.0513,-3.0513,-3.0778,-3.1247,-3.1918,-3.2827,-3.363,-3.4313,-3.5123,-3.5846,-3.6462,-3.6657,-3.7581,-3.9053,-3.9244,-3.9764,-4.0512,-4.063,-4.0742,-4.0857,-4.099,-4.1202,-4.1523,-4.229,-4.2609,-4.289,0.0,0.0,0.0,0.0,0.0,0.0,0.0,0.0,-3.2943,-3.2943,-3.3327,-3.3766,-3.42,-3.4255,-3.4295,-3.4434,-3.4574,-3.4675,-3.4694,-3.4954,-3.5034,-3.4908,-3.5035,-3.5044,-3.4908,-3.5025,-3.5025,-3.4908,-3.4606,-3.416,-3.3599,-3.4188,-3.3971,-3.3209,0.0,0.0,0.0,0.0,-3.5055,-3.4576,-3.3695,0.0,-3.3751,-3.3315,-3.3769,-3.4653,-3.4653,-3.5019,-3.5615,-3.6423,-3.6712,0.0,0.0,-3.6404,-3.6577,0.0,-3.5788,-3.6096,0.0,0.0,0.0,-3.6757,0.0,0.0,0.0,-3.416,-3.332,0.0,0.0,0.0,0.0,0.0,0.0,0.0,0.0,0.0,0.0,0.0,0.0,0.0,0.0,0.0,0.0,-2.9842,-2.9967,-3.0371,-3.0404,-3.0404,-3.0404,-3.0467,-3.0498,-3.0498,-3.0561,-3.0782,-3.1207,-3.2395,-3.3204,-3.3608,-3.4892,-3.5712,-3.6115,-3.6519,-3.7411,-3.8681,-3.9111,-3.9534,-3.9946,-4.0407,-4.0409,-4.0154,-4.0766,-4.0996,-4.1113,-4.1974,-4.1993,-4.1915,0.0,0.0,0.0,0.0,0.0,0.0,0.0,0.0,-3.3862,-3.4009,-3.4027,-3.3972,-3.3825,-3.366,-3.3655,-3.3876,-3.3792,-3.402,-3.4703,-3.4859,-3.4907,-3.486,-3.5274,-3.525,-3.4707,-3.4914,-3.4944,-3.4793,-3.4733,-3.4344,-3.3664,-3.4529,-3.4176,0.0,0.0,0.0,0.0,0.0,0.0,-3.4722,0.0,-3.4002,-3.4153,-3.3781,-3.4339,-3.5306,-3.5153,-3.5207,-3.5476,-3.6319,0.0,-3.7475,-3.6339,-3.6796,0.0,0.0,0.0,0.0,0.0,0.0,0.0,0.0,0.0,-3.6731,0.0,0.0,0.0,0.0,0.0,0.0,0.0,0.0,0.0,0.0,0.0,0.0,0.0,0.0,0.0,0.0,0.0,0.0,0.0,-3.0211,-3.0088,-2.9957,-3.0075,-3.0212,-3.0385,-3.0442,-3.0482,-3.0482,-3.0533,-3.0537,-3.0486,-3.2135,-3.2946,-3.291,-3.4673,-3.5673,-3.6,-3.6654,-3.7507,-3.8507,-3.9073,-3.9304,-3.9342,-3.9823,-3.9764,-3.9478,-4.0532,-4.087,-4.0906,-4.1704,-4.1497,-4.1143,-2.9811,-3.0555,0.0,0.0,0.0,0.0,0.0,0.0,-3.4064,-3.4766,-3.4857,-3.4582,-3.388,-3.3151,0.0,0.0,0.0,0.0,-3.4847,0.0,-3.4195,-3.3967,-3.4933,-3.4787,-3.3269,-3.4227,-3.486,-3.5043,-3.4832,-3.4656,-3.4552,-3.4367,0.0,0.0,-3.3496,0.0,0.0,0.0,-3.3592,0.0,-3.4,-3.4749,0.0,-3.4776,-3.5172,-3.607,-3.5363,-3.4963,-3.4955,0.0,-3.6415,-3.664,0.0,-3.7315,0.0,0.0,0.0,0.0,0.0,0.0,0.0,0.0,-3.793,0.0,0.0,0.0,-3.5115,0.0,0.0,0.0,0.0,0.0,0.0,0.0,0.0,0.0,0.0,0.0,0.0,0.0,0.0,0.0,0.0,0.0,-2.8977,-2.8326,-2.8877,-2.9583,-3.0365,-3.0402,-3.0414,-3.0414,-3.0425,-3.0431,-3.0414,-3.2069,-3.291,-3.291,-3.4673,-3.6269,-3.7719,-3.7815,-3.8719,-4.0189,-3.9573,-3.9304,-3.9246,-3.8565,-3.8695,-3.9413,-4.0357,-4.0757,-4.0809,-4.0868,-4.0859,-4.0957,-3.0271,-3.1469,0.0,0.0,0.0,0.0,0.0,0.0,-3.41,-3.4894,-3.5004,-3.5059,0.0,0.0,0.0,0.0,0.0,-3.3338,0.0,0.0,-3.4574,-3.5456,-3.608,-3.6033,-3.5175,-3.5156,-3.5128,-3.504,-3.4455,-3.4184,-3.4184,-3.4195,0.0,0.0,-3.3307,0.0,-3.34,0.0,0.0,0.0,0.0,0.0,0.0,-3.4704,-3.4517,-3.5057,-3.4917,-3.4803,-3.4771,0.0,-3.6131,0.0,0.0,0.0,0.0,0.0,0.0,0.0,0.0,0.0,0.0,0.0,0.0,0.0,0.0,0.0,-3.5962,0.0,0.0,0.0,0.0,0.0,0.0,0.0,0.0,0.0,0.0,0.0,0.0,0.0,0.0,0.0,0.0,0.0,0.0,0.0,0.0,-2.9261,-2.9621,-3.0135,-3.0404,-3.0404,-3.0404,-3.0404,-3.0404,-3.2064,-3.2891,-3.291,-3.4673,-3.6115,-3.7257,-3.7777,-3.8373,-3.9065,-3.9227,-3.8719,-3.7834,-3.8488,-3.8661,-3.8669,-4.0046,-4.0604,-4.0629,-4.0672,-4.0666,-4.0757,-3.1151,0.0,0.0,0.0,0.0,0.0,0.0,0.0,0.0,0.0,0.0,0.0,-3.6266,-3.5881,0.0,0.0,0.0,-3.3091,0.0,0.0,-3.4631,0.0,0.0,0.0,0.0,0.0,0.0,0.0,0.0,0.0,0.0,0.0,0.0,0.0,0.0,-3.3057,-3.2855,0.0,0.0,-3.4674,-3.4672,-3.5169,-3.5792,-3.4681,-3.419,-3.4123,-3.4453,-3.4526,-3.4491,-3.4803,-3.5859,0.0,-3.595,0.0,0.0,0.0,0.0,0.0,-3.9212,0.0,0.0,0.0,0.0,0.0,0.0,0.0,0.0,0.0,0.0,0.0,0.0,0.0,0.0,0.0,0.0,0.0,0.0,0.0,0.0,0.0,0.0,0.0,0.0,0.0,0.0,-2.7619,-2.8104,-2.8626,-2.9088,-2.9698,-3.0154,-3.0385,-3.0635,-3.075,-3.075,-3.2429,-3.3256,-3.3276,-3.4769,-3.5923,-3.6712,-3.7353,-3.7777,-3.8027,-3.8411,-3.8007,-3.7142,-3.8161,-3.8488,-3.8469,-3.9708,-4.0304,-4.0512,-4.061,-4.073,-4.0962,-3.254,-3.2791,0.0,0.0,0.0,0.0,0.0,0.0,0.0,0.0,0.0,0.0,0.0,0.0,0.0,0.0,0.0,-3.1311,-3.3642,0.0,-3.3839,0.0,0.0,-3.6745,0.0,0.0,0.0,0.0,0.0,0.0,0.0,0.0,0.0,0.0,0.0,-3.3044,-3.37,-3.2939,-3.3099,-3.3842,-3.3839,-3.3857,-3.4007,0.0,-3.4771,-3.3855,-3.4111,0.0,0.0,-3.5101,-3.552,0.0,0.0,0.0,0.0,0.0,0.0,0.0,0.0,0.0,0.0,-4.0496,0.0,0.0,0.0,0.0,-3.8507,0.0,0.0,0.0,0.0,0.0,0.0,0.0,0.0,0.0,0.0,0.0,0.0,0.0,0.0,0.0,0.0,0.0,0.0,-2.6738,-2.6704,-2.739,-2.9011,-2.9127,-2.9525,-3.0365,-3.1212,-3.166,-3.166,-3.3314,-3.4167,-3.4167,-3.5064,-3.5923,-3.6692,-3.6731,-3.7199,-3.795,-3.7142,-3.7238,-3.7892,-3.7123,-3.7757,-3.9265,-3.9323,-3.9804,-4.0496,-4.0504,-4.1035,-4.1782,0.0,0.0,0.0,0.0,0.0,0.0,0.0,-3.5261,0.0,0.0,0.0,0.0,0.0,0.0,-3.4908,0.0,0.0,-3.2926,-3.3752,-3.4289,0.0,0.0,0.0,-3.7782,0.0,0.0,0.0,0.0,0.0,0.0,0.0,0.0,0.0,0.0,0.0,-3.2551,0.0,0.0,0.0,0.0,0.0,-3.4582,-3.4578,0.0,0.0,-3.3802,-3.3902,-3.3876,0.0,-3.4242,-3.4884,-3.5464,-3.5277,-3.5926,-3.6833,-3.717,-3.7306,0.0,0.0,0.0,-3.9604,-4.0311,0.0,0.0,0.0,0.0,0.0,0.0,0.0,0.0,0.0,0.0,0.0,0.0,0.0,0.0,0.0,0.0,0.0,0.0,0.0,0.0,0.0,0.0,0.0,-2.5827,-2.6819,-2.7717,0.0,-2.9352,-3.0371,-3.1231,-3.1545,-3.1968,-3.2487,-3.3628,-3.4205,-3.4205,-3.5084,-3.5923,-3.6692,-3.6692,-3.6865,-3.7123,-3.6827,-3.6865,-3.7161,-3.745,-3.8257,-3.9361,-3.99,-4.0265,-4.0496,-4.0496,-4.0689,-4.1043,-3.3697,0.0,0.0,0.0,0.0,0.0,0.0,0.0,0.0,0.0,-3.7052,0.0,-3.7052,0.0,-3.5293,0.0,-3.3532,-3.3495,-3.377,-3.4302,0.0,-3.5807,-3.7129,0.0,0.0,0.0,0.0,0.0,0.0,-3.4344,0.0,0.0,0.0,0.0,0.0,0.0,0.0,0.0,-3.3121,0.0,0.0,-3.4564,0.0,0.0,-3.3972,-3.4192,0.0,-3.3807,-3.3807,-3.3807,-3.4292,-3.481,-3.4235,-3.4945,-3.6054,-3.6415,-3.6554,-3.7041,-3.9079,-3.928,0.0,-4.0238,-4.0496,0.0,-3.9477,0.0,0.0,0.0,0.0,0.0,0.0,0.0,0.0,0.0,0.0,0.0,0.0,0.0,0.0,0.0,0.0,0.0,0.0,0.0,-2.6038,-2.5788,-2.6794,-2.7698,0.0,0.0,-3.0499,-3.166,-3.1996,-3.2561,-3.3353,-3.4237,-3.4661,-3.4661,-3.5231,-3.5769,-3.6269,-3.6269,-3.6269,-3.6288,-3.6577,-3.6885,-3.7238,-3.8104,-3.895,-3.9785,-4.0304,-4.0496,-4.0496,-4.0496,-4.0708,-4.1046,0.0,0.0,0.0,0.0,-3.4509,0.0,0.0,0.0,-3.7492,0.0,-3.7474,-3.7125,-3.6321,-3.5463,-3.4637,-3.3862,-3.3096,0.0,-3.3752,-3.3844,0.0,0.0,-3.5807,-3.5899,-3.5023,0.0,0.0,0.0,0.0,0.0,0.0,0.0,0.0,0.0,-3.3807,0.0,-3.3733,-3.377,-3.3807,-3.3807,-3.3807,-3.3825,-3.3862,-3.3825,-3.4289,-3.4894,-3.41,-3.3807,-3.3807,-3.3807,-3.3807,-3.3807,-3.3807,-3.3825,-3.4076,-3.5206,-3.5504,-3.597,-3.822,-3.8794,-3.902,-4.0161,0.0,0.0,0.0,0.0,-3.9919,0.0,0.0,0.0,0.0,0.0,0.0,0.0,0.0,0.0,0.0,0.0,0.0,0.0,0.0,0.0,0.0,-2.5308,-2.5654,-2.6524,-2.664,0.0,0.0,0.0,-3.0066,-3.1705,-3.2596,-3.3451,-3.4263,-3.5084,-3.55,-3.55,-3.55,-3.55,-3.55,-3.55,-3.5519,-3.5596,-3.6365,-3.7219,-3.8123,-3.8957,-3.9765,-4.0496,-4.0496,-4.0535,-4.0554,-4.0516,-4.1085,-4.1846,-3.4564,-3.522,-3.5661,0.0,-3.5279,-3.55,0.0,0.0,0.0,0.0,-3.6978,-3.6285,-3.5426,-3.4601,-3.4027,-3.3825,-3.3605,0.0,0.0,0.0,0.0,-3.4137,-3.5514,-3.5899,-3.5023,-3.5862,0.0,-3.5973,0.0,0.0,-3.4674,0.0,0.0,0.0,0.0,0.0,-3.2949,-3.355,-3.3807,-3.3807,-3.3807,-3.4174,0.0,0.0,-3.4289,-3.4894,-3.41,-3.3807,-3.3807,-3.3807,-3.3807,-3.3807,-3.3807,-3.4211,-3.4885,-3.5828,-3.5634,-3.5753,-3.861,-3.8069,-3.7138,-3.9122,-3.9123,-3.8584,0.0,0.0,0.0,0.0,0.0,0.0,0.0,0.0,0.0,0.0,0.0,0.0,0.0,0.0,0.0,0.0,0.0,0.0,-2.5423,-2.5308,-2.5654,-2.6524,-2.7198,0.0,0.0,0.0,0.0,-3.2564,-3.3429,-3.4295,-3.5161,-3.5385,-3.55,-3.55,-3.55,-3.55,-3.55,-3.55,-3.5827,-3.6404,-3.6615,-3.7565,-3.8977,-3.9207,-3.9765,-4.0496,-4.0496,-4.0893,-4.1393,-4.0746,-4.145,-4.2585,-3.4912,0.0,0.0,-3.6758,0.0,0.0,-3.7364,0.0,0.0,-3.7547,-3.6813,0.0,-3.5096,-3.427,-3.3807,-3.3807,-3.3807,0.0,0.0,0.0,0.0,-3.4325,-3.489,-3.4981,-3.4491,-3.5298,0.0,-3.5202,0.0,0.0,-3.4472,0.0,0.0,0.0,0.0,-3.355,0.0,-3.3605,-3.4009,-3.4289,-3.3935,0.0,0.0,-3.3972,-3.4082,-3.4417,-3.3972,-3.3807,-3.3807,-3.3807,-3.3807,-3.3807,-3.3807,-3.4119,-3.4637,-3.5481,-3.5371,-3.55,-3.7873,-3.7478,-3.6793,-3.8358,-3.8354,-3.8007,-3.8007,-3.8007,-3.8007,0.0,0.0,0.0,0.0,0.0,0.0,0.0,0.0,0.0,0.0,0.0,0.0,0.0,0.0,0.0,-2.6,-2.5865,-2.6231,-2.7101,0.0,0.0,0.0,0.0,0.0,-3.2852,-3.3762,-3.4648,-3.5481,-3.5846,-3.5846,-3.55,-3.55,-3.55,-3.55,-3.55,-3.5942,-3.6712,-3.7103,-3.8046,-3.9323,-3.9688,-4.0092,-4.0496,-4.0496,-4.1027,-4.1692,-4.0823,-4.1604,-4.2912,0.0,0.0,0.0,0.0,0.0,0.0,0.0,-3.8157,0.0,-3.7456,0.0,-3.5807,-3.4931,-3.4229,-3.3807,-3.3807,0.0,-3.41,-3.4802,-3.4192,-3.4119,-3.4821,-3.416,-3.3807,-3.3807,-3.4582,0.0,0.0,0.0,0.0,0.0,0.0,0.0,0.0,0.0,0.0,0.0,-3.3917,-3.4289,0.0,-3.4082,-3.3807,-3.3807,-3.3807,-3.3807,-3.3807,-3.3807,-3.3807,-3.3807,-3.3807,-3.3807,-3.3807,-3.3807,-3.3862,-3.41,-3.4784,-3.5004,-3.5302,-3.6663,-3.6917,-3.6943,-3.7608,-3.7716,-3.768,-3.768,-3.768,-3.768,-3.768,-3.6947,-3.6247,0.0,0.0,0.0,0.0,0.0,0.0,0.0,0.0,0.0,0.0,0.0,0.0,0.0,0.0,0.0,0.0,0.0,0.0,0.0,0.0,0.0,-3.2859,-3.3801,0.0,-3.5827,0.0,-3.6308,-3.5827,-3.5596,-3.55,-3.55,-3.55,-3.6,-3.6904,-3.768,-3.8546,-3.9515,-4.0208,-4.0496,-4.0496,-4.0496,-4.1027,-4.1712,-4.095,-4.1758,-4.3124,0.0,0.0,0.0,0.0,0.0,-3.8487,-3.8487,-3.8046,-3.7419,-3.6615,-3.5756,-3.4912,-3.41,-3.388,-3.3807,-3.3807,-3.3807,0.0,0.0,0.0,0.0,-3.4009,-3.388,-3.3807,-3.3807,-3.4582,-3.4931,0.0,0.0,0.0,0.0,0.0,0.0,0.0,0.0,0.0,-3.3844,-3.4509,0.0,-3.4009,-3.3862,-3.3807,-3.3807,-3.3807,-3.3807,-3.3807,-3.3807,-3.3807,-3.3807,-3.3807,-3.3807,-3.3807,-3.3807,-3.4266,-3.4821,-3.4968,-3.5004,-3.5266,-3.6454,-3.5972,-3.536,-3.6344,-3.6274,-3.5942,-3.5942,-3.5942,-3.5942,-3.5942,-3.5074,-3.4289,-3.4249,0.0,0.0,0.0,0.0,0.0,0.0,0.0,0.0,0.0,0.0,0.0,0.0,0.0,0.0,0.0,0.0,0.0,0.0,0.0,0.0,0.0,-3.3769,0.0,0.0,0.0,-3.6327,-3.7546,-3.6154,-3.55,-3.55,-3.55,-3.6327,-3.7777,-3.793,-3.8873,-4.0304,-4.0439,-4.0496,-4.0496,-4.0496,-4.1027,-4.1769,-4.1643,-4.2643,-4.3874,0.0,0.0,0.0,0.0,0.0,0.0,0.0,-3.7386,0.0,-3.6923,-3.5807,-3.4857,-3.4454,-3.4045,-3.3807,-3.3807,-3.3807,-3.3807,-3.3807,-3.3807,-3.3807,-3.3807,-3.3807,0.0,-3.3807,-3.4192,-3.4582,-3.5004,0.0,0.0,0.0,0.0,0.0,0.0,0.0,-3.5041,0.0,0.0,0.0,-3.438,-3.3972,-3.3807,-3.3807,-3.3807,-3.3807,-3.3807,-3.3807,-3.3807,-3.3807,-3.3807,-3.3807,-3.3807,-3.3807,-3.4344,-3.4931,-3.4491,-3.4986,-3.562,-3.5454,-3.5257,-3.5219,-3.5588,-3.5382,-3.5166,-3.5439,-3.5289,-3.5122,-3.5254,-3.438,-3.3552,-3.3412,-3.3274,0.0,0.0,0.0,0.0,0.0,0.0,0.0,0.0,0.0,0.0,0.0,0.0,0.0,0.0,0.0,0.0,0.0,0.0,0.0,0.0,0.0,0.0,0.0,0.0,0.0,-3.6692,-3.5885,-3.55,-3.5519,-3.5923,-3.6808,-3.8027,-3.8469,-3.9381,-4.0496,-4.0496,-4.0496,-4.0496,-4.0496,-4.0766,-4.1181,-4.1643,-4.2316,-4.2893,0.0,-3.8627,0.0,0.0,-3.8707,0.0,-3.7621,-3.6831,-3.645,-3.6923,-3.5679,-3.4747,-3.4747,-3.4325,-3.399,-3.3807,-3.3972,-3.399,-3.3807,-3.3807,-3.388,-3.4045,-3.4064,-3.4064,-3.4064,-3.4064,-3.4362,0.0,0.0,0.0,0.0,0.0,0.0,0.0,0.0,0.0,0.0,0.0,-3.4307,-3.4692,-3.4064,-3.3807,-3.3807,-3.3807,-3.3807,-3.3807,-3.3807,-3.3807,-3.3807,-3.3807,-3.3807,-3.3825,-3.4009,-3.4491,-3.4912,-3.4468,-3.5128,-3.5772,-3.4667,-3.4791,-3.5175,-3.4964,-3.4803,-3.4803,-3.5231,-3.4999,-3.4754,-3.4972,-3.4112,-3.3233,-3.2955,-3.2904,0.0,0.0,0.0,0.0,0.0,0.0,0.0,0.0,0.0,0.0,0.0,0.0,0.0,0.0,0.0,-2.9756,-3.0635,-3.0673,0.0,0.0,0.0,-3.4795,-3.6019,0.0,-3.6308,0.0,-3.5673,-3.5596,-3.5788,-3.6404,-3.7276,-3.8315,-3.8996,-3.9765,-4.0496,-4.0496,-4.0496,-4.0496,-4.0496,-4.0496,-4.0612,-4.1489,-4.1923,-4.2085,0.0,0.0,0.0,0.0,0.0,0.0,0.0,-3.6831,-3.6046,-3.5334,-3.4454,-3.3917,-3.3917,-3.4491,-3.4582,-3.3862,-3.4472,-3.4582,-3.3844,-3.3807,-3.4137,-3.4857,-3.4894,-3.4894,-3.4894,-3.4894,-3.4931,0.0,0.0,0.0,0.0,0.0,0.0,0.0,0.0,0.0,0.0,-3.4637,-3.4509,-3.3917,-3.3825,-3.3807,-3.3807,-3.3807,-3.3807,-3.3807,-3.3807,-3.3807,-3.3807,-3.3807,-3.3807,-3.3935,-3.4656,-3.4949,-3.5151,-3.5862,-3.5624,-3.5078,-3.4972,-3.4622,-3.4323,-3.4288,-3.4489,-3.4704,-3.4754,-3.4753,-3.4704,-3.4724,-3.3821,-3.2962,-3.2679,-3.2634,-3.3321,0.0,0.0,0.0,0.0,0.0,0.0,0.0,0.0,0.0,0.0,0.0,0.0,0.0,0.0,-3.0654,-3.1525,-3.1583,-3.2352,-3.4032,0.0,-3.536,-3.7738,-3.6327,-3.6346,-3.7757,-3.6231,-3.5885,-3.6596,-3.6673,-3.7603,-3.9188,-3.9265,-3.9765,-4.0496,-4.0496,-4.0496,-4.0496,-4.0496,-4.0496,-4.0612,-4.1489,-4.2297,-4.2989,0.0,0.0,0.0,0.0,0.0,0.0,0.0,-3.6505,-3.5807,-3.4468,-3.4009,-3.3807,-3.3807,-3.41,-3.4156,-3.3825,-3.41,-3.4137,-3.3825,-3.4252,-3.4656,-3.4986,-3.55,-3.5789,-3.5789,-3.5789,-3.5789,0.0,0.0,0.0,0.0,0.0,0.0,0.0,0.0,-3.5936,-3.4546,-3.4857,-3.4546,-3.3807,-3.3807,-3.3807,-3.3807,-3.3807,-3.3807,-3.3807,-3.3807,-3.3807,-3.3807,-3.3807,-3.3807,-3.3935,-3.4747,-3.5353,-3.5752,-3.5573,-3.5628,-3.5569,-3.4546,-3.4121,-3.4012,-3.4171,-3.4189,-3.4237,-3.4622,-3.4409,-3.422,-3.4368,-3.3527,-3.273,-3.2627,-3.2601,-3.3173,0.0,0.0,0.0,0.0,0.0,0.0,0.0,0.0,0.0,0.0,0.0,0.0,0.0,0.0,0.0,-3.0904,-3.1429,-3.2237,-3.3372,0.0,-3.493,-3.6481,-3.5827,-3.5846,-3.6481,-3.5827,-3.5923,-3.6712,-3.7238,-3.8411,-4.0015,-4.0015,-4.0208,-4.0496,-4.0496,-4.0496,-4.0496,-4.0496,-4.0496,-4.0669,-4.2066,-4.2797,-4.3239,-3.8515,0.0,-3.8512,0.0,-3.8562,-3.7982,-3.6527,-3.6303,-3.5697,-3.4027,-3.3807,-3.3807,-3.3807,-3.4009,-3.4064,-3.3825,-3.4247,-3.4321,-3.3825,-3.4784,-3.5371,-3.5371,-3.6193,0.0,-3.6652,-3.6652,-3.6541,-3.6303,-3.7107,0.0,0.0,0.0,0.0,0.0,-3.6652,-3.6046,-3.5004,-3.5004,-3.4546,-3.3807,-3.3807,-3.3807,-3.3807,-3.3807,-3.3807,-3.3807,-3.3807,-3.3807,-3.3807,-3.3807,-3.3807,-3.3935,-3.4747,-3.5426,-3.5862,-3.5481,-3.5628,-3.5661,-3.4468,-3.399,-3.3855,-3.4031,-3.3935,-3.3921,-3.4348,-3.4099,-3.3855,-3.4043,-3.348,-3.2949,-3.2949,-3.2949,-3.3414,-3.4819,0.0,0.0,0.0,0.0,0.0,0.0,0.0,-3.4026,-3.2564,0.0,0.0,0.0,0.0,0.0,0.0,-3.2,0.0,0.0,0.0,0.0,0.0,-3.55,-3.55,-3.55,-3.5731,-3.6269,-3.7123,-3.8238,-3.9381,-4.0496,-4.0496,-4.0496,-4.0496,-4.0496,-4.0496,-4.0496,-4.0496,-4.0496,-4.0689,-4.2162,-4.2874,-4.3297,-3.8013,-3.7893,-3.8082,-3.8611,-3.8267,-3.7557,-3.6465,-3.6303,-3.5697,-3.4027,-3.3807,-3.3807,-3.3807,-3.4509,-3.4674,-3.3862,-3.5312,-3.5569,-3.3917,-3.5349,-3.6285,0.0,0.0,-3.7492,-3.7492,-3.7492,-3.7107,-3.6303,0.0,0.0,-3.6321,0.0,-3.7492,-3.7492,-3.7492,-3.656,-3.5004,-3.5004,-3.4546,-3.3807,-3.3807,-3.3807,-3.3807,-3.3807,-3.3807,-3.3807,-3.3807,-3.3807,-3.3807,-3.3807,-3.3807,-3.3935,-3.4747,-3.5023,-3.5188,-3.6028,-3.5665,-3.5023,-3.5004,-3.4399,-3.3807,-3.3802,-3.3788,-3.3788,-3.382,-3.382,-3.3807,-3.3802,-3.3788,-3.3788,-3.3788,-3.3788,-3.4258,-3.5668,0.0,0.0,0.0,0.0,0.0,0.0,-3.4949,-3.5135,-3.4263,0.0,0.0,0.0,0.0,0.0,0.0,0.0,0.0,-3.5404,-3.5481,0.0,-3.55,-3.55,-3.55,-3.5519,-3.6308,-3.7142,-3.8046,-3.9708,-4.0477,-4.0496,-4.0496,-4.0496,-4.0496,-4.0496,-4.0496,-4.0496,-4.0496,-4.0496,-4.0612,-4.1489,-4.2354,-4.322,-3.7596,-3.7964,-3.8218,-3.7459,-3.7499,-3.7125,-3.5632,-3.5614,-3.5284,-3.3968,-3.3996,-3.4051,-3.3817,-3.4027,-3.4082,0.0,-3.4798,-3.5188,0.0,-3.6193,-3.7125,-3.7125,-3.7364,-3.7492,-3.7492,-3.7492,-3.7107,-3.6303,0.0,0.0,0.0,-3.7382,-3.7217,-3.667,-3.667,-3.6064,-3.5004,-3.5004,-3.4546,-3.3807,-3.3807,-3.3807,-3.3807,-3.3807,-3.3807,-3.3807,-3.3807,-3.3807,-3.3807,-3.3807,-3.3807,-3.3844,-3.41,-3.4564,-3.5059,-3.5334,-3.5224,-3.4876,-3.4325,-3.399,-3.3807,-3.3807,-3.3807,-3.3807,-3.3807,-3.3807,-3.3807,-3.3807,-3.3807,-3.3807,-3.3807,-3.3807,-3.4079,-3.4932,-3.4864,0.0,0.0,0.0,0.0,0.0,-3.4968,-3.5154,0.0,-3.4737,0.0,0.0,0.0,0.0,0.0,0.0,0.0,0.0,-3.5192,0.0,-3.55,-3.55,-3.5788,-3.6327,-3.6577,-3.7469,-3.8911,-4.0015,-4.0496,-4.0496,-4.0496,-4.0496,-4.0496,-4.0496,-4.0496,-4.0496,-4.0496,-4.0496,-4.0612,-4.1489,-4.2354,-4.322,-3.7359,-3.7542,-3.7629,-3.7004,-3.6767,-3.6271,-3.5098,-3.4873,-3.4467,-3.3433,-3.3489,-3.3537,-3.3324,-3.3462,0.0,-3.3793,-3.4821,-3.5353,-3.5023,-3.6853,-3.7823,-3.7511,-3.7786,-3.7936,-3.7936,0.0,0.0,-3.7202,-3.8212,-3.8432,-3.7936,-3.7936,-3.7679,-3.7184,-3.689,-3.6285,-3.5463,-3.5151,-3.4546,-3.3807,-3.3807,-3.3807,-3.3807,-3.3807,-3.3807,-3.3807,-3.3807,-3.3807,-3.3807,-3.3807,-3.3807,-3.3807,-3.3807,-3.4137,-3.4546,-3.4546,-3.4546,-3.4435,-3.3935,-3.3807,-3.3807,-3.3807,-3.3807,-3.3807,-3.3807,-3.3807,-3.3899,-3.4192,-3.4252,-3.4252,-3.4252,-3.4252,-3.4323,-3.448,-3.4622,-3.4841,-3.5289,0.0,0.0,0.0,0.0,0.0,0.0,-3.4971,0.0,0.0,0.0,0.0,0.0,0.0,0.0,-3.468,-3.5212,0.0,-3.55,-3.55,-3.5904,-3.6712,-3.7353,-3.8392,-3.9765,-4.0265,-4.0496,-4.0496,-4.0496,-4.0496,-4.0496,-4.0496,-4.0496,-4.0496,-4.0496,-4.0496,-4.0612,-4.1489,-4.2354,-4.322,-3.7192,-3.6744,0.0,0.0,-3.6066,0.0,-3.4783,-3.4199,-3.3509,-3.2678,-3.2591,-3.2608,-3.2551,-3.2937,-3.3379,-3.3835,0.0,0.0,0.0,-3.7389,-3.8377,-3.7621,-3.8248,-3.8597,-3.8542,-3.8597,-3.8652,-3.8707,-3.8707,-3.8707,-3.8707,-3.8652,-3.8652,-3.867,-3.7749,-3.6942,-3.6229,-3.5316,-3.4472,-3.3807,-3.3862,-3.3844,-3.3807,-3.3862,-3.3844,-3.3807,-3.3807,-3.3807,-3.3807,-3.3807,-3.3807,-3.3807,-3.3807,-3.3807,-3.3807,-3.3807,-3.3807,-3.3807,-3.3807,-3.3807,-3.3807,-3.3807,-3.3807,-3.3807,-3.3862,-3.388,-3.4119,-3.4931,-3.5096,-3.5078,-3.5023,-3.5004,-3.482,-3.4289,-3.4456,-3.4764,-3.507,0.0,0.0,0.0,0.0,0.0,0.0,-3.4926,-3.5088,0.0,0.0,0.0,0.0,0.0,-3.4661,-3.5462,-3.55,-3.55,-3.55,-3.55,-3.5923,-3.6808,-3.8546,-3.9785,-4.0496,-4.0496,-4.0496,-4.0496,-4.0496,-4.0496,-4.0496,-4.0496,-4.0496,-4.0496,-4.0496,-4.0496,-4.0612,-4.1489,-4.2354,-4.322,0.0,0.0,-3.6535,-3.5089,-3.5348,-3.5326,-3.4076,-3.4438,-3.4484,-3.3476,-3.3562,-3.3546,-3.3078,-3.3121,-3.3615,-3.4628,-3.5697,-3.6468,-3.6886,-3.8028,-3.8615,-3.8414,-3.8025,-3.7511,-3.6872,-3.7474,-3.8065,-3.8707,-3.8707,-3.8707,-3.8689,-3.8065,-3.8102,-3.8615,-3.6509,-3.5862,-3.6193,-3.4706,-3.3972,-3.3844,-3.4472,-3.4344,-3.3862,-3.4472,-3.4325,-3.3807,-3.3807,-3.3807,-3.3807,-3.3807,-3.3807,-3.3807,-3.3807,-3.3807,-3.3807,-3.3807,-3.3807,-3.3807,-3.3807,-3.3807,-3.3807,-3.3807,-3.3807,-3.3972,-3.4582,-3.4729,-3.4949,-3.5826,-3.5991,-3.5789,-3.5133,-3.5004,-3.482,-3.4289,-3.4277,-3.451,-3.5025,-3.4981,0.0,0.0,-3.4926,-3.4764,-3.4723,-3.4754,-3.4889,0.0,0.0,0.0,0.0,-3.5308,-3.5288,-3.5481,-3.55,-3.55,-3.55,-3.55,-3.6231,-3.7719,-3.9419,-4.0323,-4.0496,-4.0496,-4.0496,-4.0496,-4.0496,-4.0496,-4.0496,-4.0496,-4.0496,-4.0496,-4.0496,-4.0496,-4.0612,-4.1489,-4.2354,-4.322,-3.5761,-3.6075,-3.6098,-3.4991,-3.5059,-3.4963,-3.4148,-3.3931,-3.3802,-3.3538,-3.3594,-3.3643,-3.3667,-3.4044,-3.4715,-3.573,-3.6109,-3.6648,-3.7456,-3.8248,-3.8707,-3.8707,-3.8285,-3.7661,-3.6868,-3.729,-3.7529,-3.7606,-3.7973,-3.8138,-3.8138,-3.7713,-3.7731,-3.8083,-3.6358,-3.5628,-3.5679,-3.5165,-3.4706,-3.438,-3.4821,-3.4747,-3.4362,-3.4417,-3.4192,-3.3807,-3.3807,-3.3807,-3.3807,-3.3807,-3.3807,-3.3807,-3.3807,-3.3807,-3.3807,-3.3807,-3.3807,-3.3807,-3.3807,-3.3807,-3.3807,-3.3807,-3.3807,-3.4009,-3.4821,-3.5004,-3.5353,-3.6578,-3.685,-3.6688,-3.6229,-3.583,-3.5368,-3.467,-3.4352,-3.4315,-3.4646,-3.4704,0.0,-3.4686,-3.4553,-3.4431,-3.4302,-3.4398,-3.4521,-3.4676,0.0,0.0,-3.5304,-3.5312,-3.5376,-3.55,-3.55,-3.55,-3.55,-3.625,-3.7103,-3.8027,-3.9708,-4.0496,-4.0496,-4.0496,-4.0422,-4.0321,-4.0321,-4.0321,-4.0321,-4.0321,-4.0389,-4.0496,-4.0496,-4.0746,-4.12,-4.2066,-4.2931,-4.3778,-3.5694,-3.56,-3.5566,-3.5447,-3.5013,-3.4624,-3.4506,-3.3546,-3.2966,-3.3508,-3.3431,-3.3557,-3.4212,-3.4994,-3.5854,-3.6816,-3.6656,-3.6817,-3.7639,-3.8322,-3.8652,-3.8524,-3.8524,-3.8083,-3.7144,-3.7254,-3.6978,-3.6303,-3.7235,-3.7621,-3.7492,-3.7382,-3.7382,-3.7456,-3.6391,-3.5587,-3.5041,-3.5661,-3.5495,-3.4839,-3.5096,-3.5133,-3.4949,-3.4394,-3.41,-3.3972,-3.3844,-3.3807,-3.3807,-3.3807,-3.3807,-3.3807,-3.3807,-3.3807,-3.3807,-3.3807,-3.3899,-3.399,-3.399,-3.4082,-3.4174,-3.4174,-3.4174,-3.4394,-3.5188,-3.5371,-3.5811,-3.7364,-3.7676,-3.7639,-3.7529,-3.685,-3.6064,-3.5316,-3.4596,-3.4196,-3.4374,0.0,-3.4475,-3.4242,-3.4152,-3.4056,-3.3815,-3.4012,-3.4159,-3.4188,-3.4456,-3.4801,0.0,-3.5136,-3.5264,-3.5605,-3.5544,-3.5558,-3.5673,-3.7353,-3.82,-3.82,-3.9765,-4.0481,-4.0449,-4.0449,-4.0285,-4.0022,-4.0022,-4.0099,-4.0203,-4.0253,-4.0499,-4.0814,-4.0865,-4.1335,-4.2104,-4.297,-4.3701,-4.4412,-3.5622,-3.56,-3.5397,-3.4776,-3.5098,-3.5211,-3.459,-3.4827,-3.4912,-3.4387,-3.4304,-3.4397,-3.4692,-3.4836,-3.5588,-3.725,-3.7353,-3.7658,-3.8469,-3.8634,-3.8395,-3.7731,-3.7694,-3.6964,-3.5426,-3.6119,-3.6431,-3.6303,-3.779,-3.8175,-3.7492,-3.6813,-3.685,-3.7401,-3.5183,-3.4504,-3.4968,-3.4431,-3.4119,-3.4119,-3.5532,-3.5661,-3.5078,-3.5679,-3.5459,-3.4729,-3.4045,-3.3807,-3.3807,-3.3807,-3.3807,-3.3807,-3.3807,-3.3807,-3.3807,-3.3807,-3.427,-3.4821,-3.4821,-3.5334,-3.5899,-3.5899,-3.5899,-3.6119,-3.6942,-3.7125,-3.7382,-3.8322,-3.8505,-3.8303,-3.7621,-3.685,-3.6266,-3.6119,-3.4839,-3.4194,-3.5169,0.0,-3.3999,-3.4183,-3.4012,-3.3855,-3.3802,-3.3842,-3.3961,-3.4176,-3.4253,-3.4712,-3.5725,-3.5343,-3.5437,-3.616,-3.5733,-3.5827,-3.65,-3.8238,-3.9111,-3.9111,-4.0054,-4.0381,-4.0158,-4.0158,-3.9983,-3.9668,-3.9668,-4.0053,-4.0714,-4.1001,-4.1532,-4.2211,-4.2567,-4.2777,-4.3008,-4.3816,-4.4182,-4.4412,-3.56,-3.56,-3.5481,-3.5165,-3.5363,-3.5481,-3.5148,-3.5047,-3.503,-3.5098,-3.5208,-3.5514,-3.6038,-3.6573,-3.7239,-3.8071,-3.8138,-3.8303,-3.8689,-3.8707,-3.8524,-3.8157,-3.7731,-3.6707,-3.5041,-3.5389,-3.5404,-3.4945,-3.6597,-3.6982,-3.6156,-3.5771,-3.5807,-3.6119,-3.544,-3.4853,-3.4417,-3.5385,-3.5275,-3.4546,-3.5807,-3.6064,-3.5752,-3.6156,-3.5771,-3.4949,-3.4582,-3.4174,-3.3807,-3.3807,-3.3807,-3.3807,-3.3807,-3.3807,-3.3899,-3.4307,-3.4711,-3.5096,-3.5573,-3.5991,-3.6303,-3.6303,-3.6303,-3.6505,-3.7327,-3.7492,-3.7731,-3.8524,-3.8707,-3.845,-3.7658,-3.685,-3.6303,-3.6303,-3.489,0.0,0.0,-3.441,-3.3855,-3.3974,-3.3881,-3.3807,-3.3807,-3.4192,-3.4504,-3.4626,-3.5077,-3.5626,-3.6288,-3.5678,-3.5742,-3.6697,-3.6345,-3.6327,-3.6692,-3.843,-3.9426,-3.9695,-4.0526,-4.0997,-4.1113,-4.0669,-4.0283,-3.9976,-3.9976,-4.0201,-4.0589,-4.1399,-4.2031,-4.2532,-4.2933,-4.3355,-4.3797,-4.4162,-4.4605,-4.5056,-3.56,-3.56,-3.56,-3.56,-3.56,-3.56,-3.56,-3.5131,-3.4962,-3.5515,-3.5776,-3.6237,-3.712,-3.7878,-3.8451,-3.8692,-3.8707,-3.8707,-3.8707,-3.8707,-3.8615,-3.8432,-3.7366,-3.6123,-3.4714,-3.498,-3.4749,-3.394,-3.571,-3.6138,-3.5298,-3.5096,-3.5004,-3.5023,-3.5495,-3.5,-3.3935,-3.6028,-3.6193,-3.5096,-3.6156,-3.6593,-3.6593,-3.6593,-3.6156,-3.5536,-3.5151,-3.4601,-3.4045,-3.3862,-3.3807,-3.3807,-3.3807,-3.3935,-3.4197,-3.4821,-3.5279,-3.5775,-3.6633,-3.6853,-3.6853,-3.6853,-3.6853,-3.7019,-3.7639,-3.7786,-3.7936,-3.8579,-3.856,-3.823,-3.7621,-3.667,-3.6064,-3.6266,0.0,0.0,0.0,-3.4307,-3.3807,-3.3807,-3.3807,-3.3862,-3.4064,-3.4637,-3.5078,-3.5298,-3.5917,-3.6468,-3.6862,-3.6186,-3.6184,-3.7069,-3.7071,-3.7078,-3.7078,-3.8608,-3.9632,-4.0188,-4.0864,-4.1336,-4.1587,-4.0967,-4.0504,-4.021,-4.021,-4.0453,-4.0957,-4.197,-4.2678,-4.3153,-4.3528,-4.4066,-4.4605,-4.4605,-4.5037,-4.5586,-3.56,-3.56,-3.56,-3.56,-3.56,-3.56,-3.56,-3.5549,-3.5532,-3.5583,-3.5621,-3.6028,-3.7078,-3.7266,-3.7703,-3.8627,-3.8707,-3.8707,-3.8707,-3.8707,-3.8377,-3.7621,-3.5684,-3.4341,-3.3718,-3.4916,-3.5157,-3.4364,-3.6398,-3.6997,-3.6193,-3.5371,-3.5004,-3.4968,-3.4302,-3.3917,-3.3862,-3.4784,-3.5114,-3.5151,-3.6762,-3.7419,-3.7419,-3.7419,-3.7364,-3.7125,-3.5555,-3.4968,-3.4802,-3.4045,-3.3807,-3.3807,-3.3807,-3.4307,-3.4931,-3.4986,-3.6101,-3.7492,-3.8303,-3.8524,-3.8524,-3.8524,-3.8524,-3.8542,-3.8597,-3.8615,-3.8634,-3.8689,-3.8102,-3.7566,-3.7511,-3.6193,-3.5353,-3.6174,0.0,0.0,-3.4894,-3.4307,-3.3807,-3.3807,-3.3807,-3.41,-3.4839,-3.4968,-3.5334,-3.6138,-3.6266,-3.6629,-3.7408,-3.6909,-3.677,-3.7088,-3.7807,-3.818,-3.818,-3.9108,-3.9966,-4.0738,-4.0813,-4.0691,-4.0416,-4.036,-4.0181,-3.9929,-3.9929,-4.0954,-4.2659,-4.3049,-4.3884,-4.4938,-4.5284,-4.546,-4.5498,-4.5498,-4.5537,-4.5559,-3.56,-3.56,-3.56,-3.56,-3.56,-3.56,-3.56,-3.6028,-3.6332,-3.6332,-3.699,-3.7759,-3.8528,-3.8431,-3.8616,-3.9376,-3.9001,-3.8562,-3.8234,-3.82,-3.7836,-3.7039,-3.5493,-3.4514,-3.4288,-3.4833,-3.5106,-3.5081,-3.6361,-3.6762,-3.6266,-3.5408,-3.5298,-3.5771,-3.4912,-3.4853,-3.5367,-3.5679,-3.5807,-3.5917,-3.7052,-3.7492,-3.7547,-3.8046,-3.7933,-3.7345,-3.6211,-3.5463,-3.4876,-3.4082,-3.3807,-3.3899,-3.438,-3.4747,-3.5206,-3.6248,-3.7349,-3.8303,-3.8615,-3.8707,-3.8707,-3.8707,-3.8707,-3.8579,-3.8065,-3.834,-3.8414,-3.7422,-3.7753,-3.7936,-3.6942,-3.6633,-3.6652,-3.6997,0.0,-3.5624,-3.6431,-3.5862,-3.5349,-3.5349,-3.5349,-3.5477,-3.5789,-3.6266,-3.6688,-3.7015,-3.7514,-3.7918,-3.823,-3.8052,-3.7757,-3.7357,-3.8118,-3.848,-3.829,-3.9154,-4.017,-4.1309,-4.1309,-4.1655,-4.2276,-4.1778,-4.1477,-4.1403,-4.1616,-4.2125,-4.2878,-4.3964,-4.4703,-4.5129,-4.5476,-4.5457,-4.5302,-4.5302,-4.515,-4.4988,-3.5943,-3.5769,-3.5667,-3.5943,-3.5994,-3.6039,-3.6276,-3.6789,-3.7168,-3.7168,-3.7866,-3.858,-3.9164,-3.9174,-3.9265,-3.9586,-3.9124,-3.8554,-3.7929,-3.7596,-3.7184,-3.6631,-3.5543,-3.4862,-3.4636,-3.4844,-3.519,-3.5659,-3.635,-3.6681,-3.6666,-3.5807,-3.5573,-3.5881,-3.5261,-3.5334,-3.5917,-3.6174,-3.645,-3.6758,-3.7547,-3.7878,-3.7951,-3.8487,-3.8358,-3.7768,-3.6978,-3.6138,-3.5279,-3.4468,-3.4009,-3.3935,-3.4747,-3.5353,-3.6064,-3.7459,-3.8267,-3.8707,-3.8707,-3.8707,-3.8707,-3.8707,-3.8505,-3.8175,-3.7621,-3.7716,-3.7624,-3.6523,-3.7184,-3.7606,-3.6505,-3.6758,-3.7125,-3.7125,-3.6666,-3.6486,-3.7052,-3.6652,-3.6303,-3.6303,-3.6303,-3.6395,-3.6652,-3.718,-3.7603,-3.786,-3.8395,-3.8707,-3.8707,-3.8707,-3.845,-3.7896,-3.8652,-3.8984,-3.8808,-3.9151,-4.0173,-4.1816,-4.1556,-4.2028,-4.3094,-4.2543,-4.2304,-4.2303,-4.2538,-4.2906,-4.3442,-4.4367,-4.4889,-4.5107,-4.5243,-4.5211,-4.5096,-4.5096,-4.4954,-4.4769,-3.666,-3.6163,-3.5853,-3.6677,-3.6812,-3.7066,-3.7787,-3.7905,-3.7922,-3.7922,-3.7922,-3.8084,-3.8558,-3.9143,-3.937,-3.9031,-3.9066,-3.8741,-3.793,-3.6962,-3.6395,-3.6395,-3.5688,-3.5046,-3.4527,-3.5026,-3.5533,-3.6006,-3.6484,-3.6971,-3.7492,-3.667,-3.583,-3.5009,-3.499,-3.499,-3.5078,-3.5936,-3.6776,-3.7584,-3.8377,-3.8689,-3.8689,-3.8689,-3.8689,-3.8579,-3.7768,-3.6978,-3.6156,-3.5298,-3.4472,-3.3954,-3.4766,-3.6174,-3.7676,-3.8469,-3.8707,-3.8707,-3.8707,-3.8707,-3.8707,-3.8707,-3.8102,-3.7492,-3.7492,-3.6886,-3.6303,-3.6303,-3.6303,-3.6321,-3.6303,-3.6303,-3.6321,-3.6321,-3.6321,-3.6321,-3.6321,-3.6321,-3.6321,-3.6321,-3.6321,-3.6615,-3.7437,-3.7511,-3.7841,-3.8634,-3.8707,-3.8707,-3.8707,-3.8707,-3.8707,-3.8707,-3.9478,-3.9916,-3.9918,-3.9129,-3.9918,-4.2286,-4.148,-4.1534,-4.2304,-4.2304,-4.2304,-4.2304,-4.2304,-4.3172,-4.4553,-4.4161,-4.4436,-4.5074,-4.4751,-4.4812,-4.5096,-4.5096,-4.5085,-4.5041,-3.7415,-3.6958,-3.6671,-3.7432,-3.7567,-3.7652,-3.7872,-3.8345,-3.8667,-3.8667,-3.9106,-3.9623,-4.0176,-3.9872,-3.9553,-3.9386,-3.8855,-3.8062,-3.6917,-3.6207,-3.5832,-3.5832,-3.5121,-3.4899,-3.5267,-3.4916,-3.5414,-3.6837,-3.6608,-3.693,-3.7751,-3.6028,-3.5578,-3.6159,-3.5051,-3.5395,-3.6762,-3.7033,-3.7621,-3.8303,-3.7988,-3.786,-3.7804,-3.7221,-3.7019,-3.6909,-3.6064,-3.5591,-3.5353,-3.5096,-3.4839,-3.4894,-3.6303,-3.7477,-3.8395,-3.8634,-3.8707,-3.8707,-3.8707,-3.8707,-3.8707,-3.8707,-3.8102,-3.7492,-3.7492,-3.7309,-3.6978,-3.6413,-3.7202,-3.7808,-3.7254,-3.7588,-3.7973,-3.7973,-3.7973,-3.7973,-3.7973,-3.7973,-3.7973,-3.7973,-3.7973,-3.8083,-3.8322,-3.834,-3.8432,-3.8689,-3.8707,-3.8946,-3.9515,-3.9533,-3.9533,-3.9533,-3.9772,-4.0432,-4.157,-4.0799,-4.1022,-4.2304,-4.2066,-4.2359,-4.313,-4.313,-4.313,-4.3147,-4.3389,-4.3747,-4.4204,-4.4612,-4.49,-4.5107,-4.5253,-4.5085,-4.4745,-4.4745,-4.4414,-4.4004,-3.8193,-3.7736,-3.7466,-3.821,-3.8345,-3.843,-3.8717,-3.914,-3.9453,-3.9453,-3.9825,-4.0229,-4.0552,-4.0336,-3.9884,-3.921,-3.8178,-3.7129,-3.6152,-3.5783,-3.56,-3.56,-3.5182,-3.5148,-3.5583,-3.5165,-3.557,-3.6865,-3.656,-3.6825,-3.7596,-3.6327,-3.6096,-3.6669,-3.573,-3.6144,-3.7492,-3.7492,-3.797,-3.867,-3.8175,-3.7677,-3.7174,-3.6681,-3.6373,-3.6071,-3.5256,-3.5057,-3.5144,-3.4849,-3.5111,-3.5752,-3.7088,-3.8046,-3.8707,-3.8707,-3.8707,-3.8707,-3.8707,-3.8707,-3.8707,-3.8707,-3.8102,-3.7492,-3.7492,-3.7254,-3.6905,-3.6395,-3.7331,-3.8065,-3.7584,-3.8157,-3.8707,-3.8707,-3.8707,-3.8707,-3.8707,-3.8707,-3.8707,-3.8707,-3.8707,-3.8707,-3.8707,-3.8707,-3.8707,-3.8707,-3.8707,-3.9056,-3.9845,-3.99,-4.0047,-4.0359,-4.0671,-4.1313,-4.2286,-4.2139,-4.2286,-4.2763,-4.2451,-4.2708,-4.3515,-4.3515,-4.3515,-4.3513,-4.3849,-4.4001,-4.4028,-4.4476,-4.4663,-4.4676,-4.4731,-4.4594,-4.4359,-4.4359,-4.4076,-4.3726,-3.8937,-3.8497,-3.8227,-3.8954,-3.9039,-3.9249,-3.991,-4.0011,-4.0011,-4.0011,-4.0062,-4.0096,-4.0096,-4.0546,-4.0205,-3.8679,-3.7176,-3.6118,-3.5644,-3.56,-3.56,-3.56,-3.56,-3.56,-3.56,-3.56,-3.5854,-3.6395,-3.6333,-3.6603,-3.7133,-3.7007,-3.6824,-3.6569,-3.6569,-3.6872,-3.7354,-3.7442,-3.7903,-3.8562,-3.8489,-3.7756,-3.6704,-3.665,-3.6307,-3.5811,-3.512,-3.5147,-3.5423,-3.4855,-3.5493,-3.6633,-3.7382,-3.8102,-3.8707,-3.8707,-3.8707,-3.8707,-3.8707,-3.8707,-3.8707,-3.8707,-3.8138,-3.7603,-3.7603,-3.6978,-3.6431,-3.6486,-3.7107,-3.7603,-3.7603,-3.8212,-3.8707,-3.8707,-3.8707,-3.8707,-3.8707,-3.8707,-3.8707,-3.8707,-3.8707,-3.8707,-3.8707,-3.8781,-3.8836,-3.8909,-3.8909,-3.9276,-4.0065,-4.0102,-4.0451,-4.1168,-4.1919,-4.2323,-4.2415,-4.3057,-4.3441,-4.3496,-4.2763,-4.2782,-4.3515,-4.3515,-4.3515,-4.3513,-4.3818,-4.3955,-4.3955,-4.3986,-4.4001,-4.3971,-4.3693,-4.3775,-4.4001,-4.4001,-4.3986,-4.3955,-3.9723,-3.9259,-3.8988,-3.974,-3.9377,-3.9039,-3.9208,-3.9225,-3.9225,-3.9225,-3.974,-4.0096,-4.0096,-4.0204,-3.9666,-3.818,-3.6667,-3.5717,-3.5622,-3.56,-3.56,-3.56,-3.56,-3.56,-3.56,-3.56,-3.5854,-3.6395,-3.5985,-3.6054,-3.6563,-3.5562,-3.5246,-3.5531,-3.5589,-3.5839,-3.6292,-3.697,-3.7363,-3.747,-3.6774,-3.6346,-3.6043,-3.5403,-3.5084,-3.496,-3.48,-3.5062,-3.5652,-3.652,-3.7436,-3.8212,-3.8377,-3.856,-3.8707,-3.8707,-3.8707,-3.8707,-3.8707,-3.8707,-3.8707,-3.8707,-3.8579,-3.8432,-3.8432,-3.7823,-3.7419,-3.8046,-3.8322,-3.8432,-3.8432,-3.8579,-3.8707,-3.8707,-3.8707,-3.8707,-3.8707,-3.8707,-3.8707,-3.8707,-3.8707,-3.8707,-3.8707,-3.9276,-3.99,-4.0526,-4.0581,-4.0946,-4.1735,-4.1772,-4.1864,-4.2029,-4.2213,-4.2598,-4.3222,-4.2782,-4.2873,-4.3515,-4.3331,-4.3331,-4.3515,-4.3515,-4.3515,-4.3496,-4.358,-4.3614,-4.3629,-4.3896,-4.4001,-4.4013,-4.4266,-4.4223,-4.4001,-4.4001,-4.3833,-4.3614,-4.0028,-3.9791,-3.9656,-4.0028,-3.9791,-3.9419,-3.9039,-3.8988,-3.887,-3.8514,-3.8802,-3.9039,-3.9039,-3.9039,-3.8599,-3.7466,-3.6299,-3.56,-3.56,-3.56,-3.56,-3.56,-3.56,-3.56,-3.56,-3.56,-3.5739,-3.6028,-3.5739,-3.5739,-3.6011,-3.5331,-3.5279,-3.5786,-3.5806,-3.5883,-3.6004,-3.6836,-3.6979,-3.6625,-3.6535,-3.5962,-3.5034,-3.4631,-3.4097,-3.3578,-3.384,-3.4639,-3.5754,-3.7064,-3.7786,-3.8193,-3.8579,-3.8707,-3.8707,-3.8707,-3.8707,-3.8707,-3.8707,-3.8707,-3.8707,-3.8707,-3.8707,-3.8707,-3.8707,-3.8377,-3.8193,-3.8615,-3.8707,-3.8707,-3.8707,-3.9019,-3.9148,-3.8762,-3.9019,-3.9148,-3.8762,-3.8707,-3.8707,-3.8707,-3.8707,-3.8854,-3.9239,-3.9992,-4.0653,-4.1058,-4.1095,-4.1444,-4.2268,-4.2304,-4.2488,-4.2855,-4.2873,-4.3057,-4.3515,-4.3075,-4.3075,-4.3515,-4.3515,-4.3515,-4.3515,-4.3515,-4.3515,-4.3515,-4.3679,-4.3646,-4.3531,-4.3865,-4.3912,-4.3772,-4.3989,-4.3962,-4.3756,-4.3756,-4.3646,-4.3515,-4.0096,-4.0096,-4.0096,-4.0096,-3.9893,-3.9537,-3.8903,-3.87,-3.8447,-3.7973,-3.7905,-3.7956,-3.8075,-3.7872,-3.7466,-3.6846,-3.6062,-3.56,-3.56,-3.56,-3.56,-3.56,-3.56,-3.56,-3.56,-3.56,-3.56,-3.56,-3.56,-3.56,-3.56,-3.56,-3.5849,-3.6249,-3.6249,-3.6137,-3.5974,-3.6642,-3.6536,-3.5991,-3.6659,-3.5933,-3.4426,-3.4426,-3.3768,-3.2913,-3.3457,-3.4659,-3.6184,-3.7336,-3.7713,-3.7823,-3.8487,-3.8707,-3.8707,-3.8707,-3.8707,-3.8707,-3.8707,-3.8707,-3.8707,-3.8707,-3.8707,-3.8707,-3.8707,-3.8707,-3.8707,-3.8707,-3.8817,-3.8909,-3.8909,-3.9551,-3.9882,-3.9221,-3.9662,-3.9863,-3.9203,-3.9111,-3.9111,-3.9111,-3.9111,-3.9368,-4.0029,-4.0836,-4.1297,-4.1297,-4.1425,-4.1809,-4.247,-4.2506,-4.28,-4.3478,-4.3515,-4.3515,-4.3515,-4.3515,-4.3515,-4.3515,-4.3515,-4.3515,-4.3515,-4.3515,-4.3515,-4.3513,-4.3788,-4.3775,-4.3513,-4.3804,-4.3758,-4.3515,-4.3515,-4.3515,-4.3515,-4.3515,-4.3515,-4.3515,-4.0096,-4.0096,-4.0096,-4.0096,-3.9039,-3.8159,-3.8075,-3.7499,-3.7303,-3.7838,-3.7905,-3.8142,-3.8768,-3.7702,-3.6914,-3.6812,-3.6062,-3.56,-3.56,-3.56,-3.56,-3.56,-3.56,-3.56,-3.56,-3.56,-3.56,-3.56,-3.56,-3.56,-3.56,-3.56,-3.5644,-3.5717,-3.5717,-3.5671,-3.5657,-3.5776,-3.5742,-3.5657,-3.5776,-3.5647,-3.5411,-3.5411,-3.5294,-3.5232,-3.5759,-3.6672,-3.769,-3.8329,-3.8542,-3.856,-3.867,-3.8707,-3.8707,-3.8707,-3.8707,-3.8707,-3.8707,-3.8707,-3.8707,-3.8707,-3.8707,-3.8707,-3.8707,-3.8707,-3.8707,-3.8707,-3.9239,-3.9735,-3.9735,-4.0396,-4.0893,-4.0783,-4.0857,-4.0893,-4.0783,-4.0783,-4.0783,-4.0783,-4.0783,-4.082,-4.093,-4.168,-4.2139,-4.2139,-4.2782,-4.3222,-4.3331,-4.3332,-4.3404,-4.3515,-4.3515,-4.3515,-4.3515,-4.3515,-4.3515,-4.3515,-4.3515,-4.3515,-4.3515,-4.3515,-4.3515,-4.3496,-4.3548,-4.3548,-4.3496,-4.3548,-4.3548,-4.3515,-4.3515,-4.3515,-4.3515,-4.3515,-4.3515,-4.3515,-4.0096,-4.0096,-4.0096,-4.0096,-3.9571,-3.8988,-3.8582,-3.8227,-3.7838,-3.7347,-3.728,-3.7229,-3.711,-3.6518,-3.6129,-3.6129,-3.5785,-3.56,-3.56,-3.56,-3.56,-3.56,-3.56,-3.56,-3.56,-3.56,-3.56,-3.56,-3.56,-3.56,-3.56,-3.56,-3.56,-3.56,-3.56,-3.5363,-3.5013,-3.543,-3.5346,-3.503,-3.543,-3.5346,-3.4996,-3.4996,-3.4742,-3.4529,-3.5745,-3.6913,-3.798,-3.853,-3.8707,-3.8707,-3.8707,-3.8707,-3.8707,-3.8707,-3.8707,-3.8707,-3.8707,-3.8707,-3.8707,-3.8707,-3.8707,-3.8817,-3.9276,-3.9368,-3.9239,-3.8799,-3.9698,-4.0432,-3.9974,-4.0928,-4.1625,-4.1168,-4.148,-4.1625,-4.115,-4.1095,-4.1095,-4.1095,-4.1515,-4.1772,-4.1772,-4.2506,-4.2965,-4.2965,-4.3313,-4.3515,-4.3515,-4.3515,-4.3515,-4.3515,-4.3515,-4.3515,-4.3515,-4.3515,-4.3515,-4.3515,-4.3515,-4.3515,-4.3515,-4.3515,-4.3515,-4.3515,-4.3515,-4.3515,-4.3515,-4.3515,-4.3515,-4.3515,-4.3515,-4.3515,-4.3515,-4.3515,-4.3515,-4.3515]},{"header":{"parameterUnit":"m.s-1","parameterCategory":1,"la1":30.6,"la2":28.766,"lo1":-90.7593,"lo2":-88.6598,"dy":0.0162,"dx":0.0183,"nx":116,"ny":114,"refTime":"2023-02-23T18:00:00:Z","depth":0,"parameterNumber":3,"parameterNumberName":"V-component_of_WINDS"},"data":[0.0,0.0,0.0,0.0,0.0,0.0,0.0,0.0,0.0,0.0,0.0,0.0,0.0,0.0,0.0,0.0,0.0,0.0,0.0,0.0,0.0,0.0,0.0,0.0,0.0,0.0,0.0,0.0,0.0,0.0,0.0,0.0,0.0,0.0,0.0,0.0,0.0,0.0,0.0,0.0,0.0,0.0,0.0,0.0,0.0,0.0,0.0,0.0,0.0,0.0,0.0,0.0,0.0,0.0,0.0,0.0,0.0,0.0,0.0,0.0,0.0,0.0,0.0,0.0,0.0,0.0,0.0,0.0,0.0,0.0,0.0,0.0,0.0,0.0,0.0,0.0,0.0,0.0,0.0,0.0,0.0,0.0,0.0,0.0,0.0,0.0,0.0,0.0,0.0,0.0,0.0,0.0,0.0,0.0,0.0,0.0,0.0,0.0,0.0,0.0,0.0,0.0,0.0,0.0,0.0,0.0,0.0,0.0,0.0,0.0,0.0,0.0,0.0,0.0,0.0,0.0,0.0,0.0,0.0,0.0,0.0,0.0,0.0,0.0,0.0,0.0,0.0,0.0,0.0,0.0,0.0,0.0,0.0,0.0,0.0,0.0,0.0,0.0,0.0,0.0,0.0,0.0,0.0,0.0,0.0,0.0,0.0,0.0,0.0,0.0,0.0,0.0,0.0,0.0,0.0,0.0,0.0,0.0,0.0,0.0,0.0,0.0,0.0,0.0,0.0,0.0,0.0,0.0,0.0,0.0,0.0,0.0,0.0,0.0,0.0,0.0,0.0,0.0,0.0,0.0,0.0,0.0,0.0,0.0,0.0,0.0,0.0,0.0,0.0,0.0,0.0,0.0,0.0,0.0,0.0,0.0,0.0,0.0,0.0,0.0,0.0,0.0,0.0,0.0,0.0,0.0,0.0,0.0,0.0,0.0,0.0,0.0,0.0,0.0,0.0,0.0,0.0,0.0,0.0,0.0,0.0,0.0,0.0,0.0,0.0,0.0,0.0,0.0,0.0,0.0,0.0,0.0,0.0,0.0,0.0,0.0,0.0,0.0,0.0,0.0,0.0,0.0,0.0,0.0,0.0,0.0,0.0,0.0,0.0,0.0,0.0,0.0,0.0,0.0,0.0,0.0,0.0,0.0,0.0,0.0,0.0,0.0,0.0,0.0,0.0,0.0,0.0,0.0,0.0,0.0,0.0,0.0,0.0,0.0,0.0,0.0,0.0,0.0,0.0,0.0,0.0,0.0,0.0,0.0,0.0,0.0,0.0,0.0,0.0,0.0,0.0,0.0,0.0,0.0,0.0,0.0,0.0,0.0,0.0,0.0,0.0,0.0,0.0,0.0,0.0,0.0,0.0,0.0,0.0,0.0,0.0,0.0,0.0,0.0,0.0,0.0,0.0,0.0,0.0,0.0,0.0,0.0,0.0,0.0,0.0,0.0,0.0,0.0,0.0,0.0,0.0,0.0,0.0,0.0,0.0,0.0,0.0,0.0,0.0,0.0,0.0,0.0,0.0,0.0,0.0,0.0,0.0,0.0,0.0,0.0,0.0,0.0,0.0,0.0,0.0,0.0,0.0,0.0,0.0,0.0,0.0,0.0,0.0,0.0,0.0,0.0,0.0,0.0,0.0,0.0,0.0,0.0,0.0,0.0,0.0,0.0,0.0,0.0,0.0,0.0,0.0,0.0,0.0,0.0,0.0,0.0,0.0,0.0,0.0,0.0,0.0,0.0,0.0,0.0,0.0,0.0,0.0,0.0,0.0,0.0,0.0,0.0,0.0,0.0,0.0,0.0,0.0,0.0,0.0,0.0,0.0,0.0,0.0,0.0,0.0,0.0,0.0,0.0,0.0,0.0,0.0,0.0,0.0,0.0,0.0,0.0,0.0,0.0,0.0,0.0,0.0,0.0,0.0,0.0,0.0,0.0,0.0,0.0,0.0,0.0,0.0,0.0,0.0,0.0,0.0,0.0,0.0,0.0,0.0,0.0,0.0,0.0,0.0,0.0,0.0,0.0,0.0,0.0,0.0,0.0,0.0,0.0,0.0,0.0,0.0,0.0,0.0,0.0,0.0,0.0,0.0,0.0,0.0,0.0,0.0,0.0,0.0,0.0,0.0,0.0,0.0,0.0,0.0,0.0,0.0,0.0,0.0,0.0,0.0,0.0,0.0,0.0,0.0,0.0,0.0,0.0,0.0,0.0,0.0,0.0,0.0,0.0,0.0,0.0,0.0,0.0,0.0,0.0,0.0,0.0,0.0,0.0,0.0,0.0,0.0,0.0,0.0,0.0,0.0,0.0,0.0,0.0,0.0,0.0,0.0,0.0,0.0,0.0,0.0,0.0,0.0,0.0,0.0,0.0,0.0,0.0,0.0,0.0,0.0,0.0,0.0,0.0,0.0,0.0,0.0,0.0,0.0,0.0,0.0,0.0,0.0,0.0,0.0,0.0,0.0,0.0,0.0,0.0,0.0,0.0,0.0,0.0,0.0,0.0,0.0,0.0,0.0,0.0,0.0,0.0,0.0,0.0,0.0,0.0,0.0,0.0,0.0,0.0,0.0,0.0,0.0,0.0,0.0,0.0,0.0,0.0,0.0,0.0,0.0,0.0,0.0,0.0,0.0,0.0,0.0,0.0,0.0,0.0,0.0,0.0,0.0,0.0,0.0,0.0,0.0,0.0,0.0,0.0,0.0,0.0,0.0,0.0,0.0,0.0,0.0,0.0,0.0,0.0,0.0,0.0,0.0,0.0,0.0,0.0,0.0,0.0,0.0,0.0,0.0,0.0,0.0,0.0,0.0,0.0,0.0,0.0,0.0,0.0,0.0,0.0,0.0,0.0,0.0,0.0,0.0,0.0,0.0,0.0,0.0,0.0,0.0,0.0,0.0,0.0,0.0,0.0,0.0,0.0,0.0,0.0,0.0,0.0,0.0,0.0,0.0,0.0,0.0,0.0,0.0,0.0,0.0,0.0,0.0,0.0,0.0,0.0,0.0,0.0,0.0,0.0,0.0,0.0,0.0,0.0,0.0,0.0,0.0,0.0,0.0,0.0,0.0,0.0,0.0,0.0,0.0,0.0,0.0,0.0,0.0,0.0,0.0,0.0,0.0,0.0,0.0,0.0,0.0,0.0,0.0,0.0,0.0,0.0,0.0,0.0,0.0,0.0,0.0,0.0,0.0,0.0,0.0,0.0,0.0,0.0,0.0,0.0,0.0,0.0,0.0,0.0,0.0,0.0,0.0,0.0,0.0,0.0,0.0,0.0,0.0,0.0,0.0,0.0,0.0,0.0,0.0,0.0,0.0,0.0,0.0,0.0,0.0,0.0,0.0,0.0,0.0,0.0,0.0,0.0,0.0,0.0,0.0,0.0,0.0,0.0,0.0,0.0,0.0,0.0,0.0,0.0,0.0,0.0,0.0,0.0,0.0,0.0,0.0,0.0,0.0,0.0,0.0,0.0,0.0,0.0,0.0,0.0,0.0,0.0,0.0,0.0,0.0,0.0,0.0,0.0,0.0,0.0,0.0,0.0,0.0,0.0,0.0,0.0,0.0,0.0,0.0,0.0,0.0,0.0,0.0,0.0,0.0,0.0,0.0,0.0,0.0,0.0,0.0,0.0,0.0,0.0,0.0,0.0,0.0,0.0,0.0,0.0,0.0,0.0,0.0,0.0,0.0,0.0,0.0,0.0,0.0,0.0,0.0,0.0,0.0,0.0,0.0,0.0,0.0,0.0,0.0,0.0,0.0,0.0,0.0,0.0,0.0,0.0,0.0,0.0,0.0,0.0,0.0,0.0,0.0,0.0,0.0,0.0,0.0,0.0,0.0,0.0,0.0,0.0,0.0,0.0,0.0,0.0,0.0,0.0,0.0,0.0,0.0,0.0,0.0,0.0,0.0,0.0,0.0,0.0,0.0,0.0,0.0,0.0,0.0,0.0,0.0,0.0,0.0,0.0,0.0,0.0,0.0,0.0,0.0,0.0,0.0,0.0,0.0,0.0,0.0,0.0,0.0,0.0,0.0,0.0,0.0,0.0,0.0,0.0,0.0,0.0,0.0,0.0,0.0,0.0,0.0,0.0,0.0,0.0,0.0,0.0,0.0,0.0,0.0,0.0,0.0,0.0,0.0,0.0,0.0,0.0,0.0,0.0,0.0,0.0,0.0,0.0,0.0,0.0,0.0,0.0,0.0,0.0,0.0,0.0,0.0,0.0,0.0,0.0,0.0,0.0,0.0,0.0,0.0,0.0,0.0,0.0,0.0,0.0,0.0,0.0,0.0,0.0,0.0,0.0,0.0,0.0,0.0,0.0,0.0,0.0,0.0,0.0,0.0,0.0,0.0,0.0,0.0,0.0,0.0,0.0,0.0,0.0,0.0,0.0,0.0,0.0,0.0,0.0,0.0,0.0,0.0,0.0,0.0,0.0,0.0,0.0,0.0,0.0,0.0,0.0,0.0,0.0,0.0,0.0,0.0,0.0,0.0,0.0,0.0,0.0,0.0,0.0,0.0,0.0,0.0,0.0,0.0,0.0,0.0,0.0,0.0,0.0,0.0,0.0,0.0,0.0,0.0,0.0,0.0,0.0,0.0,0.0,0.0,0.0,0.0,0.0,0.0,0.0,0.0,0.0,0.0,0.0,0.0,0.0,0.0,0.0,0.0,0.0,0.0,0.0,0.0,0.0,0.0,0.0,0.0,0.0,0.0,0.0,0.0,0.0,0.0,0.0,0.0,0.0,0.0,0.0,0.0,0.0,0.0,0.0,0.0,0.0,0.0,0.0,0.0,0.0,0.0,0.0,0.0,0.0,0.0,0.0,0.0,0.0,0.0,0.0,0.0,0.0,0.0,0.0,0.0,0.0,0.0,0.0,0.0,0.0,0.0,0.0,0.0,0.0,0.0,0.0,0.0,0.0,0.0,0.0,0.0,0.0,0.0,0.0,0.0,0.0,0.0,0.0,0.0,0.0,0.0,0.0,0.0,0.0,0.0,0.0,0.0,0.0,0.0,0.0,0.0,0.0,0.0,0.0,0.0,0.0,0.0,0.0,0.0,0.0,0.0,0.0,0.0,0.0,0.0,0.0,0.0,0.0,0.0,0.0,0.0,0.0,0.0,0.0,0.0,0.0,0.0,0.0,0.0,0.0,0.0,0.0,0.0,0.0,0.0,0.0,0.0,0.0,0.0,0.0,0.0,0.0,0.0,0.0,0.0,0.0,0.0,0.0,0.0,0.0,0.0,0.0,0.0,0.0,0.0,0.0,0.0,0.0,0.0,0.0,0.0,0.0,0.0,0.0,0.0,0.0,0.0,0.0,0.0,0.0,0.0,0.0,0.0,0.0,0.0,0.0,0.0,0.0,0.0,0.0,0.0,0.0,0.0,0.0,0.0,0.0,0.0,0.0,0.0,0.0,0.0,0.0,0.0,0.0,0.0,0.0,0.0,0.0,0.0,0.0,0.0,0.0,0.0,0.0,0.0,0.0,0.0,0.0,0.0,0.0,0.0,0.0,0.0,0.0,0.0,0.0,0.0,0.0,0.0,0.0,0.0,0.0,0.0,0.0,0.0,0.0,0.0,0.0,0.0,0.0,0.0,0.0,0.0,0.0,0.0,0.0,0.0,0.0,0.0,0.0,0.0,0.0,0.0,0.0,0.0,0.0,0.0,0.0,0.0,0.0,0.0,0.0,0.0,0.0,0.0,0.0,0.0,0.0,0.0,0.0,0.0,0.0,0.0,0.0,0.0,0.0,0.0,0.0,0.0,0.0,0.0,0.0,0.0,0.0,0.0,0.0,0.0,0.0,0.0,0.0,0.0,0.0,0.0,0.0,0.0,0.0,0.0,0.0,0.0,0.0,0.0,0.0,0.0,0.0,0.0,0.0,0.0,0.0,0.0,0.0,0.0,0.0,0.0,0.0,0.0,0.0,0.0,0.0,0.0,0.0,0.0,0.0,0.0,0.0,0.0,0.0,0.0,0.0,0.0,0.0,0.0,0.0,0.0,0.0,0.0,0.0,0.0,0.0,0.0,0.0,0.0,0.0,0.0,0.0,0.0,0.0,0.0,0.0,0.0,0.0,0.0,0.0,0.0,0.0,0.0,0.0,0.0,0.0,-0.6598,0.0,0.0,0.0,0.0,0.0,0.0,0.0,0.0,0.0,0.0,0.0,0.0,0.0,0.0,0.0,0.0,0.0,0.0,0.0,0.0,0.0,0.0,0.0,0.0,0.0,0.0,0.0,0.0,0.0,0.0,0.0,0.0,0.0,0.0,0.0,0.0,0.0,0.0,0.0,0.0,0.0,0.0,0.0,0.0,0.0,0.0,0.0,0.0,0.0,0.0,0.0,0.0,0.0,0.0,0.0,0.0,0.0,0.0,0.0,0.0,0.0,0.0,0.0,0.0,0.0,0.0,0.0,0.0,0.0,0.0,0.0,0.0,0.0,0.0,0.0,0.0,0.0,0.0,0.0,0.0,0.0,0.0,0.0,0.0,0.0,0.0,0.0,0.0,0.0,0.0,0.0,0.0,0.0,0.0,0.0,0.0,0.0,0.0,0.0,0.0,0.0,0.0,0.0,0.0,0.0,0.0,0.0,0.0,0.0,0.0,0.0,0.0,0.0,0.0,0.0,0.0,-0.6125,0.0,0.0,0.0,0.0,0.0,0.0,0.0,0.0,0.0,0.0,0.0,0.0,0.0,0.0,0.0,0.0,0.0,0.0,0.0,0.0,0.0,0.0,0.0,0.0,0.0,0.0,0.0,0.0,0.0,0.0,0.0,0.0,0.0,0.0,0.0,0.0,0.0,0.0,0.0,0.0,0.0,0.0,0.0,0.0,0.0,0.0,0.0,0.0,0.0,0.0,0.0,0.0,0.0,0.0,0.0,0.0,0.0,0.0,0.0,0.0,0.0,0.0,0.0,0.0,0.0,0.0,0.0,0.0,0.0,0.0,0.0,0.0,0.0,0.0,0.0,0.0,0.0,0.0,0.0,0.0,0.0,0.0,0.0,0.0,0.0,0.0,0.0,0.0,0.0,0.0,0.0,0.0,0.0,0.0,0.0,0.0,0.0,0.0,0.0,0.0,0.0,0.0,0.0,0.0,0.0,0.0,0.0,0.0,-0.4368,-0.4453,-0.4453,-0.4481,-0.4491,-0.4505,-0.4611,-0.4647,-0.4663,-0.4816,0.0,0.0,0.0,0.0,0.0,0.0,0.0,0.0,0.0,0.0,0.0,0.0,0.0,0.0,0.0,0.0,0.0,0.0,0.0,0.0,0.0,0.0,0.0,0.0,0.0,0.0,0.0,0.0,0.0,0.0,0.0,0.0,0.0,0.0,0.0,0.0,0.0,0.0,0.1087,0.0335,0.0,0.0,0.0,0.0,0.0,0.0,0.0,0.0,0.0,0.0,0.0,0.0,0.0,0.0,0.0,0.0,0.0,0.0,0.0,0.0,0.0,0.0,0.0,0.0,0.0,0.0,0.0,0.0,0.0,0.0,0.0,0.0,0.0,0.0,0.0,0.0,0.0,0.0,0.0,0.0,0.0,0.0,0.0,0.0,0.0,0.0,-0.126,-0.3972,0.0,0.0,0.0,0.0,0.0,0.0,0.0,0.0,0.0,0.0,0.0,0.0,0.0,-0.4197,-0.4197,-0.4092,-0.4092,-0.4197,-0.4214,-0.425,-0.4254,-0.4433,-0.4491,-0.4463,-0.3856,0.0,-0.4532,-0.4657,0.0,0.0,0.0,0.0,0.0,0.0,0.0,0.0,0.0,0.0,0.0,0.0,0.0,0.0,0.0,0.0,0.0,0.0,0.0,0.0,0.0,0.0,0.0,0.0,0.0,0.0,0.0,0.0,0.0,0.0,0.0,0.0,0.0,0.0,0.0,0.0,0.0892,0.0885,0.0465,0.0162,0.0,0.003,0.0514,0.0465,0.0,0.0,0.0,0.0,0.0,0.0,0.0,0.0,0.0,0.0,0.0,0.0,0.0,0.0,0.0,0.0,0.0,0.0,0.0,0.0,0.0,0.0,0.0,0.0,0.0,0.0,0.0,0.0,0.0,0.0,0.0,0.0,0.0,0.0,0.0,0.0,0.0,0.0,0.0,0.0,0.0,0.0,-0.0492,-0.1824,-0.3477,-0.4497,0.0,0.0,0.0,0.0,0.0,0.0,0.0,0.0,0.0,-0.4372,-0.4264,-0.4197,-0.4197,-0.413,-0.3946,-0.3585,-0.3705,-0.352,-0.3086,-0.3157,-0.3204,-0.3176,-0.2871,-0.2899,-0.3236,-0.3711,-0.4272,-0.4796,0.0,0.0,0.0,0.0,-0.51,-0.5076,0.0,0.0,0.0,0.0,0.0,0.0,0.0,0.0,0.0,0.0,0.0,0.0,0.0,0.0,0.0,0.0,0.0,0.0,0.0,0.0,0.0,0.0,0.0,0.0,0.0,0.0,0.0,0.0,0.0561,0.0551,0.0,0.0,0.0,0.0031,0.0896,0.0944,0.0357,0.0546,0.0602,0.0,0.0,0.0,0.0,0.0,0.0,0.0,0.0,0.0,0.0,0.0,0.0,0.0,0.0,0.0,0.0,0.0,0.0,0.0,0.0,0.0,0.0,0.0,0.0,0.0,0.0,0.0,0.0,0.0,0.0,0.0,0.0,0.0,0.0,0.0,0.0,0.0,0.0,-0.0293,-0.0213,-0.0026,-0.1987,-0.3342,0.0,0.0,0.0,0.0,0.0,0.0,-0.3901,-0.4039,-0.4082,-0.4048,-0.4141,-0.4197,-0.4197,-0.401,-0.3679,-0.3171,-0.3115,-0.2788,-0.2202,-0.2202,-0.2202,-0.2202,-0.2202,-0.2313,-0.2536,-0.3093,-0.3753,-0.4426,-0.4632,-0.4782,-0.4897,-0.4961,-0.5012,-0.5026,0.0,0.0,0.0,0.0,0.0,0.0,0.0,0.0,0.0,0.0,0.0,0.0,0.0,0.0,0.0,0.0,0.0,0.0,0.0,0.0,0.0,0.0,0.0,0.0,0.0,0.0,0.0,0.0,0.0028,0.0029,0.0,0.0,0.0,0.0032,0.0905,0.1271,0.1297,0.2042,0.2279,0.2014,0.0,0.0,0.0,0.0,0.0,0.0,0.0,0.0,0.0,0.0,0.0,0.0,0.0,0.0,0.0,0.0,0.0,0.0,0.0,0.0,0.0,0.0,0.0,0.0,0.0,0.0,0.0,0.0,0.0,0.0,0.0,0.0,0.0,0.0,0.0,0.0,0.0,0.0,0.0,-0.0072,-0.0128,0.0,0.0,0.0,0.0,-0.0445,-0.0222,-0.0835,-0.223,-0.2785,-0.2991,-0.2792,-0.3717,-0.4197,-0.4197,-0.3503,-0.3235,-0.3365,-0.2619,-0.2232,-0.2202,-0.2202,-0.2202,-0.2202,-0.2202,-0.2591,-0.3259,-0.3345,-0.3498,-0.3722,-0.4426,-0.4782,-0.487,-0.4765,-0.4806,-0.4877,0.0,0.0,0.0,0.0,0.0,0.0,0.0,0.0,0.0,0.0,0.0,0.0,0.0,0.0,0.0,0.0,0.0,0.0,0.0,0.0,0.0,0.0,0.0,0.0,0.0,0.0,0.0473,0.0,0.0,0.0,0.0,0.0,0.0,0.0033,0.0917,0.1694,0.2359,0.2554,0.2526,0.2325,0.1548,0.1696,0.0,0.0,0.0,0.0,0.0,0.0,0.0,0.0,0.0,0.0,0.0,0.0,0.0,0.0,0.0,0.0,0.0,0.0,0.0,0.0,0.0,0.0,0.0,0.0,0.0,0.0,0.0,0.0,0.0,0.0,0.0,0.0,0.0,0.0,0.0,0.0,0.0,-0.0027,0.0,0.0,0.0,-0.0983,-0.1562,-0.1417,-0.1724,-0.2449,-0.3622,-0.3873,-0.3935,-0.3863,-0.3754,-0.392,-0.4385,-0.315,-0.2563,-0.2621,-0.187,-0.1257,-0.0783,-0.0783,-0.0783,-0.0811,-0.1284,-0.1647,-0.1952,-0.2926,-0.3677,-0.4201,-0.4457,-0.4285,-0.3878,-0.3974,-0.3727,-0.3348,0.0,0.0,0.0,0.0,0.0,0.0,0.0,0.0,0.0,0.0,0.0,0.0,0.0,0.0,0.0,0.0,0.0,0.0,0.0,0.0,0.0,0.0,0.0,0.0,0.0,0.0844,0.0489,0.0,0.0,0.0,0.0,0.0,0.0,0.0034,0.0915,0.1888,0.2918,0.313,0.3268,0.3311,0.2427,0.2596,0.3161,0.0,0.0,0.0,0.0,0.0,0.0,0.0,0.0,0.0,0.0,0.0,0.0,0.0,0.0,0.0,0.0,0.0,0.0,0.0,0.0,0.0,0.0,0.0,0.0,0.0,0.0,0.0,0.0,0.0,0.0,0.0,0.0,0.0,0.0,0.0,-0.028,-0.0029,0.0,0.0,0.0,-0.0556,-0.1241,-0.2016,-0.2709,-0.3316,-0.3801,-0.3984,-0.4098,-0.4125,-0.3652,-0.3624,-0.4125,-0.2593,-0.184,-0.1813,-0.109,-0.0476,0.0,-0.0252,-0.0364,-0.042,-0.1452,-0.173,-0.1564,-0.2822,-0.3485,-0.3741,-0.3998,-0.3616,-0.2953,-0.3077,-0.2849,-0.2447,0.0,0.0,0.0,0.0,0.0,0.0,0.0,0.0,0.0,0.0,0.0,0.0,0.0,0.0,0.0,0.0,0.0,0.0,0.0,0.0659,0.0,0.0,0.0,0.0,0.1057,0.0353,0.0,0.0,0.0,0.0,0.0,0.0,0.0,0.0034,0.09,0.1853,0.2908,0.3737,0.4479,0.4951,0.3988,0.4221,0.4807,0.0,0.0,0.0,0.0,0.0,0.0,0.0,0.0,0.0,0.0,0.0,0.0,0.0,0.0,0.0,0.0,0.0,0.0,0.0,0.0,0.0,0.0,0.0,0.0,0.0,0.0,0.0,0.0,0.0,0.0,0.0,0.0,0.0,-0.0985,-0.1072,-0.0794,-0.0089,-0.003,-0.0031,-0.0031,-0.1666,-0.2467,-0.191,-0.2753,-0.3087,-0.2613,-0.3074,-0.3355,-0.3411,-0.3411,-0.3383,-0.3355,-0.1874,-0.1091,-0.1093,-0.0365,-0.0028,-0.0056,-0.0786,-0.1093,-0.1205,-0.2713,-0.2907,-0.2216,-0.304,-0.2876,-0.2234,-0.2993,-0.2811,-0.2153,-0.2153,-0.2259,-0.2295,0.0,0.0,0.0,0.0,0.0,0.0,0.0,0.0,0.0,0.0,0.0,0.0,0.0,0.0,0.0,0.0,0.0,0.0,0.0,0.0,0.0,0.0,0.0,0.0,0.0324,0.009,0.0,0.0,0.0,0.0,0.0,0.0,0.0,0.0,0.0251,0.0945,0.1958,0.2044,0.2646,0.3553,0.3881,0.4457,0.4873,0.0,0.0,0.0,0.0,0.0,0.0,0.0,0.0,0.0,0.0,0.0,0.0,0.0,0.0,0.0,0.0,0.0,0.0,0.0,0.0,0.0,0.0,0.0,0.0,0.0,0.0,0.0,0.0,0.0,0.0,0.0,0.0,-0.0258,-0.1,-0.0639,-0.0239,-0.0031,-0.0559,-0.0932,-0.0953,-0.1996,-0.2862,-0.3228,-0.3509,-0.3824,-0.4219,-0.4392,-0.4189,-0.3562,-0.3654,-0.3324,-0.2544,-0.167,-0.1202,-0.108,-0.0352,-0.0323,-0.096,-0.114,-0.123,-0.129,-0.2305,-0.2247,-0.1469,-0.2206,-0.209,-0.1472,-0.2204,-0.204,-0.1399,-0.1399,-0.1102,-0.0666,0.0,0.0,0.0,0.0,0.0,0.0,0.0,0.0,0.0,0.0,0.0,0.0,0.0,0.0,0.0,0.0,0.0,0.0,0.0,0.0,0.0,0.0,0.0,0.0447,0.0,0.0,0.0,0.0,0.0,0.0,0.0,0.0,0.0,0.0,0.0,0.0597,0.1586,0.1466,0.2042,0.3006,0.3476,0.3856,0.4063,0.2983,0.3232,0.4084,0.3501,0.3042,0.2646,0.2543,0.0,0.0,0.0,0.0,0.0,0.0,0.0,0.0,0.0,0.0,0.0,0.0,0.0,0.0,0.0,0.0,0.0,0.0,0.0,0.0,0.0,0.0,0.0,0.0,-0.0212,-0.0155,-0.057,-0.028,0.0,0.0,-0.0856,-0.1408,-0.1298,-0.2525,-0.3489,-0.3861,-0.4159,-0.4538,-0.4975,-0.4921,-0.4485,-0.3625,-0.3381,-0.295,-0.2335,-0.1269,-0.1089,-0.1752,-0.0938,-0.0817,-0.1323,-0.1661,-0.16,0.0,-0.2029,-0.1875,-0.114,-0.1559,-0.1298,0.0,0.0,0.0,0.0,0.0,-0.0365,0.0,0.0,0.0,0.0,0.0,0.0,0.0,0.0,0.0,0.0,0.0,0.0,0.0,0.0,0.0,0.0,0.0,0.0062,0.0119,0.0,0.0,0.0,0.0948,0.0358,0.0,0.0,0.0,0.0,0.0,0.0,0.0,0.0,0.0,0.0,0.0,0.0,0.0532,0.1406,0.1437,0.1918,0.273,0.2636,0.2681,0.2877,0.2738,0.2798,0.3001,0.2863,0.2755,0.2644,0.2413,0.0,0.0,0.0,0.0,0.0,0.0,0.0,0.0,0.0,0.0,0.0,0.0,0.0,0.0,0.0,0.0,0.0,0.0,0.0,0.0,0.0,0.0,0.0,0.0,-0.0422,0.0,0.0,0.0,0.0,0.0,-0.102,-0.1685,-0.1508,-0.3223,-0.433,-0.4177,-0.4795,-0.5143,-0.5127,0.0,0.0,0.0,0.0,-0.2744,-0.2559,-0.1188,-0.119,-0.2573,-0.1721,-0.1315,-0.1319,-0.2033,-0.1908,-0.1162,-0.1805,-0.1683,-0.0975,-0.0966,-0.0586,-0.0065,-0.0713,-0.0592,0.0,0.0,0.0,0.0,0.0,0.0,0.0,0.0,0.0,0.0,0.0,0.0,0.0,0.0,0.0,0.0,0.0,0.0,0.0,0.0,0.0539,0.0881,0.0,0.0,0.0687,0.0221,0.0065,0.0,0.0,0.0,0.0,0.0,0.0,0.0,0.0,0.0,0.0,0.0,0.0,0.0117,0.0312,0.0313,0.0432,0.0588,0.0585,0.1443,0.2734,0.2577,0.246,0.2368,0.2341,0.1947,0.1436,0.1393,0.1454,0.1384,0.0487,0.0,0.0,0.0,0.0,0.0,0.0,0.0,0.0,0.0,0.0,0.0,0.0,0.0,0.0,0.0,0.0,0.0,0.0,0.0,0.0,-0.0199,-0.0102,0.0,0.0,0.0,0.0,0.0,-0.1551,-0.263,-0.2594,-0.4354,-0.5451,-0.5311,-0.5412,-0.5447,-0.5358,-0.5324,-0.4879,-0.3951,-0.4618,-0.4295,-0.2829,-0.3377,-0.3034,-0.1798,0.0,0.0,-0.1304,-0.1447,-0.1416,-0.1266,-0.1412,-0.0982,-0.0212,-0.0209,-0.0138,0.0,-0.0169,-0.0134,0.0,0.0,0.0,0.0,0.0,0.0,0.0,0.0,0.0,0.0,0.0,0.0,0.0,0.0,0.0,0.0,0.0,0.0,0.0,0.0,0.0329,0.0,0.0,0.0562,0.0372,0.0,0.0,0.0,0.0,0.0,0.0,0.0,0.0,0.0,0.0,0.0,0.0,0.0,0.0,0.0,0.0,0.0,0.0,0.0,0.0,0.0561,0.1405,0.1878,0.2001,0.1958,0.241,0.23,0.199,0.1833,0.1657,0.1348,0.0727,0.068,0.0704,0.0,0.0,0.0,0.0,0.0,0.0,0.0,0.0,0.0,0.0,0.0,0.0,0.0,0.0,-0.0645,0.0,0.0,0.0,0.0,0.0,0.0,0.0,0.0,0.0,0.0,-0.1792,-0.2962,-0.2923,-0.4732,-0.5854,-0.5705,-0.5694,-0.563,-0.5518,-0.5576,-0.513,-0.4136,-0.4702,-0.4624,-0.3697,-0.3274,-0.2995,-0.2886,-0.1912,-0.141,-0.1296,-0.1298,-0.1077,-0.0654,-0.0637,-0.0391,0.0,0.0,0.0,0.0,0.0,0.0,0.0,0.0,0.0,0.0,0.0,0.0,0.0,0.0,0.0,0.0,0.0,0.0,0.0,0.0,0.0,0.0,0.0,0.0,0.0057,0.0,0.0,0.0,0.0,0.0214,0.016,0.0,0.0,0.0,0.0,0.0,0.0,0.0,0.0,0.0,0.0,0.0,0.0,0.0,0.0,0.0,0.0,0.0,0.0,0.0,0.0,0.0,0.0084,0.0965,0.1279,0.1372,0.2102,0.2322,0.2298,0.2097,0.1707,0.1308,0.098,0.0608,0.0268,0.0066,0.0,0.0,0.0,0.0,0.0,0.0,0.0,0.0,0.0,0.0,-0.0319,-0.1401,-0.0757,-0.0167,-0.0766,-0.0389,0.0,0.0,0.0,0.0,0.0,0.0,-0.0079,-0.0277,-0.1969,-0.3159,-0.3288,-0.4984,-0.601,-0.5857,-0.5844,-0.5783,-0.564,-0.5739,-0.5386,-0.4536,-0.4742,-0.4744,-0.4486,-0.3013,-0.272,-0.3659,-0.2114,-0.1248,-0.1041,-0.1048,-0.0667,0.0,0.0,0.0,0.0,0.0,0.0,0.0,0.0,0.0,0.0,0.0,0.0,0.0,0.0,0.0,0.0,0.0,0.0,0.0,0.0,0.0,0.0,0.0,0.0,0.0,0.0,0.0,0.0,0.0,0.0,0.0,0.0976,0.0977,0.0698,0.0036,0.0,0.0,0.0,0.0,0.0,0.0,0.0,0.0,0.0,0.0,0.0,0.0,0.0,0.0,0.0,0.0,0.0,0.0,0.0,0.0,0.0,0.0124,0.0162,0.0202,0.03,0.0324,0.0316,0.0273,0.0842,0.1381,0.0416,0.072,0.1241,0.0268,0.0,0.0,0.0,0.0,0.0,0.0,0.0,-0.0981,0.0,0.0,-0.0381,-0.1767,-0.0954,-0.0036,-0.0106,-0.0073,0.0,0.0,0.0,0.0,0.0,0.0,-0.0365,-0.1294,-0.2412,-0.353,-0.4569,-0.5641,-0.6169,-0.5979,-0.5966,-0.5902,-0.5786,-0.5793,-0.5757,-0.5633,-0.5945,-0.5582,-0.4493,-0.4527,-0.3635,-0.1905,-0.1654,-0.1076,-0.0125,-0.0159,-0.0079,0.0,0.0,0.0,0.0,0.0,0.0,0.0,0.0,0.0,0.0,0.0,0.0,0.0,0.0,0.0,0.0,0.0,0.0,0.0,0.0,0.0,0.0,0.0,0.0,0.0,0.0,0.0,0.0,0.0,0.0,0.0,0.046,0.0451,0.0307,0.0,0.0,0.0,0.0,0.0,0.0,0.0,0.0,0.0,0.0,0.0,0.0,0.0,0.0,0.0,0.0,0.0,0.0,0.0,0.0,0.0,0.0,0.0,0.0,0.0,0.0,0.0,0.0,0.0,0.03,0.0594,0.0136,0.0303,0.0589,0.0129,0.0,0.0,0.0,0.0,0.0,0.0,0.0,-0.0449,-0.2214,-0.1284,-0.0184,-0.0747,-0.0411,0.0,0.0,0.0,0.0,0.0,0.0,0.0,0.0,0.0,-0.0653,-0.2394,-0.2878,-0.3528,-0.4673,-0.5771,-0.6361,-0.6176,-0.6166,-0.6098,-0.5942,-0.6098,-0.5841,-0.5075,-0.5323,-0.4925,-0.3701,-0.3235,-0.2531,-0.1581,-0.0972,-0.0423,0.0,0.0,0.0,0.0,0.0,0.0,0.0,0.0,0.0,0.0,0.0,0.0,0.0,0.0,0.0,0.0,0.0,0.0,0.0,0.0,0.0,0.0,0.0,0.0,0.0,0.0,0.0,0.0,0.0,0.0,0.0,0.0,0.0,0.0,0.0,0.0,0.0,0.0,0.0,0.0,0.0,0.0,0.0,0.0,0.0,0.0,0.0,0.0,0.0,0.0,0.0,0.0,0.0,0.0,0.0,0.0,0.0,0.0,0.0,0.0,0.0,0.0,0.0,0.0,0.0,0.0,0.0,0.0,0.0,0.0,0.0,0.0,0.0,0.0,0.0,0.0,0.0,0.0,0.0,-0.0112,-0.0499,-0.027,-0.0078,-0.0395,-0.0193,0.0,0.0,0.0,0.0,0.0,0.0,0.0,0.0,-0.025,-0.1154,-0.301,-0.3438,-0.4012,-0.5043,-0.5913,-0.6412,-0.6306,-0.6337,-0.631,-0.6156,-0.6076,-0.5635,-0.4622,-0.4515,-0.3888,-0.2706,-0.2,-0.1507,-0.1138,-0.0388,0.0,0.0,0.0,0.0,0.0,0.0,0.0,0.0,0.0,0.0,0.0,0.0,0.0,0.0,0.0,0.0,0.0,0.0,0.0,0.0,0.0,0.0,0.0,0.0,0.0,0.0,0.0,0.0,0.0,0.0,0.0,0.0,0.0,0.0,0.0,0.0,0.0,0.0,0.0,0.0,0.0,0.0,0.0,0.0,0.0,0.0,0.0,0.0,0.0,0.0,0.0,0.0,0.0,0.0,0.0,0.0,0.0,0.0,0.0,0.0,0.0,0.0,0.0,0.0,0.0,0.0,0.0,0.0,0.0,0.0,0.0,0.0,0.0,0.0,0.0,0.0,0.0,0.0,0.0,0.0,-0.0355,-0.1734,-0.0973,-0.0284,-0.1338,-0.0743,0.0,0.0,0.0,0.0,0.0,0.0,0.0,0.0,-0.0893,-0.1926,-0.2972,-0.4142,-0.5212,0.0,-0.6303,-0.6306,-0.63,-0.6426,-0.6504,-0.6501,-0.5495,-0.4936,-0.4892,-0.3891,-0.2812,-0.1645,-0.1724,-0.1208,-0.0045,0.0,0.0,0.0,0.0,0.0,0.0,0.0,0.0,0.0,0.0,0.0,0.0,0.0,0.0,0.0,0.0,0.0,0.0,0.0,0.0,0.0,0.0,0.0,0.0,0.0,0.0,0.0,0.0,0.0,0.0,0.0,0.0,0.0,0.0,0.0,0.0,0.0,0.0,0.0,0.0,0.0,0.0,0.0,0.0,0.0,0.0,0.0,0.0,0.0,0.0,0.0,0.0,0.0,0.0,0.0,0.0,0.0,0.0,0.0,0.0,0.0,0.0,0.0,0.0,0.0,0.0,0.0,0.0,0.0,0.0,0.0,0.0,0.0,0.0,0.0,0.0,0.0,0.0,0.0,0.0,0.0,-0.0125,-0.0604,-0.034,-0.0083,-0.0449,-0.0271,0.0,0.0,0.0,0.0,0.0,0.0,0.0,0.0,-0.0305,-0.1195,-0.2895,-0.3447,0.0,0.0,0.0,0.0,-0.6306,-0.6433,-0.6147,-0.5339,-0.5116,-0.4321,-0.274,-0.245,-0.1739,-0.0543,-0.0585,-0.0407,0.0,0.0,0.0,0.0,0.0,0.0,0.0,0.0,0.0,0.0,0.0,0.0,0.0,0.0,0.0,0.0,0.0,0.0,0.0,0.0,0.0,0.0,0.0,0.0,0.0,0.0,0.0,0.0,0.0,0.0,0.0,0.0,0.0,0.0,0.0,0.0,0.0,0.0,0.0,0.0,0.0,0.0,0.0,0.0,0.0,0.0,0.0,0.0,0.0,0.0,0.0,0.0,0.0,0.0,0.0,0.0,0.0,0.0,0.0,0.0,0.0,0.0,0.0,0.0,0.0,0.0,0.0,0.0,0.0,0.0,0.0,0.0,0.0,0.0,0.0,0.0,0.0,0.0,0.0,0.0,0.0,0.0,0.0,0.0,0.0,0.0,0.0,0.0,0.0,0.0,-0.0208,-0.0318,-0.0038,-0.0234,-0.0285,-0.0044,-0.0347,-0.107,-0.2419,-0.3281,0.0,0.0,0.0,0.0,-0.6385,-0.6152,-0.5676,-0.4891,-0.4248,-0.3238,-0.1709,-0.1334,-0.077,0.0,0.0,0.0,0.0,0.0,0.0,0.0,0.0,0.0,0.0,0.0,0.0,0.0,0.0,0.0,0.0,0.0,0.0,0.0,0.0,0.0,0.0,0.0,0.0,0.0,0.0,0.0,0.0,0.0,0.0,0.0,0.0,0.0,0.0,0.0,0.0,0.0,0.0,0.0,0.0,0.0,0.0,0.0,0.0,0.0,0.0,0.0,0.0,0.0,0.0,0.0,0.0,0.0,0.0,0.0,0.0,0.0,0.0,0.0,0.0,0.0,0.0,0.0,0.0,0.0,0.0,0.0,0.0,0.0,0.0,0.0,0.0,0.0,0.0,0.0,0.0,0.0,0.0,0.0,0.0,0.0,0.0,0.0,0.0,0.0,0.0,0.0,0.0,0.0,0.0,0.0,0.0,0.0,0.0,-0.0821,-0.0109,-0.0596,-0.0816,-0.0084,-0.0886,-0.1529,0.0,0.0,0.0,0.0,0.0,0.0,-0.6435,0.0,-0.5064,-0.4935,-0.2924,-0.175,-0.1704,-0.0585,0.0,0.0,0.0,0.0,0.0,0.0,0.0,0.0,0.0,0.0,0.0,0.0,0.0,0.0,0.0,0.0,0.0,0.0,0.0,0.0,0.0,0.0,0.0,0.0,0.0,0.0,0.0,0.0,0.0,0.0,0.0,0.0,0.0,0.0,0.0,0.0,0.0,0.0,0.0,0.0,0.0,0.0,0.0,0.0,0.0,0.0,0.0,0.0,0.0,0.0,0.0,0.0,0.0,0.0,0.0,0.0,0.0,0.0,0.0,0.0,0.0,0.0,0.0,0.0,0.0,0.0,0.0,0.0,0.0,0.0,0.0,0.0,0.0,0.0,0.0,0.0,0.0,0.0,0.0,0.0,0.0,0.0,0.0,0.0,0.0,0.0,0.0,0.0,0.0,0.0,0.0,0.0,0.0,0.0,0.0,0.0,-0.0037,-0.0153,0.0,-0.0045,-0.0226,0.0,0.0,0.0,-0.4176,-0.4815,-0.5388,0.0,0.0,-0.5236,-0.4339,-0.2571,-0.2067,-0.1396,-0.0505,-0.014,0.0,0.0,0.0,0.0,0.0,0.0,0.0,0.0,0.0,0.0,0.0,0.0,0.0,0.0,0.0,0.0,0.0,0.0,0.0,0.0,0.0,0.0,0.0,0.0,0.0,0.0,0.0,0.0,0.0,0.0,0.0,0.0,0.0,0.0,0.0,0.0,0.0,0.0,0.0,0.0,0.0,0.0,0.0,0.0,0.0,0.0,0.0,0.0,0.0,0.0,0.0,0.0,0.0,0.0,0.0,0.0,0.0,0.0,0.0,0.0,0.0,0.0,0.0,0.0,0.0,0.0,0.0,0.0,0.0,0.0,0.0,0.0,0.0,0.0,0.0,0.0,0.0,0.0,0.0,0.0,0.0,0.0,0.0,0.0,0.0,0.0,0.0,0.0,0.0,0.0,0.0,0.0,0.0,0.0,0.0,0.0,0.0,0.0,0.0,-0.0044,0.0,-0.023,0.0,-0.201,0.0,-0.348,-0.4191,-0.4366,0.0,-0.3672,-0.3076,-0.1747,-0.127,-0.0711,0.0,0.0,0.0,0.0,0.0,0.0,0.0,0.0,0.0,0.0,0.0,0.0,0.0,0.0,0.0,0.0,0.0,0.0,0.0,0.0,0.0,0.0,0.0,0.0,0.0,0.0,0.0,0.0,0.0,0.0,0.0,0.0,0.0,0.0,0.0,0.0,0.0,0.0,0.0,0.0,0.0,0.0,0.0,0.0,0.0,0.0,0.0,0.0,0.0,0.0,0.0,0.0,0.0,0.0,0.0,0.0,0.0,0.0,0.0,0.0,0.0,0.0,0.0,0.0,0.0,0.0,0.0,0.0,0.0,0.0,0.0,0.0,0.0,0.0,0.0,0.0,0.0,0.0,0.0,0.0,0.0,0.0,0.0,0.0,0.0,0.0,0.0,0.0,0.0,0.0,0.0,0.0,0.0,0.0,0.0,0.0,0.0,-0.076,-0.0105,0.0,-0.072,-0.0084,0.0,0.0,0.0,-0.1102,-0.182,-0.1815,-0.2772,-0.2965,-0.1863,-0.1629,-0.1582,-0.1577,-0.0575,0.0,0.0,0.0,0.0,0.0,0.0,0.0,0.0,0.0,0.0,0.0,0.0,0.0,0.0,0.0,0.0,0.0,0.0,0.0,0.0,0.0,0.0,0.0,0.0,0.0,0.0,0.0,0.0,0.0,0.0,0.0,0.0,0.0,0.0,0.0,0.0,0.1637,0.0,0.0,0.0,0.0,0.0,0.0,0.0,0.0,0.0,0.0,0.0,0.0,0.0,0.0,0.0,0.0,0.0,0.0,0.0,0.0,0.0,0.0,0.0,0.0,0.0,0.0,0.0,0.0,0.0,0.0,0.0,0.0,0.0,0.0,0.0,0.0,0.0,0.0,0.0,0.0,0.0,0.0,0.0,0.0,0.0,0.0,0.0,0.0,0.0,0.0,0.0,0.0,0.0,0.0,0.0,0.0,0.0,0.0,0.0,0.0,-0.01,0.0,-0.0037,0.0,0.0,0.0,0.0,0.0,0.0,0.0,0.0,0.0,0.0,0.0,0.0,0.0,-0.0298,-0.0293,-0.0099,0.0,0.0,0.0,0.0,0.0,0.0,0.0,0.0,0.0,0.0,0.0,0.0,0.0,0.0,0.0,0.0,0.0,0.0,0.0,0.0,0.0,0.0,0.0,0.0,0.0,0.0,0.0,0.0,0.0,0.0,0.0,0.0,0.0,0.0,0.0,0.4391,0.3215,0.2492,0.0,0.0,0.0,0.0,0.0,0.0,0.0,0.0,0.0,0.0,0.0,0.0,0.0,0.0,0.0,0.0,0.0,0.0,0.0,0.0,0.0,0.0,0.0,0.0,0.0,0.0,0.0,0.0,0.0,0.0,0.0,0.0,0.0,0.0,0.0,0.0,0.0,0.0,0.0,0.0,0.0,0.0,0.0,0.0,0.0,0.0,0.0,0.0,0.0,0.0,0.0,0.0,0.0,0.0,0.0,0.0,0.0,0.0,0.0,0.0,0.0,0.0,0.0,0.0,0.0,0.0,0.0,0.0,0.0,0.0,0.0,0.0,0.0,0.0,0.0,0.0,0.0,0.0,0.0,0.0,0.0,0.0,0.0,0.0,0.0,0.0,0.0,0.0,0.0,0.0,0.0,0.0,0.0,0.0,0.0,0.0,0.0,0.0,0.0,0.0,0.0,0.0,0.0,0.0,0.0,0.0,0.0,0.0,0.0,0.0,0.0,0.5055,0.4836,0.5719,0.4698,0.4089,0.4495,0.3678,0.2975,0.0,0.0,0.0,0.0,0.0,0.0,0.0,0.0,0.0,0.0,0.0,0.0,0.0,0.0,0.0,0.0,0.0,0.0,0.0,0.0,0.0,0.0,0.0,0.0,0.0,0.0,0.0,0.0,0.0,0.0,0.0,0.0,0.0,0.0,0.0,0.0,0.0,0.0,0.0,0.0,0.0,0.0,0.0,0.0,0.0,0.0,0.0,0.0,0.0,0.0,0.0,0.0,0.0,0.0,0.0,0.0,0.0,0.0,0.0,0.0,0.0,0.0,0.0,0.0,0.0,0.0,0.0,0.0,0.0,0.0,0.0,0.0,0.0,0.0,0.0,0.0,0.0,0.0,0.0,0.0,0.0,0.0,0.0,0.0,0.0,0.0,0.0,0.0,0.0,0.0,0.0,0.0,0.0,0.0,0.0,0.0,0.0,0.0,0.0,0.0,0.0,0.0,0.0,0.0,0.0,0.0,0.0,0.0,0.5527,0.5582,0.5936,0.5752,0.5587,0.5659,0.4858,0.3878,0.0,0.0,0.0,0.0,0.0,0.0,0.0,0.0,0.0,0.0,0.0,0.0,0.0,0.0,0.0,0.0,0.0,0.0,0.0,0.0,0.0,0.0,0.0,0.0,0.0,0.0,0.0,0.0,0.0,0.0,0.0,0.0,0.0,0.0,0.0,0.0,0.0,0.0,0.0,0.0,0.0,0.0,0.0,0.0,0.0,0.0,0.0,0.0,0.0,0.0,0.0,0.0,0.0,0.0,0.0,0.0,0.0,0.0,0.0,0.0,0.0,0.0,0.0,0.0,0.0,0.0,0.0,0.0,0.0,0.0,0.0,0.0,0.0,0.0,0.0,0.0,0.0,0.0,0.0,0.0,0.0,0.0,0.0,0.0,0.0,0.0,0.0,0.0,0.0,0.0,0.0,0.0,0.0,0.0,0.0,0.0,0.0,0.0,0.0,0.0,0.0,0.0,0.0,0.0,0.0,0.0,0.0,0.0,0.5705,0.5694,0.5952,0.6057,0.5976,0.5701,0.5502,0.4673,0.0,0.0,0.0,0.0,0.0,0.0,0.0,0.0,0.0,0.0,0.0,0.0,0.0,0.0,0.0,0.0,0.0,0.0,0.0,0.0,0.0,0.0,0.0,0.0,0.0,0.0,0.0,0.0,0.0,0.0,0.0,0.0,0.0,0.0,0.0,0.0,0.0,0.0,0.0,0.0,0.0,0.0,0.0,0.0,0.0,0.0,0.0,0.0,0.0,0.0,0.0,0.0,0.0,0.0,0.0,0.0,0.0,0.0,0.0,0.0,0.0,0.0,0.0,0.0,0.0,0.0,0.0,0.0,0.0,0.0,0.0,0.0,0.0,0.0,0.0,0.0,0.0,0.0,0.0,0.0,0.0,0.0,0.0,0.0,0.0,0.0,0.0,0.0,0.0,0.0,0.0,0.0,0.0,0.0,0.0,0.0,0.0,0.0,0.0,0.0,0.0,0.0,0.0,0.0,0.0,0.0,0.0,0.5844,0.5725,0.5681,0.5928,0.6057,0.6061,0.5749,0.5827,0.517,0.3374,0.0,0.0,0.0,0.0,0.0,0.0,0.0,0.0,0.0,0.0,0.0,0.0,0.0,0.0,0.0,0.0,0.0,0.0,0.0,0.0,0.0,0.0,0.0,0.0,0.0,0.0,0.0,0.0,0.0,0.0,0.0,0.0,0.0,0.0,0.0,0.0,0.0,0.0,0.0,0.0,0.0,0.0,0.0,0.0,0.0,0.0,0.0,0.0,0.0,0.0,0.0,0.0,0.0,0.0,0.0,0.0,0.0,0.0,0.0,0.0,0.0,0.0,0.0,0.0,0.0,0.0,0.0,0.0,0.0,0.0,0.0,0.0,0.0,0.0,0.0,0.0,0.0,0.0,0.0,0.0,0.0,0.0,0.0,0.0,0.0,0.0,0.0,0.0,0.0,0.0,0.0,0.0,0.0,0.0,0.0,0.0,0.0,0.0,0.0,0.0,0.0,0.0,0.0,0.0,0.0,0.0,0.0,0.5593,0.564,0.5786,0.5803,0.5864,0.5973,0.5769,0.5294,0.4549,0.0,0.0,0.0,0.0,0.0,0.0,0.0,0.0,0.0,0.0,0.3982,0.3982,0.2175,0.0,0.0,0.0,0.0,0.0,0.0,0.0,0.0,0.0,0.0,0.0,0.0,0.0,0.0,0.0,0.0,0.0,0.0,0.0,0.0,0.0,0.0,0.0,0.0,0.0,0.0,0.0,0.0,0.0,0.0,0.0,0.0,0.0,0.0,0.0,0.0,0.0,0.0,0.0,0.0,0.0,0.0,0.0,0.0,0.0,0.0,0.0,0.0,0.0,0.0,0.0,0.0,0.0,0.0,0.0,0.0,0.0,0.0,0.0,0.0,0.0,0.0,0.0,0.0,0.0,0.0,0.0,0.0,0.0,0.0,0.0,0.0,0.0,0.0,0.0,0.0,0.0,0.0,0.0,0.0,0.0,0.0,0.0,0.0,0.0,0.0,0.0,0.0,0.0,0.0,0.0,0.0,0.0,0.0,0.5535,0.5521,0.5637,0.56,0.5552,0.56,0.5525,0.5383,0.5151,0.0,0.0,0.0,0.0,0.0,0.0,0.0,0.0,0.0,0.0,0.4699,0.4132,0.3548,0.2962,0.2376,0.1484,0.0,0.0,0.0,0.0,0.0,0.0,0.0,0.0,0.0,0.0,0.0,0.0,0.0,0.0,0.0,0.0,0.0,0.0,0.0,0.0,0.0,0.0,0.0,0.0,0.0,0.0,0.0,0.0,0.0,0.0,0.0,0.0,0.0,0.0,0.0,0.0,0.0,0.0,0.0,0.0,0.0,0.0,0.0,0.0,0.0,0.0,0.0,0.0,0.0,0.0,0.0,0.0,0.0,0.0,0.0,0.0,0.0,0.0,0.0,0.0,0.0,0.0,0.0,0.0,0.0,0.0,0.0,0.0,0.0,0.0,0.0,0.0,0.0,0.0,0.0,0.0,0.0,0.0,0.0,0.0,0.0,0.0,0.0,0.0,0.0,0.0,0.0,0.0,0.0,0.0,0.0,0.5457,0.5429,0.5525,0.5453,0.5436,0.5549,0.5463,0.544,0.5552,0.0,0.0,0.0,0.0,0.0,0.0,0.0,0.0,0.5395,0.5395,0.5164,0.4711,0.4362,0.3908,0.3383,0.2513,0.1996,0.1775,0.0,0.0,0.0,0.0,0.0,0.0,0.0,0.0,0.0,0.0,0.0,0.0,0.0,0.0,0.0,0.0,0.0,0.0,0.0,0.0,0.0,0.0,0.0,0.0,0.0,0.0,0.0,0.0,0.0,0.0,0.0,0.0,0.0,0.0,0.0,0.0,0.0,0.0,0.0,0.0,0.0,0.0,0.0,0.0,0.0,0.0,0.0,0.0,0.0,0.0,0.0,0.0,0.0,0.0,0.0,0.0,0.0,0.0,0.0,0.0,0.0,0.0,0.0,0.0,0.0,0.0,0.0,0.0,0.0,0.0,0.0,0.0,0.0,0.0,0.0,0.0,0.0,0.0,0.0,0.0,0.0,0.0,0.0,0.0,0.0,0.0,0.0,0.0,0.0,0.0,0.0,0.0,0.5385,0.5481,0.5708,0.5539,0.5484,0.0,0.0,0.0,0.0,0.0,0.0,0.0,0.0,0.0,0.5395,0.5395,0.547,0.5589,0.472,0.4303,0.4303,0.3441,0.2942,0.2753,0.1851,0.1379,0.124,0.037,0.0,0.0,0.0,0.0,0.0,0.0,0.0,0.0,0.0,0.0,0.0,0.0,0.0,0.0,0.0,0.0,0.0,0.0,0.0,0.0,0.0,0.0,0.0,0.0,0.0,0.0,0.0,0.0,0.0,0.0,0.0,0.0,0.0,0.0,0.0,0.0,0.0,0.0,0.0,0.0,0.0,0.0,0.0,0.0,0.0,0.0,0.0,0.0,0.0,0.0,0.0,0.0,0.0,0.0,0.0,0.0,0.0,0.0,0.0,0.0,0.0,0.0,0.0,0.0,0.0,0.0,0.0,0.0,0.0,0.0,0.0,0.0,0.0,0.0,0.0,0.0,0.0,0.0,0.0,0.0,0.0,0.0,0.0,0.0,0.0,0.0,0.0,0.0,0.5257,0.5169,0.5131,0.5162,0.5169,0.0,0.0,0.0,0.0,0.0,0.0,0.0,0.0,0.0,0.5395,0.5395,0.547,0.5589,0.5483,0.5425,0.5393,0.475,0.4235,0.3804,0.3037,0.2161,0.124,0.037,0.0,0.0,0.0,0.0,0.0,0.0,0.0,0.0,0.0,0.0,0.0,0.0,0.0,0.0,0.0,0.0,0.0,0.0,0.114,0.0,0.0,0.0,0.0,0.0,0.0,0.0,0.0,0.0,0.0,0.0,0.0,0.0,0.0,0.0,0.0,0.0,0.0,0.0,0.0,0.0,0.0,0.0,0.0,0.0,0.0,0.0,0.0,0.0,0.0,0.0,0.0,0.0,0.0,0.0,0.0,0.0,0.0,0.0,0.0,0.0,0.0,0.0,0.0,0.0,0.0,0.0,0.0,0.0,0.0,0.0,0.0,0.0,0.0,0.0,0.0,0.0,0.0,0.0,0.0,0.0,0.0,0.0,0.0,0.0,0.0,0.0,0.0,0.0,0.0,0.0,0.0,0.0,0.0,0.0,0.0,0.0,0.0,0.0,0.0,0.0,0.0,0.5395,0.5395,0.5395,0.5501,0.5688,0.5766,0.5837,0.5872,0.5513,0.5146,0.4818,0.3918,0.2686,0.1273,0.0806,0.037,0.0,0.0,0.0,0.0,0.0,0.0,0.0,0.0,0.0,0.0,0.0,0.0,0.0069,0.0,0.0,0.0,0.0,0.1307,0.0,0.0,0.0,0.0,0.0,0.0,0.0,0.0,0.0,0.0,0.0,0.0,0.0,0.0,0.0,0.0,0.0,0.0,0.0,0.0,0.0,0.0,0.0,0.0,0.0,0.0,0.0,0.0,0.0,0.0,0.0,0.0,0.0,0.0,0.0,0.0,0.0,0.0,0.0,0.0,0.0,0.0,0.0,0.0,0.0,0.0,0.0,0.0,0.0,0.0,0.0,0.0,0.0,0.0,0.0,0.0,0.0,0.0,0.0,0.0,0.0,0.0,0.0,0.0,0.0,0.0,0.0,0.0,0.0,0.0,0.0,0.0,0.0,0.0,0.0,0.0,0.0,0.0,0.0,0.0,0.0,0.5395,0.5405,0.5429,0.5405,0.5528,0.5769,0.5813,0.5901,0.599,0.5966,0.5837,0.5612,0.4512,0.3159,0.1708,0.1407,0.0873,0.0202,0.0067,0.0,0.0,0.0,0.0,0.0,0.0,0.0,0.0,0.0,0.0,0.014,0.0881,0.0,0.0,0.0,0.0,0.0,0.0,0.0,0.0,0.0,0.0,0.0,0.0,0.0,0.0,0.0,0.0,0.0,0.0,0.0,0.0,0.0,0.0,0.0,0.0,0.0,0.0,0.0,0.0,0.0,0.0,0.0,0.0,0.0,0.0,0.0,0.0,0.0,0.0,0.0,0.0,0.0,0.0,0.0,0.0,0.0,0.0,0.0,0.0,0.0,0.0,0.0,0.0,0.0,0.0,0.0,0.0,0.0,0.0,0.0,0.0,0.0,0.0,0.0,0.0,0.0,0.0,0.0,0.0,0.0,0.0,0.0,0.0,0.0,0.0,0.0,0.0,0.0,0.0,0.0,0.0,0.0,0.0,0.0,0.0,0.5395,0.5395,0.5457,0.5552,0.5463,0.5481,0.5623,0.5874,0.5969,0.6,0.6396,0.6349,0.5875,0.4713,0.3968,0.348,0.1941,0.1207,0.104,0.0303,0.0,0.0,0.0,0.0,0.0,0.0,0.0,0.0,0.0,0.0,0.0035,0.017,0.0,0.0,0.0,0.0,0.0,0.4519,0.4975,0.0,0.0,0.0,0.0,0.0,0.0,0.0,0.0,0.0,0.0,0.0,0.0,0.0,0.0,0.0,0.0,0.0,0.0,0.0,0.0,0.0,0.0,0.0,0.0,0.0,0.0,0.0,0.0,0.0,0.0,0.0,0.0,0.0,0.0,0.0,0.0,0.0,0.0,0.0,0.0,0.0,0.0,0.0,0.0,0.0,0.0,0.0,0.0,0.0,0.0,0.0,0.0,0.0,0.0,0.0,0.0,0.0,0.0,0.0,0.0,0.0,0.0,0.0,0.0,0.0,0.0,0.0,0.0,0.0,0.0,0.0,0.0,0.0,0.0,0.0,0.0,0.5433,0.5515,0.5518,0.5552,0.5589,0.5556,0.5596,0.5827,0.6047,0.6156,0.6156,0.6196,0.602,0.5661,0.5108,0.454,0.3915,0.2609,0.1757,0.1234,0.0,0.0,0.0,0.0,0.0,0.0,0.0,0.0,0.0,0.0,0.0,0.0073,0.0557,0.0,0.0,0.0,0.0,0.0,0.4284,0.4652,0.4436,0.0,0.0,0.0,0.0,0.0,0.0,0.0,0.0,0.0,0.0,0.0,0.0,0.0,0.0,0.0,0.0,0.0,0.0,0.0,0.0,0.0,0.0,0.0,0.0,0.0,0.0,0.0,0.0,0.0,0.0,0.0,0.0,0.0,0.0,0.0,0.0,0.0,0.0,0.0,0.0,0.0,0.0,0.0,0.0,0.0,0.0,0.0,0.0,0.0,0.0,0.0,0.0,0.0,0.0,0.0,0.0,0.0,0.0,0.0,0.0,0.0,0.0,0.0,0.0,0.0,0.0,0.0,0.0,0.0,0.0,0.0,0.0,0.0,0.0,0.5429,0.5501,0.5586,0.5623,0.5657,0.5691,0.5657,0.5769,0.5993,0.6183,0.63,0.6293,0.602,0.5732,0.5446,0.5446,0.5022,0.4284,0.338,0.2618,0.1885,0.0,0.0,0.0,0.0,0.0,0.0,0.0,0.0,0.0,0.0,0.0,0.0,0.0,0.0,0.0,0.0,0.3011,0.3211,0.4082,0.4184,0.3987,0.0,0.0,0.0,0.0,0.0,0.0,0.0,0.0,0.0,0.0,0.0,0.0,0.0,0.0,0.0,0.0,0.0,0.0,0.0,0.0,0.0,0.0,0.0,0.0,0.0,0.0,0.0,0.0,0.0,0.0,0.0,0.0,0.0,0.0,0.0,0.0,0.0,0.0,0.0,0.0,0.0,0.0,0.0,0.0,0.0,0.0,0.0,0.0,0.0,0.0,0.0,0.0,0.0,0.0,0.0,0.0,0.0,0.0,0.0,0.0,0.0,0.0,0.0,0.0,0.0,0.0,0.0,0.0,0.0,0.0,0.0,0.0,0.0,0.0,0.5528,0.5579,0.5589,0.5718,0.585,0.5956,0.5861,0.5867,0.5993,0.6183,0.63,0.63,0.6276,0.603,0.5576,0.5576,0.5494,0.5226,0.4317,0.3944,0.3837,0.1954,0.0,0.0,0.0,0.0,0.0,0.0,0.0,0.0,0.0,0.0,0.0,0.0,0.0,0.0,0.0,0.3915,0.4115,0.5057,0.4652,0.3987,0.4003,0.0,0.0,0.0,0.0,0.0,0.0,0.0,0.0,0.0,0.0,0.0,0.0,0.0,0.0,0.0,0.0,0.0,0.0,0.0,0.0,0.0,0.0,0.0,0.0,0.0,0.0,0.0,0.0,0.0,0.0,0.0,0.0,0.0,0.0,0.0,0.0,0.0,0.0,0.0,0.0,0.0,0.0,0.0,0.0,0.0,0.0,0.0,0.0,0.0,0.0,0.0,0.0,0.0,0.0,0.0,0.0,0.0,0.0,0.0,0.0,0.0,0.0,0.0,0.0,0.0,0.0,0.0,0.0,0.0,0.0,0.0,0.0,0.0,0.564,0.5766,0.5857,0.5823,0.5874,0.599,0.5881,0.5922,0.6173,0.6135,0.6115,0.6112,0.5928,0.5736,0.5481,0.5481,0.545,0.5326,0.4384,0.4088,0.4077,0.2826,0.24,0.0,0.0,0.0,0.0,0.0,0.0,0.0,0.0,0.0,0.0,0.0,0.0,0.0,0.0,0.4417,0.4954,0.5292,0.5126,0.4722,0.4035,0.0,0.0,0.0,0.0,0.0,0.0,0.0,0.0,0.0,0.0,0.0,0.0,0.0,0.0,0.0,0.0,0.0,0.0,0.0,0.0,0.0,0.0,0.0,0.0,0.0,0.0,0.0,0.0,0.0,0.0,0.0,0.0,0.0,0.0,0.0,0.0,0.0,0.0,0.0,0.0,0.0,0.0,0.0,0.0,0.0,0.0,0.0,0.0,0.0,0.0,0.0,0.0,0.0,0.0,0.0,0.0,0.0,0.0,0.0,0.0,0.0,0.0,0.0,0.0,0.0,0.0,0.0,0.0,0.0,0.0,0.0,0.0,0.5589,0.5769,0.5922,0.5986,0.5976,0.5973,0.599,0.5881,0.5905,0.6153,0.601,0.5899,0.5888,0.5732,0.5579,0.5467,0.5467,0.5467,0.543,0.474,0.456,0.4607,0.3702,0.3444,0.0,0.0,0.0,0.0,0.0,0.0,0.0,0.0,0.0,0.0,0.0,0.0,0.0,0.0,0.0,0.5047,0.5268,0.4924,0.4439,0.0,0.0,0.0,0.0,0.0,0.0,0.0,0.0,0.0,0.0,0.0,0.0,0.0,0.0,0.0,0.0,0.0,0.0,0.0,0.0,0.0,0.0,0.0,0.0,0.0,0.0,0.0,0.0,0.0,0.0,0.0,0.0,0.0,0.0,0.0,0.0,0.0,0.0,0.0,0.0,0.0,0.0,0.0,0.0,0.0,0.0,0.0,0.0,0.0,0.0,0.0,0.0,0.0,0.0,0.0,0.0,0.0,0.0,0.0,0.0,0.0,0.0,0.0,0.0,0.0,0.0,0.0,0.0,0.0,0.0,0.0,0.0,0.0,0.5593,0.5867,0.5993,0.5993,0.6176,0.6186,0.5993,0.5878,0.5796,0.58,0.58,0.5728,0.5593,0.5735,0.5725,0.5589,0.5593,0.5593,0.5579,0.5463,0.5569,0.5692,0.4643,0.4412,0.4608,0.0,0.0,0.0,0.0,0.0,0.0,0.0,0.0,0.0,0.0,0.0,0.0,0.0,0.4931,0.4328,0.4948,0.3943,0.0,0.0,0.0,0.0,0.0,0.0,0.0,0.0,0.0,0.0,0.0,0.0,0.0,0.0,0.0,0.0,0.0,0.0,0.0,0.0,0.0,0.0,0.0,0.0,0.0,0.0,0.0,0.0,0.0,0.0,0.0,0.0,0.0,0.0,0.0,0.0,0.0,0.0,0.0,0.0,0.0,0.0,0.0,0.0,0.0,0.0,0.0,0.0,0.0,0.0,0.0,0.0,0.0,0.0,0.0,0.0,0.0,0.0,0.0,0.0,0.0,0.0,0.0,0.0,0.0,0.0,0.0,0.0,0.0,0.0,0.0,0.0,0.0,0.0,0.5739,0.6023,0.6231,0.6231,0.6132,0.6027,0.5871,0.5623,0.5579,0.5654,0.5752,0.5728,0.5593,0.5633,0.563,0.5593,0.5694,0.5684,0.5586,0.5576,0.563,0.5764,0.5437,0.5535,0.5709,0.0,0.0,0.0,0.0,0.0,0.0,0.0,0.0,0.0,0.0,0.0,0.0,0.5393,0.5335,0.5213,0.5302,0.0,0.0,0.0,0.0,0.0,0.0,0.0,0.0,0.0,0.0,0.0,0.0,0.0,0.0,0.0,0.0,0.0,0.0,0.0,0.0,0.0,0.0,0.0,0.0,0.0,0.0,0.0,0.0,0.0,0.0,0.0,0.0,0.0,0.0,0.0,0.0,0.0,0.0,0.0,0.0,0.0,0.0,0.0,0.0,0.0,0.0,0.0,0.0,0.0,0.0,0.0,0.0,0.0,0.0,0.0,0.0,0.0,0.0,0.0,0.0,0.0,0.0,0.0,0.0,0.0,0.0,0.0,0.0,0.0,0.0,0.0,0.0,0.0,0.0,0.0,0.0,0.616,0.63,0.63,0.6173,0.602,0.5806,0.5572,0.5501,0.5532,0.5586,0.5583,0.5535,0.562,0.5674,0.5681,0.5827,0.581,0.5671,0.5613,0.5671,0.58,0.58,0.5986,0.6219,0.0,0.0,0.0,0.0,0.0,0.0,0.0,0.0,0.0,0.0,0.0,0.0,0.5493,0.531,0.5088,0.5245,0.0,0.0,0.0,0.0,0.0,0.0,0.0,0.0,0.0,0.0,0.0,0.0,0.0,0.0,0.0,0.0,0.0,0.0,0.0,0.0,0.0,0.0,0.0,0.0,0.0,0.0,0.0,0.0,0.0,0.0,0.0,0.0,0.0,0.0,0.0,0.0,0.0,0.0,0.0,0.0,0.0,0.0,0.0,0.0,0.0,0.0,0.0,0.0,0.0,0.0,0.0,0.0,0.0,0.0,0.0,0.0,0.0,0.0,0.0,0.0,0.0,0.0,0.0,0.0,0.0,0.0,0.0,0.5395,0.0,0.0,0.0,0.0,0.0,0.0,0.0,0.0,0.6176,0.63,0.63,0.6272,0.6126,0.5806,0.5647,0.5535,0.5395,0.5409,0.5409,0.5402,0.5664,0.58,0.581,0.5925,0.5909,0.5793,0.565,0.5671,0.58,0.58,0.5986,0.63,0.63,0.0,0.0,0.0,0.0,0.0,0.0,0.0,0.0,0.0,0.0,0.4778,0.5568,0.5092,0.0,0.0,0.0,0.0,0.0,0.0,0.0,0.0,0.0,0.0,0.0,0.0,0.0,0.0,0.0,0.0,0.0,0.0,0.0,0.0,0.0,0.0,0.0,0.0,0.0,0.0,0.0,0.0,0.0,0.0,0.0,0.0,0.0,0.0,0.0,0.0,0.0,0.0,0.0,0.0,0.0,0.0,0.0,0.0,0.0,0.0,0.0,0.0,0.0,0.0,0.0,0.0,0.0,0.0,0.0,0.0,0.0,0.0,0.0,0.0,0.0,0.0,0.0,0.0,0.0,0.0,0.0,0.0,0.0,0.0,0.0,0.0,0.0,0.0,0.0,0.0,0.0,0.0,0.6176,0.63,0.63,0.6067,0.5867,0.5803,0.5579,0.5429,0.5395,0.5518,0.5515,0.5402,0.5664,0.58,0.581,0.5925,0.5909,0.5793,0.565,0.5671,0.58,0.58,0.5986,0.63,0.63,0.63,0.0,0.0,0.0,0.0,0.0,0.0,0.0,0.5718,0.5656,0.5526,0.5632,0.5402,0.0,0.0,0.0,0.0,0.0,0.0,0.0,0.0,0.0,0.0,0.0,0.0,0.0,0.0,0.0,0.0,0.0,0.0,0.0,0.0,0.0,0.0,0.0,0.0,0.0,0.0,0.0,0.0,0.0,0.0,0.0,0.0,0.0,0.0,0.0045,0.0,0.0,0.0,0.0,0.0,0.0,0.0,0.0,0.0,0.0,0.0,0.0,0.0,0.0,0.0,0.0,0.0,0.0,0.0,0.0,0.0,0.0,0.0,0.0,0.0,0.0,0.0,0.0,0.0,0.0,0.0,0.0,0.0,0.0,0.0,0.0,0.0,0.0,0.0,0.0,0.0,0.0,0.0,0.0,0.6265,0.6156,0.5925,0.5769,0.5701,0.5511,0.5395,0.5395,0.5477,0.5511,0.5511,0.5698,0.584,0.5915,0.5956,0.5909,0.5793,0.565,0.5633,0.5701,0.5701,0.5881,0.6149,0.6149,0.6235,0.6289,0.6176,0.0,0.0,0.0,0.0,0.0,0.0,0.0,0.5786,0.5711,0.0,0.0,0.0,0.0,0.0,0.0,0.0,0.0,0.0,0.0,0.0,0.0,0.0,0.0,0.0,0.0,0.0,0.0,0.0,0.0,0.0,0.0,0.0,0.0,0.0,0.0,0.0,0.0,0.0,0.0,0.0,0.0,0.0,0.207,0.218,0.1588,0.106,0.0799,0.0852,0.0269,0.0,0.0,0.0,0.0,0.0,0.0,0.0,0.0,0.0,0.0,0.0,0.0,0.0,0.0,0.0,0.0,0.0,0.0,0.0,0.0,0.0,0.0,0.0,0.0,0.0,0.0,0.0,0.0,0.0,0.0,0.0,0.0,0.0,0.0,0.0,0.0,0.0,0.0,0.0,0.0,0.0,0.6074,0.5922,0.5772,0.563,0.5511,0.5423,0.5395,0.5395,0.5474,0.5593,0.5708,0.5844,0.5952,0.5929,0.5898,0.5789,0.5623,0.5566,0.5593,0.5616,0.5789,0.5996,0.6023,0.6149,0.6282,0.6115,0.6067,0.6051,0.5922,0.0,0.0,0.0,0.0,0.584,0.0,0.0,0.0,0.0,0.0,0.0,0.0,0.0,0.0,0.0,0.0,0.0,0.0,0.0,0.0,0.0,0.0,0.0,0.0,0.0,0.0,0.0,0.0,0.0,0.0,0.0,0.0,0.0,0.0,0.0,0.0,0.0,0.0,0.3122,0.3302,0.3293,0.3013,0.2111,0.1565,0.1506,0.0488,0.0,0.0,0.0,0.0,0.0,0.0,0.0,0.0,0.0,0.0,0.0,0.0,0.0,0.0,0.0,0.0,0.0,0.0,0.0,0.0,0.0,0.0,0.0,0.0,0.0,0.0,0.0,0.0,0.0,0.0,0.0,0.0,0.0,0.0,0.0,0.0,0.0,0.0,0.0,0.0,0.0,0.6265,0.6081,0.5928,0.5776,0.5633,0.5528,0.5395,0.5395,0.5474,0.5589,0.561,0.5694,0.5827,0.5701,0.5705,0.5783,0.5542,0.5501,0.5599,0.5725,0.5878,0.6006,0.6179,0.6282,0.6296,0.6276,0.6269,0.6265,0.6245,0.6252,0.0,0.0,0.0,0.0,0.0,0.0,0.0,0.0,0.0,0.0,0.0,0.0,0.0,0.0,0.0,0.0,0.0,0.0,0.0,0.0,0.0,0.0,0.0,0.0,0.0,0.0,0.0,0.0,0.0,0.0,0.0,0.0,0.0,0.0,0.0,0.0,0.0,0.317,0.4101,0.3775,0.1894,0.1684,0.1182,0.0255,0.0085,0.0,0.0,0.0,0.0,0.0,0.0,0.0,0.0,0.0,0.0,0.0,0.0,0.0,0.0,0.0,0.0,0.0,0.0,0.0,0.0,0.0,0.0,0.0,0.0,0.0,0.0,0.0,0.0,0.0,0.0,0.0,0.0,0.0,0.0,0.0,0.0,0.0,0.0,0.0,0.0,0.0,0.6,0.5939,0.5833,0.5688,0.5623,0.5549,0.5395,0.5395,0.5429,0.0,0.5494,0.5583,0.5793,0.5654,0.5627,0.5671,0.5487,0.5484,0.5596,0.5657,0.5725,0.5806,0.6044,0.6078,0.6027,0.6238,0.63,0.63,0.63,0.63,0.63,0.0,0.0,0.0,0.0,0.0,0.0,0.0,0.0,0.0,0.0,0.0,0.0,0.0,0.0,0.0,0.0,0.0,0.0,0.0,0.0,0.0,0.0,0.0,0.0,0.0,0.0,0.0,0.0,0.0,0.0,0.0,0.0,0.0,0.0,0.0,0.5441,0.492,0.5414,0.499,0.349,0.2794,0.1986,0.1008,0.0336,0.0,0.0,0.0,0.0,0.0,0.0,0.0,0.0,0.0,0.0,0.0,0.0,0.0,0.0,0.0,0.0,0.0,0.0,0.0,0.0,0.0,0.0,0.0,0.0,0.0,0.0,0.0,0.0,0.0,0.0,0.0,0.0,0.0,0.0,0.0,0.0,0.0,0.0,0.0,0.0,0.0,0.0,0.58,0.5752,0.5647,0.5606,0.5569,0.5453,0.0,0.0,0.5395,0.5395,0.5515,0.0,0.5579,0.5552,0.0,0.0,0.0,0.5586,0.5549,0.5576,0.5664,0.5847,0.5871,0.5837,0.6105,0.6242,0.6245,0.6286,0.63,0.63,0.0,0.0,0.0,0.0,0.0,0.0,0.0,0.0,0.0,0.0,0.0,0.0,0.0,0.0,0.0,0.0,0.0,0.0,0.0,0.0,0.0,0.0,0.0,0.0,0.0,0.0,0.0,0.0,0.0,0.0,0.0,0.0,0.0,0.0,0.0,0.6201,0.6238,0.6204,0.5642,0.4489,0.3529,0.2519,0.1361,0.0457,0.0,0.0,0.0,0.0,0.0,0.0,0.0,0.0,0.0,0.0,0.0,0.0,0.0,0.0,0.0,0.0,0.0,0.0,0.0,0.0,0.0,0.0,0.0,0.0,0.0,0.0,0.0,0.0,0.0,0.0,0.0,0.0,0.63,0.63,0.63,0.63,0.0,0.0,0.0,0.0,0.0,0.0,0.0,0.0,0.5789,0.5657,0.5586,0.5579,0.0,0.0,0.5395,0.5395,0.5402,0.5419,0.5412,0.5487,0.5579,0.0,0.0,0.0,0.0,0.0,0.5776,0.5657,0.0,0.0,0.0,0.0,0.6064,0.6248,0.63,0.63,0.0,0.0,0.0,0.0,0.0,0.0,0.0,0.0,0.0,0.0,0.0,0.0,0.0,0.0,0.0,0.0,0.0,0.0,0.0,0.0,0.0,0.0,0.0,0.0,0.0,0.0,0.0,0.0,0.0,0.0,0.0,0.0,0.0,0.0,0.0,0.5888,0.5996,0.5905,0.5024,0.324,0.2994,0.2021,0.0118,0.004,0.0,0.0,0.0,0.0,0.0,0.0,0.0,0.0,0.0,0.0,0.0,0.0,0.0,0.0,0.0,0.0,0.0,0.0,0.0,0.0,0.0,0.0,0.0,0.0,0.0,0.0,0.0,0.0,0.0,0.0,0.0,0.0,0.0,0.63,0.63,0.63,0.6118,0.0,0.0,0.0,0.0,0.0,0.0,0.0,0.0,0.5752,0.5681,0.0,0.0,0.5395,0.5395,0.5395,0.5395,0.5395,0.5395,0.5426,0.5474,0.5419,0.0,0.0,0.0,0.0,0.0,0.0,0.0,0.0,0.0,0.0,0.0,0.0,0.0,0.0,0.0,0.0,0.0,0.0,0.0,0.0,0.0,0.0,0.0,0.0,0.0,0.0,0.0,0.0,0.0,0.0,0.0,0.0,0.0,0.0,0.0,0.0,0.0,0.0,0.0,0.0,0.0,0.0,0.0,0.0,0.0,0.0,0.0,0.0,0.0,0.0,0.5881,0.583,0.4935,0.3018,0.2942,0.1969,0.0,0.0,0.0,0.0,0.0,0.0,0.0,0.0,0.0,0.0,0.0,0.0,0.0,0.0,0.0,0.0,0.0,0.0,0.0,0.0,0.0,0.0,0.0,0.0,0.0,0.0,0.0,0.0,0.0,0.0,0.0,0.5718,0.0,0.0,0.0,0.0,0.6255,0.6153,0.6013,0.5895,0.5884,0.5786,0.0,0.0,0.0,0.0,0.0,0.5783,0.5708,0.5661,0.5494,0.0,0.0,0.5395,0.5423,0.5474,0.5474,0.5443,0.0,0.0,0.0,0.5776,0.0,0.0,0.5586,0.0,0.0,0.0,0.0,0.0,0.0,0.0,0.0,0.0,0.0,0.0,0.0,0.0,0.0,0.0,0.0,0.0,0.0,0.0,0.0,0.0,0.0,0.0,0.0,0.0,0.0,0.0,0.0,0.0,0.0,0.0,0.0,0.0,0.0,0.0,0.0,0.0,0.0,0.0,0.0,0.0,0.0,0.0,0.0,0.0,0.5728,0.5681,0.4804,0.2898,0.2251,0.1289,0.0,0.035,0.0549,0.0549,0.0862,0.1036,0.1027,0.0709,0.0726,0.1098,0.0758,0.0359,0.0,0.0,0.0,0.0,0.0,0.0,0.0,0.0,0.0,0.0,0.0,0.0,0.0,0.0,0.0,0.0,0.0,0.0,0.5586,0.5589,0.0,0.0,0.0,0.0,0.0,0.584,0.5817,0.5755,0.5616,0.561,0.0,0.0,0.0,0.0,0.0,0.5749,0.5671,0.581,0.5545,0.5402,0.5402,0.0,0.5481,0.5589,0.5599,0.5552,0.5419,0.0,0.5674,0.5755,0.0,0.5339,0.5915,0.0,0.0,0.0,0.5847,0.5993,0.0,0.0,0.0,0.0,0.0,0.0,0.0,0.0,0.0,0.0,0.0,0.0,0.0,0.0,0.0,0.0,0.0,0.0,0.0,0.0,0.0,0.0,0.0,0.0,0.0,0.0,0.0,0.0,0.0,0.0,0.0,0.0,0.0,0.0,0.0,0.0,0.0,0.0,0.0,0.546,0.5576,0.5406,0.4522,0.2748,0.0943,0.0,0.0,0.1071,0.1605,0.1607,0.2618,0.3085,0.3054,0.2092,0.2262,0.3236,0.2283,0.1165,0.009,0.0046,0.0046,0.0046,0.0,0.0,0.0,0.0,0.0,0.0,0.0,0.0,0.0,0.0,0.0,0.0,0.0,0.5984,0.5498,0.0,0.0,0.0,0.5979,0.6169,0.6265,0.618,0.617,0.6156,0.6115,0.6112,0.6044,0.5932,0.6074,0.6101,0.5993,0.5912,0.5892,0.5929,0.5671,0.5562,0.5562,0.5562,0.5549,0.0,0.5813,0.5823,0.5677,0.5613,0.0,0.0,0.5555,0.5528,0.0,0.0,0.0,0.0,0.0,0.584,0.0,0.0,0.6173,0.6356,0.0,0.0,0.0,0.0,0.0,0.0,0.4921,0.0,0.0,0.0,0.0,0.0,0.0,0.0,0.0,0.0,0.0,0.0,0.0,0.0,0.0,0.0,0.0,0.0,0.0,0.0,0.0,0.0,0.0,0.0,0.0,0.0,0.0,0.0,0.5395,0.5416,0.5457,0.4167,0.3208,0.2723,0.0955,0.0,0.0,0.1062,0.1617,0.1607,0.2618,0.3113,0.3087,0.2802,0.2913,0.3307,0.3042,0.282,0.2549,0.1666,0.1321,0.1202,0.0326,0.0,0.0,0.0,0.0,0.0,0.0,0.0,0.0,0.0,0.0,0.0,0.0,0.7075,0.683,0.0,0.0,0.0,0.7372,0.7487,0.7333,0.6844,0.6802,0.6616,0.6201,0.6166,0.6152,0.6129,0.6252,0.6255,0.6129,0.6027,0.5993,0.5993,0.5793,0.5647,0.5593,0.565,0.5677,0.5688,0.0,0.0,0.0,0.0,0.0,0.0,0.564,0.0,0.0,0.5661,0.5723,0.0,0.0,0.0,0.6281,0.6057,0.6227,0.0,0.0,0.0,0.0,0.0,0.0,0.0,0.0,0.0,0.0,0.0,0.0,0.0,0.0,0.4114,0.0,0.0,0.0,0.0,0.0,0.0,0.0,0.0,0.0,0.0,0.0,0.0,0.0,0.0,0.0,0.0,0.0,0.0,0.0,0.5388,0.5395,0.5395,0.5395,0.368,0.2698,0.2708,0.094,0.0178,0.0549,0.1645,0.2433,0.2812,0.3926,0.4445,0.4428,0.3987,0.4127,0.4697,0.4267,0.4465,0.4952,0.3796,0.2702,0.1686,0.0457,0.0,0.0,0.0,0.0,0.0,0.0,0.0,0.0,0.0,0.0,0.0,0.0,0.8557,0.8789,0.0,0.8959,0.9154,0.9271,0.9296,0.8877,0.7797,0.7599,0.7195,0.6424,0.6275,0.6338,0.6637,0.6644,0.6644,0.6644,0.6349,0.6204,0.6204,0.5938,0.5834,0.5815,0.5944,0.6003,0.601,0.0,0.0,0.0,0.0,0.0,0.5956,0.5579,0.5848,0.0,0.0,0.5949,0.0,0.6122,0.6298,0.6593,0.6207,0.6244,0.0,0.0,0.0,0.0,0.0,0.63,0.0,0.0,0.0,0.0,0.0,0.0,0.0,0.4655,0.5039,0.5569,0.0,0.0,0.0,0.0,0.0,0.0,0.0,0.0,0.0,0.0,0.0,0.0,0.0,0.0,0.0,0.0,0.5048,0.5064,0.5385,0.5395,0.5395,0.5395,0.3782,0.2845,0.2845,0.1204,0.0663,0.1432,0.264,0.3682,0.4517,0.572,0.631,0.6288,0.5334,0.558,0.6649,0.5704,0.5993,0.7007,0.5891,0.4065,0.1879,0.0673,0.0136,0.0,0.0141,0.0095,0.0,0.0,0.0,0.0,0.0,0.0,0.0,0.0,0.0,0.8789,0.8789,0.8959,0.9154,0.9271,0.9296,0.9205,0.8972,0.8217,0.7989,0.8628,0.7913,0.7816,0.8689,0.8732,0.8732,0.8732,0.7897,0.7461,0.7461,0.6465,0.6371,0.7135,0.7167,0.7184,0.7192,0.0,0.0,0.0,0.0,0.0,0.5976,0.58,0.0,0.7154,0.6162,0.5908,0.6108,0.6013,0.6166,0.6388,0.0,0.6388,0.6351,0.0,0.0,0.0,0.0,0.0,0.0,0.0,0.0,0.0,0.0,0.0,0.0,0.5759,0.5722,0.5503,0.0,0.0,0.0,0.0,0.0,0.0,0.0,0.0,0.0,0.0,0.0,0.0,0.0,0.0,0.0,0.0,0.4083,0.4411,0.5315,0.5395,0.5395,0.5395,0.435,0.3747,0.3747,0.2727,0.2254,0.2442,0.3631,0.4316,0.4517,0.572,0.6361,0.647,0.6258,0.6415,0.6842,0.6655,0.6743,0.7007,0.5891,0.4552,0.3126,0.1924,0.0854,0.0136,0.1107,0.0837,0.014,0.0,0.0,0.0,0.0,0.0,0.0,0.0,0.0,1.0545,1.0545,1.0628,1.0728,1.0783,1.0801,1.0608,1.0078,0.9588,0.9291,0.9296,0.8351,0.8008,0.8542,0.8089,0.805,0.8542,0.8046,0.8046,0.8542,0.795,0.7886,0.8299,0.7854,0.757,0.74,0.0,0.0,0.0,0.0,0.6973,0.6878,0.6702,0.0,0.7482,0.7462,0.7216,0.6893,0.6893,0.6649,0.632,0.6463,0.6515,0.0,0.0,0.646,0.6491,0.0,0.6351,0.6405,0.0,0.0,0.0,0.6481,0.0,0.0,0.0,0.6023,0.5725,0.0,0.0,0.0,0.0,0.0,0.0,0.0,0.0,0.0,0.0,0.0,0.0,0.0,0.0,0.0,0.0,0.4061,0.4813,0.5355,0.5395,0.5395,0.5395,0.4519,0.4015,0.4015,0.3145,0.2896,0.3349,0.4121,0.4703,0.5173,0.5917,0.6337,0.6409,0.648,0.6597,0.682,0.6852,0.6927,0.6954,0.6445,0.5499,0.4176,0.2449,0.179,0.1795,0.1787,0.1788,0.1784,0.0,0.0,0.0,0.0,0.0,0.0,0.0,0.0,1.2325,1.2378,1.2385,1.2365,1.2311,1.2251,1.1918,1.1089,1.0776,1.0441,0.9992,0.8975,0.8461,0.8651,0.7739,0.7573,0.8292,0.8181,0.8389,0.8998,0.9226,0.9243,0.9139,0.8609,0.8244,0.0,0.0,0.0,0.0,0.0,0.0,0.8056,0.0,0.8046,0.8003,0.8854,0.8641,0.7868,0.7834,0.7403,0.6856,0.6813,0.0,0.6903,0.6489,0.6488,0.0,0.0,0.0,0.0,0.0,0.0,0.0,0.0,0.0,0.6518,0.0,0.0,0.0,0.0,0.0,0.0,0.0,0.0,0.0,0.0,0.0,0.0,0.0,0.0,0.0,0.0,0.0,0.0,0.0,0.438,0.5272,0.5114,0.5235,0.5361,0.5392,0.4686,0.4284,0.4284,0.358,0.3547,0.4251,0.4588,0.5108,0.5803,0.6153,0.633,0.6388,0.6504,0.6614,0.679,0.6846,0.6886,0.6893,0.6977,0.6387,0.5241,0.3279,0.2948,0.3489,0.2779,0.2947,0.3464,0.8197,0.7512,0.0,0.0,0.0,0.0,0.0,0.0,1.2398,1.2697,1.273,1.263,1.2331,1.2107,0.0,0.0,0.0,0.0,1.2297,0.0,1.0864,1.1737,1.1056,1.047,1.0092,0.9452,0.8732,0.797,0.8846,0.9286,0.9299,1.0099,0.0,0.0,1.0081,0.0,0.0,0.0,0.8805,0.0,1.0031,1.0046,0.0,0.944,0.8933,0.812,0.788,0.8313,0.8837,0.0,0.7823,0.7705,0.0,0.658,0.0,0.0,0.0,0.0,0.0,0.0,0.0,0.0,0.6688,0.0,0.0,0.0,0.6231,0.0,0.0,0.0,0.0,0.0,0.0,0.0,0.0,0.0,0.0,0.0,0.0,0.0,0.0,0.0,0.0,0.0,0.4817,0.4044,0.4703,0.5216,0.5388,0.5292,0.5226,0.5226,0.516,0.5126,0.5226,0.551,0.5692,0.5803,0.6153,0.6436,0.6651,0.6668,0.6827,0.7041,0.6933,0.6886,0.6876,0.68,0.6736,0.6595,0.5447,0.4419,0.3705,0.4656,0.4385,0.3583,0.9074,0.8579,0.0,0.0,0.0,0.0,0.0,0.0,1.2412,1.2744,1.2784,1.2804,0.0,0.0,0.0,0.0,0.0,1.1642,0.0,0.0,1.1151,1.1907,1.1117,1.0802,1.1133,1.0665,1.0489,1.0713,1.0946,1.1025,1.1025,1.0864,0.0,0.0,0.9827,0.0,0.8212,0.0,0.0,0.0,0.0,0.0,0.0,1.1067,1.0553,0.9599,0.8908,0.896,0.9236,0.0,0.8466,0.0,0.0,0.0,0.0,0.0,0.0,0.0,0.0,0.0,0.0,0.0,0.0,0.0,0.0,0.0,0.6381,0.0,0.0,0.0,0.0,0.0,0.0,0.0,0.0,0.0,0.0,0.0,0.0,0.0,0.0,0.0,0.0,0.0,0.0,0.0,0.0,0.5127,0.5223,0.5347,0.5395,0.5395,0.5395,0.5395,0.5395,0.5654,0.58,0.5803,0.6153,0.6409,0.6569,0.6661,0.6766,0.6888,0.6873,0.6827,0.6671,0.6787,0.6817,0.6775,0.6477,0.6068,0.562,0.5445,0.5489,0.5547,1.031,0.0,0.0,0.0,0.0,0.0,0.0,0.0,0.0,0.0,0.0,0.0,1.32,1.306,0.0,0.0,0.0,1.2044,0.0,0.0,1.1419,0.0,0.0,0.0,0.0,0.0,0.0,0.0,0.0,0.0,0.0,0.0,0.0,0.0,0.0,0.9284,0.8765,0.0,0.0,0.9372,1.1727,1.2324,1.1889,1.1942,1.1689,1.1087,1.0083,0.99,1.0094,0.9856,0.9399,0.0,0.8465,0.0,0.0,0.0,0.0,0.0,0.6958,0.0,0.0,0.0,0.0,0.0,0.0,0.0,0.0,0.0,0.0,0.0,0.0,0.0,0.0,0.0,0.0,0.0,0.0,0.0,0.0,0.0,0.0,0.0,0.0,0.0,0.0,0.4529,0.4829,0.5015,0.5096,0.5237,0.5351,0.5392,0.5436,0.5457,0.5457,0.5718,0.5864,0.5867,0.617,0.6375,0.6515,0.6586,0.6661,0.6705,0.6773,0.6702,0.6549,0.6729,0.6787,0.6783,0.6957,0.7061,0.7007,0.616,0.6405,0.7039,1.1844,1.1131,0.0,0.0,0.0,0.0,0.0,0.0,0.0,0.0,0.0,0.0,0.0,0.0,0.0,0.0,0.0,1.1396,1.2245,0.0,1.2274,0.0,0.0,1.1674,0.0,0.0,0.0,0.0,0.0,0.0,0.0,0.0,0.0,0.0,0.0,1.1945,1.2141,1.1948,1.1965,1.215,1.2274,1.2281,1.221,0.0,1.1677,1.2114,1.1124,0.0,0.0,1.1236,1.0944,0.0,0.0,0.0,0.0,0.0,0.0,0.0,0.0,0.0,0.0,0.7095,0.0,0.0,0.0,0.0,0.679,0.0,0.0,0.0,0.0,0.0,0.0,0.0,0.0,0.0,0.0,0.0,0.0,0.0,0.0,0.0,0.0,0.0,0.0,0.3698,0.4319,0.483,0.5083,0.5103,0.5206,0.5388,0.5539,0.5583,0.5583,0.5874,0.5986,0.5986,0.6183,0.6375,0.6511,0.6518,0.6559,0.6692,0.6549,0.6566,0.6681,0.6546,0.6658,0.6879,0.6889,0.6974,0.7095,0.7051,0.7189,0.7226,0.0,0.0,0.0,0.0,0.0,0.0,0.0,1.2878,0.0,0.0,0.0,0.0,0.0,0.0,1.2705,0.0,0.0,1.1984,1.2285,1.2522,0.0,0.0,0.0,1.3194,0.0,0.0,0.0,0.0,0.0,0.0,0.0,0.0,0.0,0.0,0.0,1.1527,0.0,0.0,0.0,0.0,0.0,1.263,1.2585,0.0,0.0,1.2261,1.1922,1.1996,0.0,1.1958,1.1461,1.0927,1.0533,1.0048,0.9611,0.9397,0.9258,0.0,0.0,0.0,0.7833,0.7244,0.0,0.0,0.0,0.0,0.0,0.0,0.0,0.0,0.0,0.0,0.0,0.0,0.0,0.0,0.0,0.0,0.0,0.0,0.0,0.0,0.0,0.0,0.0,0.4235,0.4578,0.4887,0.0,0.5176,0.5355,0.5542,0.5562,0.5637,0.5728,0.5892,0.5993,0.5993,0.6186,0.6375,0.6511,0.6511,0.6542,0.6546,0.6535,0.6542,0.6552,0.6603,0.6746,0.6896,0.6991,0.7055,0.7095,0.7095,0.7129,0.7145,1.2265,0.0,0.0,0.0,0.0,0.0,0.0,0.0,0.0,0.0,1.344,0.0,1.344,0.0,1.2846,0.0,1.2204,1.2191,1.2291,1.2485,0.0,1.3033,1.3514,0.0,0.0,0.0,0.0,0.0,0.0,1.2543,0.0,0.0,0.0,0.0,0.0,0.0,0.0,0.0,1.1729,0.0,0.0,1.2623,0.0,0.0,1.2365,1.2445,0.0,1.2305,1.2305,1.2305,1.1933,1.1437,1.1372,1.1018,1.0594,1.0399,1.0266,0.9969,0.9067,0.8618,0.0,0.7321,0.7095,0.0,0.6916,0.0,0.0,0.0,0.0,0.0,0.0,0.0,0.0,0.0,0.0,0.0,0.0,0.0,0.0,0.0,0.0,0.0,0.0,0.0,0.4621,0.4576,0.4724,0.4884,0.0,0.0,0.507,0.5583,0.5354,0.5412,0.5881,0.6037,0.6112,0.6112,0.6252,0.6347,0.6436,0.6436,0.6436,0.6439,0.6491,0.6545,0.6566,0.6719,0.6868,0.697,0.7061,0.7095,0.7095,0.7095,0.7132,0.7238,0.0,0.0,0.0,0.0,1.2603,0.0,0.0,0.0,1.36,0.0,1.3593,1.3467,1.322,1.2951,1.265,1.2325,1.2087,0.0,1.2285,1.2318,0.0,0.0,1.3033,1.3066,1.279,0.0,0.0,0.0,0.0,0.0,0.0,0.0,0.0,0.0,1.2305,0.0,1.2278,1.2291,1.2305,1.2305,1.2305,1.2311,1.2325,1.2311,1.2522,1.2744,1.2412,1.2305,1.2305,1.2305,1.2305,1.2305,1.2305,1.2311,1.2192,1.1482,1.1194,1.074,0.922,0.8645,0.825,0.7308,0.0,0.0,0.0,0.0,0.6994,0.0,0.0,0.0,0.0,0.0,0.0,0.0,0.0,0.0,0.0,0.0,0.0,0.0,0.0,0.0,0.0,0.4491,0.4552,0.4677,0.4697,0.0,0.0,0.0,0.4426,0.5555,0.4944,0.5037,0.6003,0.6186,0.63,0.63,0.63,0.63,0.63,0.63,0.6303,0.6317,0.6453,0.6563,0.6722,0.6825,0.6967,0.7095,0.7095,0.7102,0.7105,0.7098,0.7244,0.7426,1.2623,1.2819,1.2979,0.0,1.2884,1.2965,0.0,0.0,0.0,0.0,1.3413,1.3206,1.2938,1.2636,1.2385,1.2311,1.2231,0.0,0.0,0.0,0.0,1.2425,1.2926,1.3066,1.279,1.3053,0.0,1.3093,0.0,0.0,1.2663,0.0,0.0,0.0,0.0,0.0,1.2033,1.2211,1.2305,1.2305,1.2305,1.2438,0.0,0.0,1.2522,1.2744,1.2412,1.2305,1.2305,1.2305,1.2305,1.2305,1.2305,1.2452,1.2654,1.2687,1.2531,1.2006,1.0526,0.9668,0.8873,0.7339,0.6898,0.6803,0.0,0.0,0.0,0.0,0.0,0.0,0.0,0.0,0.0,0.0,0.0,0.0,0.0,0.0,0.0,0.0,0.0,0.0,0.4511,0.4491,0.4552,0.4677,0.4796,0.0,0.0,0.0,0.0,0.5742,0.5669,0.5816,0.62,0.6279,0.63,0.63,0.63,0.63,0.63,0.63,0.6358,0.646,0.6497,0.6624,0.6829,0.6869,0.6967,0.7095,0.7095,0.721,0.7299,0.7139,0.7309,0.7509,1.275,0.0,0.0,1.3333,0.0,0.0,1.3553,0.0,0.0,1.362,1.3353,0.0,1.2817,1.2516,1.2305,1.2305,1.2305,0.0,0.0,0.0,0.0,1.2536,1.2699,1.2732,1.2596,1.2891,0.0,1.2812,0.0,0.0,1.2589,0.0,0.0,0.0,0.0,1.2211,0.0,1.2231,1.2378,1.2522,1.2351,0.0,0.0,1.2365,1.2405,1.2569,1.2365,1.2305,1.2305,1.2305,1.2305,1.2305,1.2305,1.2418,1.265,1.2958,1.2918,1.2441,1.0771,0.9998,0.9216,0.7282,0.6763,0.6702,0.6702,0.6702,0.6702,0.0,0.0,0.0,0.0,0.0,0.0,0.0,0.0,0.0,0.0,0.0,0.0,0.0,0.0,0.0,0.4614,0.459,0.4655,0.4779,0.0,0.0,0.0,0.0,0.0,0.5793,0.5574,0.572,0.6296,0.6361,0.6361,0.63,0.63,0.63,0.63,0.63,0.6378,0.6515,0.6542,0.6709,0.6889,0.6953,0.7024,0.7095,0.7095,0.7234,0.7398,0.7152,0.7336,0.7567,0.0,0.0,0.0,0.0,0.0,0.0,0.0,1.3888,0.0,1.3586,0.0,1.3033,1.2757,1.2458,1.2305,1.2305,0.0,1.2412,1.271,1.2445,1.2418,1.2717,1.2476,1.2305,1.2305,1.263,0.0,0.0,0.0,0.0,0.0,0.0,0.0,0.0,0.0,0.0,0.0,1.2345,1.2522,0.0,1.2405,1.2305,1.2305,1.2305,1.2305,1.2305,1.2305,1.2305,1.2305,1.2305,1.2305,1.2305,1.2305,1.2325,1.2412,1.2703,1.2784,1.2415,1.0599,0.9978,0.9339,0.7353,0.6778,0.6644,0.6644,0.6644,0.6644,0.6644,0.664,0.6882,0.0,0.0,0.0,0.0,0.0,0.0,0.0,0.0,0.0,0.0,0.0,0.0,0.0,0.0,0.0,0.0,0.0,0.0,0.0,0.0,0.0,0.5757,0.5202,0.0,0.6358,0.0,0.6443,0.6358,0.6317,0.63,0.63,0.63,0.6388,0.6549,0.6644,0.6797,0.6923,0.7045,0.7095,0.7095,0.7095,0.7234,0.7402,0.7221,0.7363,0.7604,0.0,0.0,0.0,0.0,0.0,1.4008,1.4008,1.3848,1.3573,1.3327,1.3058,1.275,1.2412,1.2331,1.2305,1.2305,1.2305,0.0,0.0,0.0,0.0,1.2378,1.2331,1.2305,1.2305,1.263,1.2757,0.0,0.0,0.0,0.0,0.0,0.0,0.0,0.0,0.0,1.2318,1.2603,0.0,1.2378,1.2325,1.2305,1.2305,1.2305,1.2305,1.2305,1.2305,1.2305,1.2305,1.2305,1.2305,1.2305,1.2305,1.2472,1.2717,1.277,1.2784,1.2575,1.1494,1.0315,0.9145,0.8057,0.7051,0.6378,0.6378,0.6378,0.6378,0.6378,0.6778,0.721,0.7397,0.0,0.0,0.0,0.0,0.0,0.0,0.0,0.0,0.0,0.0,0.0,0.0,0.0,0.0,0.0,0.0,0.0,0.0,0.0,0.0,0.0,0.5765,0.0,0.0,0.0,0.6446,0.662,0.6416,0.63,0.63,0.63,0.6446,0.6661,0.6688,0.6854,0.7061,0.7085,0.7095,0.7095,0.7095,0.7234,0.7412,0.7343,0.7519,0.7736,0.0,0.0,0.0,0.0,0.0,0.0,0.0,1.3607,0.0,1.3393,1.3033,1.273,1.2583,1.2392,1.2305,1.2305,1.2305,1.2305,1.2305,1.2305,1.2305,1.2305,1.2305,0.0,1.2305,1.2445,1.263,1.2784,0.0,0.0,0.0,0.0,0.0,0.0,0.0,1.2797,0.0,0.0,0.0,1.2556,1.2365,1.2305,1.2305,1.2305,1.2305,1.2305,1.2305,1.2305,1.2305,1.2305,1.2305,1.2305,1.2305,1.2543,1.2757,1.2596,1.2777,1.2745,1.1477,1.0737,0.9891,0.8298,0.7885,0.7595,0.6528,0.7099,0.7706,0.7173,0.7622,0.8249,0.8797,0.9306,0.0,0.0,0.0,0.0,0.0,0.0,0.0,0.0,0.0,0.0,0.0,0.0,0.0,0.0,0.0,0.0,0.0,0.0,0.0,0.0,0.0,0.0,0.0,0.0,0.0,0.6511,0.6368,0.63,0.6303,0.6375,0.6532,0.6705,0.6783,0.69,0.7095,0.7095,0.7095,0.7095,0.7095,0.7142,0.7261,0.7343,0.7461,0.7563,0.0,1.425,0.0,0.0,1.4088,0.0,1.3646,1.336,1.3267,1.3393,1.2986,1.269,1.269,1.2536,1.2371,1.2305,1.2365,1.2371,1.2305,1.2305,1.2331,1.2392,1.2398,1.2398,1.2398,1.2398,1.2549,0.0,0.0,0.0,0.0,0.0,0.0,0.0,0.0,0.0,0.0,0.0,1.2529,1.267,1.2398,1.2305,1.2305,1.2305,1.2305,1.2305,1.2305,1.2305,1.2305,1.2305,1.2305,1.2311,1.2378,1.2596,1.275,1.2545,1.2786,1.2843,1.1557,1.1179,1.067,0.888,0.8879,0.8879,0.7288,0.8161,0.9069,0.8275,0.8663,0.9451,1.0509,1.0731,0.0,0.0,0.0,0.0,0.0,0.0,0.0,0.0,0.0,0.0,0.0,0.0,0.0,0.0,0.0,0.5247,0.5436,0.5443,0.0,0.0,0.0,0.6135,0.6392,0.0,0.6443,0.0,0.633,0.6317,0.6351,0.646,0.6573,0.6756,0.6832,0.6967,0.7095,0.7095,0.7095,0.7095,0.7095,0.7095,0.7115,0.7316,0.7439,0.7421,0.0,0.0,0.0,0.0,0.0,0.0,0.0,1.336,1.312,1.2904,1.2583,1.2345,1.2345,1.2596,1.263,1.2325,1.2589,1.263,1.2318,1.2305,1.2425,1.273,1.2744,1.2744,1.2744,1.2744,1.2757,0.0,0.0,0.0,0.0,0.0,0.0,0.0,0.0,0.0,0.0,1.265,1.2603,1.2345,1.2311,1.2305,1.2305,1.2305,1.2305,1.2305,1.2305,1.2305,1.2305,1.2305,1.2305,1.2351,1.2656,1.2764,1.2837,1.3053,1.2966,1.2811,1.2643,1.1753,1.0781,1.0565,0.989,0.9258,0.9069,0.915,0.9258,0.9183,0.9738,1.0551,1.1572,1.1757,1.1271,0.0,0.0,0.0,0.0,0.0,0.0,0.0,0.0,0.0,0.0,0.0,0.0,0.0,0.0,0.544,0.5559,0.5569,0.5705,0.5963,0.0,0.6195,0.6654,0.6446,0.645,0.6658,0.6429,0.6368,0.6494,0.6508,0.663,0.6866,0.6879,0.6967,0.7095,0.7095,0.7095,0.7095,0.7095,0.7095,0.7115,0.7316,0.7458,0.758,0.0,0.0,0.0,0.0,0.0,0.0,0.0,1.3287,1.3033,1.2545,1.2378,1.2305,1.2305,1.2412,1.2432,1.2311,1.2412,1.2425,1.2311,1.2509,1.2656,1.2777,1.2965,1.3026,1.3026,1.3026,1.3026,0.0,0.0,0.0,0.0,0.0,0.0,0.0,0.0,1.308,1.2616,1.273,1.2616,1.2305,1.2305,1.2305,1.2305,1.2305,1.2305,1.2305,1.2305,1.2305,1.2305,1.2305,1.2305,1.2351,1.269,1.2911,1.3013,1.2991,1.3012,1.2946,1.2616,1.2125,1.1545,1.0938,1.0944,1.0795,0.9561,1.0233,1.0913,1.0303,1.0772,1.143,1.1835,1.1906,1.1342,0.0,0.0,0.0,0.0,0.0,0.0,0.0,0.0,0.0,0.0,0.0,0.0,0.0,0.0,0.0,0.5484,0.5542,0.5684,0.5884,0.0,0.6159,0.6474,0.6358,0.6361,0.6474,0.6358,0.6375,0.6515,0.6566,0.6773,0.7011,0.7011,0.7045,0.7095,0.7095,0.7095,0.7095,0.7095,0.7095,0.7125,0.7417,0.7546,0.7624,1.4496,0.0,1.4447,0.0,1.437,1.4248,1.334,1.3213,1.2993,1.2385,1.2305,1.2305,1.2305,1.2378,1.2398,1.2311,1.2465,1.2492,1.2311,1.2703,1.2918,1.2918,1.3173,0.0,1.334,1.334,1.33,1.3213,1.346,0.0,0.0,0.0,0.0,0.0,1.334,1.312,1.2784,1.2784,1.2616,1.2305,1.2305,1.2305,1.2305,1.2305,1.2305,1.2305,1.2305,1.2305,1.2305,1.2305,1.2305,1.2351,1.269,1.2938,1.3053,1.2958,1.3012,1.2979,1.2545,1.2371,1.2114,1.1428,1.1768,1.1929,1.0501,1.1285,1.2114,1.1391,1.1651,1.2033,1.2033,1.2033,1.1424,0.9656,0.0,0.0,0.0,0.0,0.0,0.0,0.0,0.6,0.5742,0.0,0.0,0.0,0.0,0.0,0.0,0.5678,0.0,0.0,0.0,0.0,0.0,0.63,0.63,0.63,0.634,0.6436,0.6546,0.6742,0.69,0.7095,0.7095,0.7095,0.7095,0.7095,0.7095,0.7095,0.7095,0.7095,0.7129,0.7434,0.756,0.7634,1.5455,1.5696,1.5338,1.4292,1.4977,1.5126,1.3453,1.3213,1.2993,1.2385,1.2305,1.2305,1.2305,1.2603,1.2663,1.2325,1.2852,1.2946,1.2345,1.2866,1.3206,0.0,0.0,1.36,1.36,1.36,1.346,1.3213,0.0,0.0,1.322,0.0,1.36,1.36,1.36,1.3307,1.2784,1.2784,1.2616,1.2305,1.2305,1.2305,1.2305,1.2305,1.2305,1.2305,1.2305,1.2305,1.2305,1.2305,1.2305,1.2351,1.269,1.279,1.2851,1.3113,1.3025,1.279,1.2784,1.2563,1.2305,1.2261,1.2298,1.2298,1.2268,1.2268,1.2305,1.2261,1.2298,1.2298,1.2298,1.2298,1.1671,0.9808,0.0,0.0,0.0,0.0,0.0,0.0,0.6162,0.6235,0.6003,0.0,0.0,0.0,0.0,0.0,0.0,0.0,0.0,0.6282,0.6296,0.0,0.63,0.63,0.63,0.6303,0.6443,0.6549,0.6709,0.6957,0.7092,0.7095,0.7095,0.7095,0.7095,0.7095,0.7095,0.7095,0.7095,0.7095,0.7115,0.7316,0.7468,0.7621,1.6445,1.5628,1.4671,1.4897,1.4582,1.3973,1.3057,1.3716,1.381,1.2489,1.3135,1.337,1.2392,1.2385,1.2405,0.0,1.2665,1.2851,0.0,1.3173,1.3467,1.3467,1.3553,1.36,1.36,1.36,1.346,1.3213,0.0,0.0,0.0,1.356,1.35,1.3347,1.3347,1.3126,1.2784,1.2784,1.2616,1.2305,1.2305,1.2305,1.2305,1.2305,1.2305,1.2305,1.2305,1.2305,1.2305,1.2305,1.2305,1.2318,1.2412,1.2623,1.2804,1.2904,1.2864,1.2737,1.2536,1.2371,1.2305,1.2305,1.2305,1.2305,1.2305,1.2305,1.2305,1.2305,1.2305,1.2305,1.2305,1.2305,1.1651,0.9687,0.9342,0.0,0.0,0.0,0.0,0.0,0.6166,0.6238,0.0,0.6125,0.0,0.0,0.0,0.0,0.0,0.0,0.0,0.0,0.6245,0.0,0.63,0.63,0.6351,0.6446,0.6491,0.6607,0.6861,0.7011,0.7095,0.7095,0.7095,0.7095,0.7095,0.7095,0.7095,0.7095,0.7095,0.7095,0.7115,0.7316,0.7468,0.7621,1.6976,1.6568,1.5973,1.6042,1.5654,1.507,1.4225,1.4668,1.4675,1.355,1.4129,1.4365,1.3506,1.3055,0.0,1.2342,1.2717,1.2911,1.279,1.3414,1.372,1.3606,1.3706,1.3808,1.3808,0.0,0.0,1.354,1.3908,1.3988,1.3808,1.3808,1.3714,1.3534,1.3427,1.3206,1.2951,1.2837,1.2616,1.2305,1.2305,1.2305,1.2305,1.2305,1.2305,1.2305,1.2305,1.2305,1.2305,1.2305,1.2305,1.2305,1.2305,1.2425,1.2616,1.2616,1.2616,1.2576,1.2351,1.2305,1.2305,1.2305,1.2305,1.2305,1.2305,1.2305,1.2338,1.2445,1.2509,1.2509,1.2509,1.2509,1.1902,1.0132,0.9561,0.8727,0.7099,0.0,0.0,0.0,0.0,0.0,0.0,0.6996,0.0,0.0,0.0,0.0,0.0,0.0,0.0,0.6115,0.6248,0.0,0.63,0.63,0.6371,0.6515,0.6586,0.677,0.6967,0.7055,0.7095,0.7095,0.7095,0.7095,0.7095,0.7095,0.7095,0.7095,0.7095,0.7095,0.7115,0.7316,0.7468,0.7621,1.7293,1.827,0.0,0.0,1.7835,0.0,1.6358,1.5947,1.567,1.5281,1.5328,1.5292,1.5136,1.4279,1.3317,1.2399,0.0,0.0,0.0,1.3655,1.3968,1.3646,1.3921,1.4048,1.4028,1.4048,1.4068,1.4088,1.4088,1.4088,1.4088,1.4068,1.4068,1.4075,1.3693,1.34,1.3186,1.2898,1.2589,1.2305,1.2325,1.2318,1.2305,1.2325,1.2318,1.2305,1.2305,1.2305,1.2305,1.2305,1.2305,1.2305,1.2305,1.2305,1.2305,1.2305,1.2305,1.2305,1.2305,1.2305,1.2305,1.2305,1.2305,1.2305,1.2325,1.2331,1.2418,1.2757,1.2817,1.2811,1.279,1.2784,1.2373,1.1017,1.0002,0.9031,0.7936,0.0,0.0,0.0,0.0,0.0,0.0,0.8466,0.7859,0.0,0.0,0.0,0.0,0.0,0.6112,0.6293,0.63,0.63,0.63,0.63,0.6375,0.6532,0.6797,0.697,0.7095,0.7095,0.7095,0.7095,0.7095,0.7095,0.7095,0.7095,0.7095,0.7095,0.7095,0.7095,0.7115,0.7316,0.7468,0.7621,0.0,0.0,1.7721,1.7734,1.748,1.6944,1.6026,1.6983,1.7287,1.5833,1.6596,1.6452,1.4297,1.3846,1.3411,1.2732,1.2993,1.3273,1.338,1.3841,1.4055,1.3981,1.3793,1.3606,1.342,1.3593,1.3854,1.4088,1.4088,1.4088,1.4082,1.3854,1.3868,1.4055,1.3333,1.3053,1.3173,1.2632,1.2365,1.2318,1.2589,1.2543,1.2325,1.2589,1.2536,1.2305,1.2305,1.2305,1.2305,1.2305,1.2305,1.2305,1.2305,1.2305,1.2305,1.2305,1.2305,1.2305,1.2305,1.2305,1.2305,1.2305,1.2305,1.2365,1.263,1.2683,1.2764,1.3039,1.31,1.3026,1.2831,1.2784,1.2373,1.1017,1.0602,0.9814,0.8046,0.8237,0.0,0.0,0.8466,0.9031,0.9263,0.9069,0.8618,0.0,0.0,0.0,0.0,0.6265,0.6262,0.6296,0.63,0.63,0.63,0.63,0.6429,0.6651,0.6906,0.7065,0.7095,0.7095,0.7095,0.7095,0.7095,0.7095,0.7095,0.7095,0.7095,0.7095,0.7095,0.7095,0.7115,0.7316,0.7468,0.7621,2.0284,1.9638,1.8891,1.9097,1.8641,1.8152,1.7729,1.8184,1.8258,1.7505,1.7441,1.7003,1.5655,1.467,1.4026,1.385,1.3456,1.3293,1.3586,1.3921,1.4088,1.4088,1.3935,1.3707,1.3373,1.3527,1.3613,1.3687,1.3821,1.3881,1.3881,1.368,1.3686,1.3861,1.3233,1.3012,1.2986,1.2799,1.2632,1.2556,1.2717,1.269,1.2549,1.2569,1.2445,1.2305,1.2305,1.2305,1.2305,1.2305,1.2305,1.2305,1.2305,1.2305,1.2305,1.2305,1.2305,1.2305,1.2305,1.2305,1.2305,1.2305,1.2305,1.2378,1.2717,1.2784,1.2911,1.3313,1.3367,1.3353,1.3186,1.3085,1.2698,1.1853,1.1203,1.0409,0.9324,0.9258,0.0,0.9173,0.9664,1.0158,1.0651,1.0271,0.9777,0.921,0.0,0.0,0.7022,0.6984,0.6756,0.63,0.63,0.63,0.63,0.6433,0.6542,0.6705,0.6957,0.7095,0.7095,0.7095,0.7401,0.7929,0.7929,0.7929,0.7929,0.7929,0.7577,0.7095,0.7095,0.7139,0.7265,0.7417,0.757,0.7719,2.0401,2.0605,2.0586,2.0517,2.0215,1.999,1.9922,1.9319,1.9033,1.9346,1.8246,1.7469,1.7479,1.5902,1.4851,1.4874,1.3888,1.34,1.3653,1.3948,1.4068,1.4021,1.4021,1.3861,1.3473,1.3513,1.3413,1.3213,1.3507,1.3646,1.36,1.356,1.356,1.3586,1.32,1.2953,1.2797,1.2979,1.2919,1.2723,1.2817,1.2831,1.2764,1.2518,1.2412,1.2365,1.2318,1.2305,1.2305,1.2305,1.2305,1.2305,1.2305,1.2305,1.2305,1.2305,1.2338,1.2371,1.2371,1.2405,1.2438,1.2438,1.2438,1.2518,1.2851,1.2918,1.3079,1.3553,1.3666,1.3653,1.3613,1.3367,1.3126,1.2898,1.1828,1.0987,1.0879,0.0,1.0008,1.0714,1.0932,1.1354,1.2224,1.1545,1.0975,1.082,1.0002,0.9122,0.0,0.791,0.7415,0.6599,0.6387,0.631,0.633,0.6586,0.6736,0.6736,0.6967,0.7183,0.736,0.736,0.8013,0.9148,0.9148,0.9165,0.9235,0.9016,0.8332,0.7426,0.7252,0.7288,0.7424,0.7577,0.7706,0.7831,2.0566,2.0605,2.0488,2.0078,2.0264,2.038,1.9971,2.0107,2.0156,1.9853,1.9606,1.8676,1.664,1.6152,1.5382,1.3974,1.3641,1.366,1.4001,1.4062,1.3975,1.3686,1.3673,1.3454,1.2938,1.3146,1.326,1.3213,1.3754,1.3895,1.36,1.3353,1.3367,1.3567,1.2806,1.2559,1.277,1.2532,1.2418,1.2418,1.2933,1.2979,1.2811,1.2986,1.2906,1.2683,1.2392,1.2305,1.2305,1.2305,1.2305,1.2305,1.2305,1.2305,1.2305,1.2305,1.2516,1.2717,1.2717,1.2904,1.3066,1.3066,1.3066,1.3146,1.34,1.3467,1.356,1.3948,1.4015,1.3941,1.3646,1.3367,1.32,1.3146,1.2551,1.1857,1.1215,0.0,1.1583,1.0901,1.1545,1.2114,1.2261,1.215,1.1694,1.0858,1.0677,1.0241,0.9447,0.8404,0.7816,0.7892,0.6865,0.6358,0.6477,0.6742,0.6852,0.6852,0.7018,0.7621,0.8627,0.8627,0.9231,1.0351,1.0351,1.0498,1.0672,0.9513,0.9112,0.902,0.7937,0.7543,0.7584,0.7726,0.779,0.7831,2.0605,2.0605,2.0537,2.0303,2.0468,2.0537,2.0293,2.0234,2.0225,2.0264,1.9067,1.7803,1.6901,1.576,1.4763,1.3951,1.3881,1.3941,1.4082,1.4088,1.4021,1.3888,1.3686,1.336,1.2797,1.2924,1.2886,1.2719,1.332,1.346,1.316,1.3019,1.3033,1.3146,1.2899,1.2685,1.2569,1.2879,1.2839,1.2616,1.3033,1.3126,1.3013,1.316,1.3019,1.2764,1.263,1.2438,1.2305,1.2305,1.2305,1.2305,1.2305,1.2305,1.2338,1.2529,1.2677,1.2817,1.2991,1.31,1.3213,1.3213,1.3213,1.3287,1.354,1.36,1.3686,1.4021,1.4088,1.3995,1.366,1.3367,1.3213,1.3213,1.2699,0.0,0.0,1.2185,1.2114,1.1657,1.204,1.2305,1.2305,1.2445,1.2388,1.1923,1.1992,1.1705,1.0835,1.0062,0.9535,0.9277,0.7395,0.6446,0.6511,0.6776,0.7307,0.8076,0.8199,0.8995,1.0298,1.014,1.07,1.1794,1.1794,1.186,1.1927,1.0755,0.9994,0.9381,0.8103,0.7645,0.7723,0.7787,0.7865,0.7894,2.0605,2.0605,2.0605,2.0605,2.0605,2.0605,2.0605,2.0283,2.0185,2.0556,1.8873,1.7528,1.7309,1.5835,1.4664,1.413,1.4088,1.4088,1.4088,1.4088,1.4055,1.3988,1.3831,1.3641,1.3499,1.3296,1.3079,1.2732,1.313,1.3153,1.2891,1.2817,1.2784,1.279,1.2919,1.2739,1.2351,1.3113,1.3173,1.2817,1.316,1.3273,1.3273,1.3273,1.316,1.2978,1.2837,1.2636,1.2392,1.2325,1.2305,1.2305,1.2305,1.2351,1.2489,1.2717,1.2884,1.3065,1.3333,1.3414,1.3414,1.3414,1.3414,1.3474,1.3653,1.3706,1.3808,1.4041,1.4035,1.3915,1.3646,1.3347,1.3126,1.32,0.0,0.0,0.0,1.2529,1.2305,1.2305,1.2305,1.2325,1.2398,1.265,1.2811,1.2891,1.3073,1.2869,1.22,1.1627,1.0976,1.0237,0.8388,0.7417,0.7417,0.7636,0.8379,0.9556,0.9669,1.045,1.1778,1.1602,1.2142,1.3211,1.3211,1.3095,1.2865,1.1787,1.0641,0.9468,0.8215,0.777,0.7865,0.7865,0.7891,0.8038,2.0605,2.0605,2.0605,2.0605,2.0605,2.0605,2.0605,2.0576,2.0566,2.0595,2.0411,1.9562,1.7536,1.718,1.6247,1.425,1.4088,1.4088,1.4088,1.4088,1.3968,1.3646,1.3967,1.4621,1.5544,1.4866,1.4338,1.4059,1.3744,1.342,1.3173,1.2918,1.2784,1.277,1.2485,1.2345,1.2325,1.2703,1.2824,1.2837,1.338,1.3573,1.3573,1.3573,1.3553,1.3467,1.2985,1.277,1.271,1.2392,1.2305,1.2305,1.2305,1.2529,1.2757,1.2777,1.314,1.36,1.3941,1.4021,1.4021,1.4021,1.4021,1.4028,1.4048,1.4055,1.4062,1.4082,1.3868,1.3626,1.3606,1.3173,1.2911,1.3166,0.0,0.0,1.2744,1.2529,1.2305,1.2305,1.2305,1.2412,1.2723,1.277,1.2904,1.3153,1.32,1.3287,1.3431,1.2305,1.1198,1.0242,1.013,1.0096,1.0096,1.0251,1.0522,1.0963,1.0984,1.1572,1.2695,1.2677,1.3298,1.4385,1.4385,1.4002,1.3246,1.1989,1.0891,0.9808,0.8495,0.7965,0.7971,0.7971,0.7978,0.8187,2.0605,2.0605,2.0605,2.0605,2.0605,2.0605,2.0605,2.0801,2.0977,2.0977,2.0609,1.9761,1.8171,1.7211,1.6045,1.4478,1.4195,1.437,1.5061,1.5095,1.4952,1.4684,1.5157,1.5683,1.6171,1.5783,1.5265,1.4576,1.4645,1.4158,1.32,1.2931,1.2891,1.3019,1.275,1.2685,1.2872,1.2986,1.3033,1.3073,1.344,1.36,1.362,1.3848,1.376,1.3547,1.318,1.2951,1.2737,1.2405,1.2305,1.2338,1.2556,1.269,1.2857,1.3193,1.3594,1.3941,1.4055,1.4088,1.4088,1.4088,1.4088,1.4041,1.3854,1.3955,1.3981,1.3621,1.3741,1.3808,1.34,1.3333,1.334,1.342,0.0,1.2966,1.326,1.3053,1.2866,1.2866,1.2866,1.2913,1.3026,1.32,1.3353,1.3427,1.3654,1.3801,1.3915,1.3428,1.2909,1.2319,1.2569,1.1949,1.0439,1.0537,1.1187,1.2383,1.2383,1.3184,1.466,1.4487,1.4637,1.5018,1.4177,1.3636,1.3263,1.137,1.032,0.985,0.8531,0.8528,0.9217,0.9217,0.9752,1.0386,2.0752,2.0703,2.0644,2.0752,2.0781,2.086,2.0997,2.124,2.1405,2.1405,2.1043,2.0298,1.9102,1.775,1.6465,1.5196,1.4872,1.4993,1.5662,1.6347,1.6652,1.6453,1.6716,1.7051,1.7505,1.7089,1.6363,1.5413,1.5336,1.4634,1.33,1.3033,1.2991,1.306,1.2878,1.2904,1.3073,1.3166,1.3267,1.3333,1.362,1.374,1.3766,1.4008,1.3961,1.37,1.3413,1.3153,1.2884,1.2545,1.2378,1.2351,1.269,1.2911,1.3126,1.3634,1.3928,1.4088,1.4088,1.4088,1.4088,1.4088,1.4015,1.3895,1.3646,1.3728,1.3694,1.3293,1.3534,1.3687,1.3287,1.3333,1.3467,1.3467,1.33,1.328,1.344,1.334,1.3213,1.3213,1.3213,1.3247,1.334,1.3487,1.364,1.3733,1.3975,1.4088,1.4088,1.4088,1.3995,1.3746,1.4068,1.3423,1.168,1.169,1.2426,1.389,1.3804,1.442,1.5685,1.5484,1.5398,1.5345,1.444,1.3631,1.2816,1.1681,1.0725,0.9948,0.941,0.9558,0.9998,0.9998,1.0534,1.1214,2.1112,2.0879,2.0752,2.1122,2.12,2.1346,2.1816,2.1885,2.1894,2.1894,2.1894,2.1492,2.034,1.9144,1.7838,1.6417,1.6182,1.5998,1.576,1.7779,1.8997,1.8997,1.8578,1.8831,1.9884,1.8869,1.7765,1.6694,1.5769,1.475,1.36,1.3347,1.3085,1.2829,1.2822,1.2822,1.2811,1.308,1.334,1.3633,1.3968,1.4082,1.4082,1.4082,1.4082,1.4041,1.37,1.3413,1.316,1.2891,1.2589,1.2358,1.2697,1.3166,1.3666,1.4001,1.4088,1.4088,1.4088,1.4088,1.4088,1.4088,1.3868,1.36,1.36,1.338,1.3213,1.3213,1.3213,1.322,1.3213,1.3213,1.322,1.322,1.322,1.322,1.322,1.322,1.322,1.322,1.322,1.3327,1.358,1.3606,1.3726,1.4062,1.4088,1.4088,1.4088,1.4088,1.4088,1.4088,1.4369,1.4479,1.4529,1.4242,1.4529,1.5391,1.5149,1.5117,1.5398,1.5398,1.5398,1.5398,1.5398,1.408,1.2042,1.3343,1.2323,1.0096,1.1365,1.1121,0.9998,0.9998,1.0047,1.0243,2.1602,2.1338,2.1172,2.1611,2.1689,2.1738,2.1865,2.2139,2.2324,2.2324,2.2578,2.2303,2.1082,2.048,1.9506,1.7897,1.7554,1.7597,1.8006,1.9353,2.0118,2.0118,1.9669,1.9745,2.0361,1.9755,1.8681,1.7129,1.7658,1.6927,1.5061,1.5247,1.5056,1.4518,1.4028,1.3631,1.338,1.3433,1.3646,1.3941,1.378,1.3733,1.3713,1.3547,1.3474,1.3434,1.3126,1.2998,1.2911,1.2817,1.2723,1.2744,1.3213,1.3641,1.3975,1.4062,1.4088,1.4088,1.4088,1.4088,1.4088,1.4088,1.3868,1.36,1.36,1.3533,1.3413,1.3253,1.354,1.3761,1.3513,1.3681,1.3821,1.3821,1.3821,1.3821,1.3821,1.3821,1.3821,1.3821,1.3821,1.3861,1.3948,1.3955,1.3988,1.4082,1.4088,1.4175,1.4382,1.4389,1.4389,1.4389,1.4476,1.4716,1.513,1.485,1.4981,1.5398,1.5311,1.5418,1.5698,1.5698,1.5698,1.5651,1.4728,1.3951,1.3199,1.1745,1.0676,0.9948,0.9361,1.0047,1.1312,1.1312,1.2474,1.398,2.2051,2.1787,2.1631,2.206,2.2139,2.2187,2.2353,2.2598,2.2721,2.2721,2.2935,2.2818,2.2076,2.1447,2.0542,1.923,1.8672,1.8765,1.9578,2.0245,2.0605,2.0605,2.0312,2.0293,2.0595,2.0303,1.9464,1.798,1.8678,1.806,1.6347,1.6555,1.6166,1.5283,1.4846,1.4238,1.36,1.36,1.3773,1.4075,1.3895,1.3947,1.4177,1.3989,1.419,1.4528,1.4199,1.3854,1.3578,1.3421,1.3171,1.3013,1.3453,1.3848,1.4088,1.4088,1.4088,1.4088,1.4088,1.4088,1.4088,1.4088,1.3868,1.36,1.36,1.3513,1.3387,1.3247,1.3587,1.3854,1.3633,1.3888,1.4088,1.4088,1.4088,1.4088,1.4088,1.4088,1.4088,1.4088,1.4088,1.4088,1.4088,1.4088,1.4088,1.4088,1.4088,1.4215,1.4502,1.4522,1.4576,1.4689,1.4803,1.5037,1.5391,1.5337,1.5391,1.5565,1.5451,1.5545,1.5784,1.5784,1.5784,1.573,1.4459,1.3926,1.3776,1.2178,1.1551,1.1502,1.1205,1.1741,1.2668,1.2668,1.3686,1.4949,2.248,2.2227,2.207,2.249,2.2539,2.2604,2.2984,2.3042,2.3042,2.3042,2.3071,2.3091,2.3091,2.2129,2.1153,2.0404,1.9611,1.9559,2.0527,2.0605,2.0605,2.0605,2.0605,2.0605,2.0605,2.0605,2.0079,1.8997,1.9116,1.855,1.7464,1.7503,1.683,1.557,1.557,1.4944,1.392,1.3906,1.4124,1.437,1.4342,1.473,1.525,1.5228,1.5834,1.6604,1.619,1.5511,1.4718,1.4304,1.3758,1.3333,1.356,1.3868,1.4088,1.4088,1.4088,1.4088,1.4088,1.4088,1.4088,1.4088,1.3881,1.364,1.364,1.3413,1.326,1.328,1.346,1.364,1.364,1.3908,1.4088,1.4088,1.4088,1.4088,1.4088,1.4088,1.4088,1.4088,1.4088,1.4088,1.4088,1.4115,1.4135,1.4162,1.4162,1.4295,1.4583,1.4596,1.4723,1.5035,1.5257,1.5404,1.5438,1.5671,1.5758,1.5778,1.5565,1.5571,1.5784,1.5784,1.5784,1.573,1.4555,1.407,1.407,1.3974,1.3926,1.4022,1.5045,1.4806,1.3926,1.3926,1.3974,1.407,2.2877,2.2666,2.251,2.2886,2.2734,2.2539,2.2637,2.2646,2.2646,2.2646,2.2886,2.3091,2.3091,2.2862,2.2385,2.1601,2.0745,2.0362,2.0566,2.0605,2.0605,2.0605,2.0605,2.0605,2.0605,2.0605,2.0079,1.8997,1.9844,1.9678,1.863,1.9108,1.879,1.7812,1.7696,1.7094,1.6206,1.6412,1.6537,1.6585,1.6373,1.6373,1.6473,1.6228,1.6267,1.6441,1.6367,1.5656,1.4676,1.3973,1.3811,1.3908,1.3968,1.4035,1.4088,1.4088,1.4088,1.4088,1.4088,1.4088,1.4088,1.4088,1.4041,1.3988,1.3988,1.372,1.3573,1.3848,1.3948,1.3988,1.3988,1.4041,1.4088,1.4088,1.4088,1.4088,1.4088,1.4088,1.4088,1.4088,1.4088,1.4088,1.4088,1.4295,1.4522,1.48,1.4821,1.4903,1.519,1.5204,1.5237,1.5297,1.5364,1.5504,1.5732,1.5571,1.5605,1.5784,1.5718,1.5718,1.5784,1.5784,1.5784,1.5778,1.5486,1.5391,1.5289,1.4316,1.3926,1.3824,1.306,1.3204,1.3926,1.3926,1.4507,1.5391,2.3052,2.2916,2.2838,2.3052,2.2916,2.2701,2.2539,2.251,2.2441,2.2236,2.2402,2.2539,2.2539,2.2539,2.2285,2.1631,2.0957,2.0605,2.0605,2.0605,2.0605,2.0605,2.0605,2.0605,2.0605,2.0605,2.0323,1.9766,2.0323,2.0323,1.9756,2.0091,1.9707,1.8728,1.8689,1.7939,1.6837,1.7177,1.7195,1.703,1.7085,1.7153,1.7277,1.7078,1.7186,1.7387,1.6872,1.5832,1.4582,1.3858,1.3706,1.3901,1.4041,1.4088,1.4088,1.4088,1.4088,1.4088,1.4088,1.4088,1.4088,1.4088,1.4088,1.4088,1.4088,1.3968,1.3901,1.4055,1.4088,1.4088,1.4088,1.4202,1.4249,1.4108,1.4202,1.4249,1.4108,1.4088,1.4088,1.4088,1.4088,1.4142,1.4282,1.4556,1.4796,1.4995,1.5008,1.5135,1.5384,1.5398,1.5464,1.5598,1.5605,1.5671,1.5784,1.5678,1.5678,1.5784,1.5784,1.5784,1.5784,1.5784,1.5784,1.5784,1.5146,1.5242,1.5683,1.4411,1.4268,1.4752,1.4028,1.4178,1.48,1.48,1.5242,1.5784,2.3091,2.3091,2.3091,2.3091,2.2974,2.2769,2.2461,2.2344,2.2197,2.1924,2.1885,2.1914,2.1982,2.1865,2.1631,2.122,2.082,2.0605,2.0605,2.0605,2.0605,2.0605,2.0605,2.0605,2.0605,2.0605,2.0605,2.0605,2.0605,2.0605,2.0605,2.0605,2.0128,1.9274,1.9274,1.8562,1.74,1.7723,1.7672,1.7409,1.7732,1.8013,1.8209,1.8209,1.8526,1.8812,1.7743,1.6254,1.4665,1.3913,1.368,1.372,1.4008,1.4088,1.4088,1.4088,1.4088,1.4088,1.4088,1.4088,1.4088,1.4088,1.4088,1.4088,1.4088,1.4088,1.4088,1.4088,1.4128,1.4162,1.4162,1.4396,1.4516,1.4275,1.4436,1.4509,1.4269,1.4235,1.4235,1.4235,1.4235,1.4329,1.4569,1.4863,1.5082,1.5082,1.5129,1.5217,1.5458,1.5471,1.5578,1.5771,1.5784,1.5784,1.5784,1.5784,1.5784,1.5784,1.5784,1.5784,1.5784,1.5784,1.5784,1.573,1.4704,1.4806,1.573,1.4657,1.4854,1.5784,1.5784,1.5784,1.5784,1.5784,1.5784,1.5784,2.3091,2.3091,2.3091,2.3091,2.2539,2.2031,2.1982,2.165,2.1483,2.1846,2.1885,2.2021,2.2383,2.1768,2.1259,2.12,2.082,2.0605,2.0605,2.0605,2.0605,2.0605,2.0605,2.0605,2.0605,2.0605,2.0605,2.0605,2.0605,2.0605,2.0605,2.0605,2.0527,2.0362,2.0362,2.0285,2.0071,2.0138,2.0119,2.0071,2.0138,2.0168,2.0188,2.0188,2.0275,2.0188,1.9114,1.7344,1.542,1.4378,1.4028,1.4035,1.4075,1.4088,1.4088,1.4088,1.4088,1.4088,1.4088,1.4088,1.4088,1.4088,1.4088,1.4088,1.4088,1.4088,1.4088,1.4088,1.4282,1.4462,1.4462,1.4703,1.4934,1.4894,1.4921,1.4934,1.4894,1.4894,1.4894,1.4894,1.4894,1.4908,1.4948,1.517,1.5337,1.5337,1.5571,1.5732,1.5718,1.5772,1.5744,1.5784,1.5784,1.5784,1.5784,1.5784,1.5784,1.5784,1.5784,1.5784,1.5784,1.5784,1.5784,1.5778,1.5635,1.5635,1.5778,1.5635,1.5635,1.5784,1.5784,1.5784,1.5784,1.5784,1.5784,1.5784,2.3091,2.3091,2.3091,2.3091,2.2789,2.251,2.2275,2.207,2.1846,2.1562,2.1523,2.1494,2.1426,2.1084,2.0859,2.0859,2.0713,2.0605,2.0605,2.0605,2.0605,2.0605,2.0605,2.0605,2.0605,2.0605,2.0605,2.0605,2.0605,2.0605,2.0605,2.0605,2.0605,2.0605,2.0605,2.0468,2.0215,2.0507,2.0458,2.0225,2.0507,2.0458,2.0205,2.0205,2.0059,1.9685,1.8213,1.6871,1.5538,1.4454,1.4088,1.4088,1.4088,1.4088,1.4088,1.4088,1.4088,1.4088,1.4088,1.4088,1.4088,1.4088,1.4088,1.4128,1.4295,1.4329,1.4282,1.4122,1.4449,1.4716,1.4549,1.4897,1.515,1.5035,1.5149,1.515,1.5028,1.5008,1.5008,1.5008,1.511,1.5204,1.5204,1.5471,1.5638,1.5638,1.5711,1.5784,1.5784,1.5784,1.5784,1.5784,1.5784,1.5784,1.5784,1.5784,1.5784,1.5784,1.5784,1.5784,1.5784,1.5784,1.5784,1.5784,1.5784,1.5784,1.5784,1.5784,1.5784,1.5784,1.5784,1.5784,1.5784,1.5784,1.5784,1.5784]}]]